<?xml version='1.0' encoding='UTF-8'?>
<gpx version="1.1" creator="https://www.komoot.de" xmlns="http://www.topografix.com/GPX/1/1" xmlns:xsi="http://www.w3.org/2001/XMLSchema-instance" xsi:schemaLocation="http://www.topografix.com/GPX/1/1 http://www.topografix.com/GPX/1/1/gpx.xsd">
  <metadata>
    <name>60_1100WehrHornberg</name>
    <author>
      <link href="https://www.komoot.de">
        <text>komoot</text>
        <type>text/html</type>
      </link>
    </author>
  </metadata>
  <trk>
    <name>60_1100WehrHornberg</name>
    <trkseg>
      <trkpt lat="47.541320" lon="7.870866">
        <ele>339.202003</ele>
        <time>2021-11-16T05:50:03.791Z</time>
      </trkpt>
      <trkpt lat="47.541410" lon="7.870791">
        <ele>339.202003</ele>
        <time>2021-11-16T05:50:05.423Z</time>
      </trkpt>
      <trkpt lat="47.541576" lon="7.870664">
        <ele>339.202003</ele>
        <time>2021-11-16T05:50:07.863Z</time>
      </trkpt>
      <trkpt lat="47.541550" lon="7.870601">
        <ele>339.202003</ele>
        <time>2021-11-16T05:50:08.673Z</time>
      </trkpt>
      <trkpt lat="47.541521" lon="7.870517">
        <ele>339.202003</ele>
        <time>2021-11-16T05:50:09.709Z</time>
      </trkpt>
      <trkpt lat="47.541606" lon="7.870424">
        <ele>339.202003</ele>
        <time>2021-11-16T05:50:11.358Z</time>
      </trkpt>
      <trkpt lat="47.541910" lon="7.870106">
        <ele>339.202003</ele>
        <time>2021-11-16T05:50:17.020Z</time>
      </trkpt>
      <trkpt lat="47.542014" lon="7.870126">
        <ele>339.119776</ele>
        <time>2021-11-16T05:50:18.491Z</time>
      </trkpt>
      <trkpt lat="47.542118" lon="7.870135">
        <ele>339.021322</ele>
        <time>2021-11-16T05:50:20.228Z</time>
      </trkpt>
      <trkpt lat="47.542181" lon="7.870131">
        <ele>338.961729</ele>
        <time>2021-11-16T05:50:21.093Z</time>
      </trkpt>
      <trkpt lat="47.542317" lon="7.870012">
        <ele>338.812454</ele>
        <time>2021-11-16T05:50:23.209Z</time>
      </trkpt>
      <trkpt lat="47.542348" lon="7.869983">
        <ele>338.777805</ele>
        <time>2021-11-16T05:50:23.648Z</time>
      </trkpt>
      <trkpt lat="47.542329" lon="7.869820">
        <ele>338.672279</ele>
        <time>2021-11-16T05:50:25.423Z</time>
      </trkpt>
      <trkpt lat="47.542372" lon="7.869746">
        <ele>338.609988</ele>
        <time>2021-11-16T05:50:26.232Z</time>
      </trkpt>
      <trkpt lat="47.542657" lon="7.869354">
        <ele>338.242449</ele>
        <time>2021-11-16T05:50:31.032Z</time>
      </trkpt>
      <trkpt lat="47.542696" lon="7.869257">
        <ele>338.170423</ele>
        <time>2021-11-16T05:50:31.967Z</time>
      </trkpt>
      <trkpt lat="47.542722" lon="7.869201">
        <ele>338.127063</ele>
        <time>2021-11-16T05:50:32.559Z</time>
      </trkpt>
      <trkpt lat="47.543049" lon="7.868759">
        <ele>337.708718</ele>
        <time>2021-11-16T05:50:37.472Z</time>
      </trkpt>
      <trkpt lat="47.543105" lon="7.868711">
        <ele>337.647575</ele>
        <time>2021-11-16T05:50:38.210Z</time>
      </trkpt>
      <trkpt lat="47.543201" lon="7.868657">
        <ele>337.550529</ele>
        <time>2021-11-16T05:50:39.288Z</time>
      </trkpt>
      <trkpt lat="47.543657" lon="7.868359">
        <ele>336.908603</ele>
        <time>2021-11-16T05:50:45.084Z</time>
      </trkpt>
      <trkpt lat="47.543801" lon="7.868269">
        <ele>336.701172</ele>
        <time>2021-11-16T05:50:47.563Z</time>
      </trkpt>
      <trkpt lat="47.544214" lon="7.867988">
        <ele>336.097989</ele>
        <time>2021-11-16T05:50:55.180Z</time>
      </trkpt>
      <trkpt lat="47.544246" lon="7.867967">
        <ele>336.051538</ele>
        <time>2021-11-16T05:50:55.776Z</time>
      </trkpt>
      <trkpt lat="47.544410" lon="7.867825">
        <ele>335.799425</ele>
        <time>2021-11-16T05:50:59.029Z</time>
      </trkpt>
      <trkpt lat="47.544469" lon="7.867776">
        <ele>335.709654</ele>
        <time>2021-11-16T05:51:00.051Z</time>
      </trkpt>
      <trkpt lat="47.544568" lon="7.867693">
        <ele>335.558679</ele>
        <time>2021-11-16T05:51:01.978Z</time>
      </trkpt>
      <trkpt lat="47.545003" lon="7.867278">
        <ele>335.221278</ele>
        <time>2021-11-16T05:51:10.827Z</time>
      </trkpt>
      <trkpt lat="47.545160" lon="7.866985">
        <ele>335.367841</ele>
        <time>2021-11-16T05:51:15.477Z</time>
      </trkpt>
      <trkpt lat="47.545240" lon="7.866887">
        <ele>335.428092</ele>
        <time>2021-11-16T05:51:17.751Z</time>
      </trkpt>
      <trkpt lat="47.546096" lon="7.866147">
        <ele>336.003323</ele>
        <time>2021-11-16T05:51:42.821Z</time>
      </trkpt>
      <trkpt lat="47.546327" lon="7.865959">
        <ele>336.156296</ele>
        <time>2021-11-16T05:51:49.241Z</time>
      </trkpt>
      <trkpt lat="47.546510" lon="7.865766">
        <ele>336.197262</ele>
        <time>2021-11-16T05:51:55.627Z</time>
      </trkpt>
      <trkpt lat="47.546819" lon="7.865489">
        <ele>336.260136</ele>
        <time>2021-11-16T05:52:03.780Z</time>
      </trkpt>
      <trkpt lat="47.546889" lon="7.865225">
        <ele>336.293466</ele>
        <time>2021-11-16T05:52:07.567Z</time>
      </trkpt>
      <trkpt lat="47.546894" lon="7.864837">
        <ele>336.339067</ele>
        <time>2021-11-16T05:52:12.744Z</time>
      </trkpt>
      <trkpt lat="47.546885" lon="7.864500">
        <ele>336.378698</ele>
        <time>2021-11-16T05:52:18.383Z</time>
      </trkpt>
      <trkpt lat="47.546974" lon="7.864423">
        <ele>336.396640</ele>
        <time>2021-11-16T05:52:19.971Z</time>
      </trkpt>
      <trkpt lat="47.547320" lon="7.863864">
        <ele>336.350272</ele>
        <time>2021-11-16T05:52:29.896Z</time>
      </trkpt>
      <trkpt lat="47.547568" lon="7.863151">
        <ele>335.511577</ele>
        <time>2021-11-16T05:52:38.909Z</time>
      </trkpt>
      <trkpt lat="47.547930" lon="7.861711">
        <ele>333.904850</ele>
        <time>2021-11-16T05:52:55.283Z</time>
      </trkpt>
      <trkpt lat="47.548049" lon="7.860929">
        <ele>333.184457</ele>
        <time>2021-11-16T05:53:03.983Z</time>
      </trkpt>
      <trkpt lat="47.548334" lon="7.859801">
        <ele>332.164709</ele>
        <time>2021-11-16T05:53:17.464Z</time>
      </trkpt>
      <trkpt lat="47.548611" lon="7.858381">
        <ele>331.344158</ele>
        <time>2021-11-16T05:53:35.421Z</time>
      </trkpt>
      <trkpt lat="47.548686" lon="7.857973">
        <ele>331.284909</ele>
        <time>2021-11-16T05:53:40.810Z</time>
      </trkpt>
      <trkpt lat="47.548701" lon="7.857893">
        <ele>331.273276</ele>
        <time>2021-11-16T05:53:41.930Z</time>
      </trkpt>
      <trkpt lat="47.548743" lon="7.857692">
        <ele>331.243794</ele>
        <time>2021-11-16T05:53:44.704Z</time>
      </trkpt>
      <trkpt lat="47.548887" lon="7.857308">
        <ele>331.182244</ele>
        <time>2021-11-16T05:53:50.738Z</time>
      </trkpt>
      <trkpt lat="47.549362" lon="7.855774">
        <ele>330.861866</ele>
        <time>2021-11-16T05:54:14.783Z</time>
      </trkpt>
      <trkpt lat="47.549566" lon="7.855225">
        <ele>330.707359</ele>
        <time>2021-11-16T05:54:23.399Z</time>
      </trkpt>
      <trkpt lat="47.549883" lon="7.854434">
        <ele>330.480561</ele>
        <time>2021-11-16T05:54:34.854Z</time>
      </trkpt>
      <trkpt lat="47.550221" lon="7.853833">
        <ele>329.652677</ele>
        <time>2021-11-16T05:54:41.247Z</time>
      </trkpt>
      <trkpt lat="47.551516" lon="7.851950">
        <ele>324.950285</ele>
        <time>2021-11-16T05:55:00.045Z</time>
      </trkpt>
      <trkpt lat="47.551660" lon="7.851725">
        <ele>324.264941</ele>
        <time>2021-11-16T05:55:02.076Z</time>
      </trkpt>
      <trkpt lat="47.551830" lon="7.851603">
        <ele>323.646357</ele>
        <time>2021-11-16T05:55:03.996Z</time>
      </trkpt>
      <trkpt lat="47.551925" lon="7.851845">
        <ele>323.027582</ele>
        <time>2021-11-16T05:55:05.841Z</time>
      </trkpt>
      <trkpt lat="47.552042" lon="7.852007">
        <ele>322.503166</ele>
        <time>2021-11-16T05:55:07.486Z</time>
      </trkpt>
      <trkpt lat="47.552097" lon="7.852063">
        <ele>322.284623</ele>
        <time>2021-11-16T05:55:08.117Z</time>
      </trkpt>
      <trkpt lat="47.552272" lon="7.852167">
        <ele>321.667151</ele>
        <time>2021-11-16T05:55:10.023Z</time>
      </trkpt>
      <trkpt lat="47.552449" lon="7.852231">
        <ele>321.070498</ele>
        <time>2021-11-16T05:55:11.824Z</time>
      </trkpt>
      <trkpt lat="47.552678" lon="7.851709">
        <ele>319.837766</ele>
        <time>2021-11-16T05:55:16.098Z</time>
      </trkpt>
      <trkpt lat="47.552876" lon="7.851300">
        <ele>319.107213</ele>
        <time>2021-11-16T05:55:19.644Z</time>
      </trkpt>
      <trkpt lat="47.553283" lon="7.850634">
        <ele>317.803187</ele>
        <time>2021-11-16T05:55:26.314Z</time>
      </trkpt>
      <trkpt lat="47.553344" lon="7.850525">
        <ele>317.597670</ele>
        <time>2021-11-16T05:55:27.392Z</time>
      </trkpt>
      <trkpt lat="47.553380" lon="7.850453">
        <ele>317.467616</ele>
        <time>2021-11-16T05:55:28.079Z</time>
      </trkpt>
      <trkpt lat="47.553537" lon="7.849904">
        <ele>316.602216</ele>
        <time>2021-11-16T05:55:32.565Z</time>
      </trkpt>
      <trkpt lat="47.553605" lon="7.849629">
        <ele>316.200539</ele>
        <time>2021-11-16T05:55:34.855Z</time>
      </trkpt>
      <trkpt lat="47.553725" lon="7.849291">
        <ele>315.840683</ele>
        <time>2021-11-16T05:55:37.777Z</time>
      </trkpt>
      <trkpt lat="47.554055" lon="7.848586">
        <ele>315.032270</ele>
        <time>2021-11-16T05:55:44.675Z</time>
      </trkpt>
      <trkpt lat="47.554209" lon="7.848300">
        <ele>314.687530</ele>
        <time>2021-11-16T05:55:47.638Z</time>
      </trkpt>
      <trkpt lat="47.554269" lon="7.848188">
        <ele>314.552794</ele>
        <time>2021-11-16T05:55:48.717Z</time>
      </trkpt>
      <trkpt lat="47.554351" lon="7.848049">
        <ele>314.378842</ele>
        <time>2021-11-16T05:55:50.177Z</time>
      </trkpt>
      <trkpt lat="47.554465" lon="7.847858">
        <ele>314.138594</ele>
        <time>2021-11-16T05:55:52.259Z</time>
      </trkpt>
      <trkpt lat="47.554618" lon="7.847626">
        <ele>313.832959</ele>
        <time>2021-11-16T05:55:54.757Z</time>
      </trkpt>
      <trkpt lat="47.554759" lon="7.847388">
        <ele>313.551629</ele>
        <time>2021-11-16T05:55:57.175Z</time>
      </trkpt>
      <trkpt lat="47.554892" lon="7.847148">
        <ele>313.284226</ele>
        <time>2021-11-16T05:55:59.606Z</time>
      </trkpt>
      <trkpt lat="47.554995" lon="7.846915">
        <ele>313.044386</ele>
        <time>2021-11-16T05:56:01.763Z</time>
      </trkpt>
      <trkpt lat="47.555068" lon="7.846672">
        <ele>312.815351</ele>
        <time>2021-11-16T05:56:03.823Z</time>
      </trkpt>
      <trkpt lat="47.555199" lon="7.846687">
        <ele>312.647711</ele>
        <time>2021-11-16T05:56:05.304Z</time>
      </trkpt>
      <trkpt lat="47.555727" lon="7.846715">
        <ele>311.973608</ele>
        <time>2021-11-16T05:56:11.762Z</time>
      </trkpt>
      <trkpt lat="47.555855" lon="7.846815">
        <ele>311.788985</ele>
        <time>2021-11-16T05:56:13.424Z</time>
      </trkpt>
      <trkpt lat="47.555892" lon="7.846856">
        <ele>311.730036</ele>
        <time>2021-11-16T05:56:13.982Z</time>
      </trkpt>
      <trkpt lat="47.555966" lon="7.846932">
        <ele>311.615158</ele>
        <time>2021-11-16T05:56:15.131Z</time>
      </trkpt>
      <trkpt lat="47.555990" lon="7.846965">
        <ele>311.573384</ele>
        <time>2021-11-16T05:56:15.563Z</time>
      </trkpt>
      <trkpt lat="47.556060" lon="7.846859">
        <ele>311.445684</ele>
        <time>2021-11-16T05:56:16.757Z</time>
      </trkpt>
      <trkpt lat="47.556636" lon="7.845928">
        <ele>310.791720</ele>
        <time>2021-11-16T05:56:27.143Z</time>
      </trkpt>
      <trkpt lat="47.557134" lon="7.845095">
        <ele>310.218294</ele>
        <time>2021-11-16T05:56:36.963Z</time>
      </trkpt>
      <trkpt lat="47.557282" lon="7.844832">
        <ele>310.060540</ele>
        <time>2021-11-16T05:56:40.102Z</time>
      </trkpt>
      <trkpt lat="47.557560" lon="7.844433">
        <ele>310.008736</ele>
        <time>2021-11-16T05:56:45.277Z</time>
      </trkpt>
      <trkpt lat="47.557715" lon="7.843940">
        <ele>309.959607</ele>
        <time>2021-11-16T05:56:50.282Z</time>
      </trkpt>
      <trkpt lat="47.557759" lon="7.843839">
        <ele>309.948747</ele>
        <time>2021-11-16T05:56:51.462Z</time>
      </trkpt>
      <trkpt lat="47.557846" lon="7.843756">
        <ele>309.934897</ele>
        <time>2021-11-16T05:56:52.810Z</time>
      </trkpt>
      <trkpt lat="47.557967" lon="7.843683">
        <ele>309.917410</ele>
        <time>2021-11-16T05:56:54.839Z</time>
      </trkpt>
      <trkpt lat="47.557967" lon="7.843683">
        <ele>309.917410</ele>
        <time>2021-11-16T05:56:54.845Z</time>
      </trkpt>
      <trkpt lat="47.557967" lon="7.843683">
        <ele>309.917410</ele>
        <time>2021-11-16T05:56:54.918Z</time>
      </trkpt>
      <trkpt lat="47.558136" lon="7.843582">
        <ele>309.893018</ele>
        <time>2021-11-16T05:56:57.605Z</time>
      </trkpt>
      <trkpt lat="47.558405" lon="7.843371">
        <ele>309.852278</ele>
        <time>2021-11-16T05:57:02.470Z</time>
      </trkpt>
      <trkpt lat="47.558471" lon="7.843365">
        <ele>309.843427</ele>
        <time>2021-11-16T05:57:03.321Z</time>
      </trkpt>
      <trkpt lat="47.558555" lon="7.843392">
        <ele>309.831922</ele>
        <time>2021-11-16T05:57:04.603Z</time>
      </trkpt>
      <trkpt lat="47.558884" lon="7.843836">
        <ele>309.864423</ele>
        <time>2021-11-16T05:57:11.882Z</time>
      </trkpt>
      <trkpt lat="47.559060" lon="7.844197">
        <ele>309.896248</ele>
        <time>2021-11-16T05:57:16.708Z</time>
      </trkpt>
      <trkpt lat="47.559109" lon="7.844229">
        <ele>309.901919</ele>
        <time>2021-11-16T05:57:17.686Z</time>
      </trkpt>
      <trkpt lat="47.559158" lon="7.844233">
        <ele>309.907115</ele>
        <time>2021-11-16T05:57:18.703Z</time>
      </trkpt>
      <trkpt lat="47.559583" lon="7.843813">
        <ele>309.961209</ele>
        <time>2021-11-16T05:57:26.684Z</time>
      </trkpt>
      <trkpt lat="47.559847" lon="7.843604">
        <ele>309.992904</ele>
        <time>2021-11-16T05:57:31.082Z</time>
      </trkpt>
      <trkpt lat="47.560139" lon="7.843433">
        <ele>309.908482</ele>
        <time>2021-11-16T05:57:35.312Z</time>
      </trkpt>
      <trkpt lat="47.560209" lon="7.843393">
        <ele>309.838060</ele>
        <time>2021-11-16T05:57:36.264Z</time>
      </trkpt>
      <trkpt lat="47.560338" lon="7.843341">
        <ele>309.712574</ele>
        <time>2021-11-16T05:57:37.930Z</time>
      </trkpt>
      <trkpt lat="47.560430" lon="7.843341">
        <ele>309.626217</ele>
        <time>2021-11-16T05:57:39.472Z</time>
      </trkpt>
      <trkpt lat="47.560515" lon="7.843379">
        <ele>309.542880</ele>
        <time>2021-11-16T05:57:40.506Z</time>
      </trkpt>
      <trkpt lat="47.560812" lon="7.843560">
        <ele>309.241445</ele>
        <time>2021-11-16T05:57:44.565Z</time>
      </trkpt>
      <trkpt lat="47.560934" lon="7.843550">
        <ele>309.126754</ele>
        <time>2021-11-16T05:57:46.088Z</time>
      </trkpt>
      <trkpt lat="47.561038" lon="7.843502">
        <ele>309.024509</ele>
        <time>2021-11-16T05:57:47.376Z</time>
      </trkpt>
      <trkpt lat="47.561434" lon="7.843181">
        <ele>308.600826</ele>
        <time>2021-11-16T05:57:52.817Z</time>
      </trkpt>
      <trkpt lat="47.561498" lon="7.843130">
        <ele>308.532617</ele>
        <time>2021-11-16T05:57:53.581Z</time>
      </trkpt>
      <trkpt lat="47.562179" lon="7.842500">
        <ele>307.598260</ele>
        <time>2021-11-16T05:58:02.840Z</time>
      </trkpt>
      <trkpt lat="47.562300" lon="7.842326">
        <ele>307.387675</ele>
        <time>2021-11-16T05:58:04.791Z</time>
      </trkpt>
      <trkpt lat="47.562385" lon="7.842183">
        <ele>307.227062</ele>
        <time>2021-11-16T05:58:06.203Z</time>
      </trkpt>
      <trkpt lat="47.562440" lon="7.842083">
        <ele>307.118332</ele>
        <time>2021-11-16T05:58:07.318Z</time>
      </trkpt>
      <trkpt lat="47.562574" lon="7.841873">
        <ele>306.874740</ele>
        <time>2021-11-16T05:58:09.716Z</time>
      </trkpt>
      <trkpt lat="47.562904" lon="7.841632">
        <ele>306.415240</ele>
        <time>2021-11-16T05:58:14.205Z</time>
      </trkpt>
      <trkpt lat="47.562965" lon="7.841597">
        <ele>306.333540</ele>
        <time>2021-11-16T05:58:14.993Z</time>
      </trkpt>
      <trkpt lat="47.563016" lon="7.841568">
        <ele>306.265313</ele>
        <time>2021-11-16T05:58:15.694Z</time>
      </trkpt>
      <trkpt lat="47.563300" lon="7.841391">
        <ele>305.912653</ele>
        <time>2021-11-16T05:58:19.432Z</time>
      </trkpt>
      <trkpt lat="47.563483" lon="7.841269">
        <ele>305.702531</ele>
        <time>2021-11-16T05:58:21.990Z</time>
      </trkpt>
      <trkpt lat="47.563659" lon="7.841150">
        <ele>305.499962</ele>
        <time>2021-11-16T05:58:24.317Z</time>
      </trkpt>
      <trkpt lat="47.563805" lon="7.841046">
        <ele>305.330337</ele>
        <time>2021-11-16T05:58:26.379Z</time>
      </trkpt>
      <trkpt lat="47.563941" lon="7.840948">
        <ele>305.171985</ele>
        <time>2021-11-16T05:58:28.231Z</time>
      </trkpt>
      <trkpt lat="47.563986" lon="7.840916">
        <ele>305.119721</ele>
        <time>2021-11-16T05:58:28.852Z</time>
      </trkpt>
      <trkpt lat="47.564094" lon="7.840838">
        <ele>304.993916</ele>
        <time>2021-11-16T05:58:30.321Z</time>
      </trkpt>
      <trkpt lat="47.564463" lon="7.840580">
        <ele>304.566682</ele>
        <time>2021-11-16T05:58:35.308Z</time>
      </trkpt>
      <trkpt lat="47.564534" lon="7.840532">
        <ele>304.484965</ele>
        <time>2021-11-16T05:58:36.215Z</time>
      </trkpt>
      <trkpt lat="47.564558" lon="7.840516">
        <ele>304.457409</ele>
        <time>2021-11-16T05:58:36.539Z</time>
      </trkpt>
      <trkpt lat="47.564936" lon="7.840261">
        <ele>304.013368</ele>
        <time>2021-11-16T05:58:41.440Z</time>
      </trkpt>
      <trkpt lat="47.565057" lon="7.840213">
        <ele>303.875288</ele>
        <time>2021-11-16T05:58:42.854Z</time>
      </trkpt>
      <trkpt lat="47.565168" lon="7.840179">
        <ele>303.750342</ele>
        <time>2021-11-16T05:58:44.195Z</time>
      </trkpt>
      <trkpt lat="47.565233" lon="7.840176">
        <ele>303.678655</ele>
        <time>2021-11-16T05:58:44.931Z</time>
      </trkpt>
      <trkpt lat="47.565343" lon="7.840185">
        <ele>303.557212</ele>
        <time>2021-11-16T05:58:46.191Z</time>
      </trkpt>
      <trkpt lat="47.565906" lon="7.840272">
        <ele>302.933226</ele>
        <time>2021-11-16T05:58:53.052Z</time>
      </trkpt>
      <trkpt lat="47.566081" lon="7.840309">
        <ele>302.738363</ele>
        <time>2021-11-16T05:58:55.194Z</time>
      </trkpt>
      <trkpt lat="47.566142" lon="7.840322">
        <ele>302.670428</ele>
        <time>2021-11-16T05:58:55.876Z</time>
      </trkpt>
      <trkpt lat="47.566221" lon="7.840340">
        <ele>302.582319</ele>
        <time>2021-11-16T05:58:57.074Z</time>
      </trkpt>
      <trkpt lat="47.566350" lon="7.840350">
        <ele>302.439922</ele>
        <time>2021-11-16T05:58:58.763Z</time>
      </trkpt>
      <trkpt lat="47.566450" lon="7.840326">
        <ele>302.328252</ele>
        <time>2021-11-16T05:58:59.986Z</time>
      </trkpt>
      <trkpt lat="47.566515" lon="7.840312">
        <ele>302.255846</ele>
        <time>2021-11-16T05:59:00.732Z</time>
      </trkpt>
      <trkpt lat="47.566592" lon="7.840279">
        <ele>302.182201</ele>
        <time>2021-11-16T05:59:01.917Z</time>
      </trkpt>
      <trkpt lat="47.566826" lon="7.840179">
        <ele>302.000026</ele>
        <time>2021-11-16T05:59:04.853Z</time>
      </trkpt>
      <trkpt lat="47.567111" lon="7.839998">
        <ele>301.768082</ele>
        <time>2021-11-16T05:59:08.872Z</time>
      </trkpt>
      <trkpt lat="47.567406" lon="7.839778">
        <ele>301.521045</ele>
        <time>2021-11-16T05:59:13.058Z</time>
      </trkpt>
      <trkpt lat="47.567481" lon="7.839664">
        <ele>301.440681</ele>
        <time>2021-11-16T05:59:14.263Z</time>
      </trkpt>
      <trkpt lat="47.567510" lon="7.839548">
        <ele>301.378243</ele>
        <time>2021-11-16T05:59:15.481Z</time>
      </trkpt>
      <trkpt lat="47.567530" lon="7.839459">
        <ele>301.330897</ele>
        <time>2021-11-16T05:59:16.338Z</time>
      </trkpt>
      <trkpt lat="47.567564" lon="7.839283">
        <ele>301.238496</ele>
        <time>2021-11-16T05:59:17.948Z</time>
      </trkpt>
      <trkpt lat="47.567626" lon="7.839064">
        <ele>301.118625</ele>
        <time>2021-11-16T05:59:19.971Z</time>
      </trkpt>
      <trkpt lat="47.567626" lon="7.839064">
        <ele>301.118625</ele>
        <time>2021-11-16T05:59:19.973Z</time>
      </trkpt>
      <trkpt lat="47.567634" lon="7.839037">
        <ele>301.103742</ele>
        <time>2021-11-16T05:59:20.226Z</time>
      </trkpt>
      <trkpt lat="47.567823" lon="7.838648">
        <ele>300.858128</ele>
        <time>2021-11-16T05:59:24.509Z</time>
      </trkpt>
      <trkpt lat="47.567846" lon="7.838609">
        <ele>300.815978</ele>
        <time>2021-11-16T05:59:24.948Z</time>
      </trkpt>
      <trkpt lat="47.567936" lon="7.838380">
        <ele>300.600320</ele>
        <time>2021-11-16T05:59:27.405Z</time>
      </trkpt>
      <trkpt lat="47.568042" lon="7.838436">
        <ele>300.464598</ele>
        <time>2021-11-16T05:59:29.335Z</time>
      </trkpt>
      <trkpt lat="47.568160" lon="7.838415">
        <ele>300.321260</ele>
        <time>2021-11-16T05:59:31.473Z</time>
      </trkpt>
      <trkpt lat="47.568420" lon="7.838300">
        <ele>299.994016</ele>
        <time>2021-11-16T05:59:36.084Z</time>
      </trkpt>
      <trkpt lat="47.568988" lon="7.838054">
        <ele>299.280322</ele>
        <time>2021-11-16T05:59:45.908Z</time>
      </trkpt>
      <trkpt lat="47.569310" lon="7.837922">
        <ele>298.877388</ele>
        <time>2021-11-16T05:59:51.415Z</time>
      </trkpt>
      <trkpt lat="47.569522" lon="7.837844">
        <ele>298.604380</ele>
        <time>2021-11-16T05:59:55.007Z</time>
      </trkpt>
      <trkpt lat="47.569665" lon="7.837789">
        <ele>298.406053</ele>
        <time>2021-11-16T05:59:57.444Z</time>
      </trkpt>
      <trkpt lat="47.569814" lon="7.837733">
        <ele>298.199698</ele>
        <time>2021-11-16T05:59:59.981Z</time>
      </trkpt>
      <trkpt lat="47.569907" lon="7.837696">
        <ele>298.070432</ele>
        <time>2021-11-16T06:00:01.556Z</time>
      </trkpt>
      <trkpt lat="47.570038" lon="7.837643">
        <ele>297.888138</ele>
        <time>2021-11-16T06:00:03.808Z</time>
      </trkpt>
      <trkpt lat="47.570298" lon="7.837528">
        <ele>297.523893</ele>
        <time>2021-11-16T06:00:08.260Z</time>
      </trkpt>
      <trkpt lat="47.570872" lon="7.837307">
        <ele>296.727759</ele>
        <time>2021-11-16T06:00:18.122Z</time>
      </trkpt>
      <trkpt lat="47.570985" lon="7.837265">
        <ele>296.571366</ele>
        <time>2021-11-16T06:00:20.049Z</time>
      </trkpt>
      <trkpt lat="47.571254" lon="7.837161">
        <ele>296.243807</ele>
        <time>2021-11-16T06:00:24.762Z</time>
      </trkpt>
      <trkpt lat="47.571771" lon="7.836971">
        <ele>295.909262</ele>
        <time>2021-11-16T06:00:34.268Z</time>
      </trkpt>
      <trkpt lat="47.571871" lon="7.836932">
        <ele>295.844317</ele>
        <time>2021-11-16T06:00:36.204Z</time>
      </trkpt>
      <trkpt lat="47.572139" lon="7.836834">
        <ele>295.670948</ele>
        <time>2021-11-16T06:00:41.400Z</time>
      </trkpt>
      <trkpt lat="47.572296" lon="7.836777">
        <ele>295.569426</ele>
        <time>2021-11-16T06:00:44.478Z</time>
      </trkpt>
      <trkpt lat="47.572760" lon="7.836606">
        <ele>295.269128</ele>
        <time>2021-11-16T06:00:53.496Z</time>
      </trkpt>
      <trkpt lat="47.573348" lon="7.836386">
        <ele>294.997438</ele>
        <time>2021-11-16T06:01:04.650Z</time>
      </trkpt>
      <trkpt lat="47.573815" lon="7.836215">
        <ele>294.819332</ele>
        <time>2021-11-16T06:01:13.462Z</time>
      </trkpt>
      <trkpt lat="47.574158" lon="7.836106">
        <ele>294.689450</ele>
        <time>2021-11-16T06:01:20.033Z</time>
      </trkpt>
      <trkpt lat="47.574568" lon="7.836025">
        <ele>294.536304</ele>
        <time>2021-11-16T06:01:25.724Z</time>
      </trkpt>
      <trkpt lat="47.575033" lon="7.835907">
        <ele>294.683291</ele>
        <time>2021-11-16T06:01:32.729Z</time>
      </trkpt>
      <trkpt lat="47.575959" lon="7.835718">
        <ele>295.216011</ele>
        <time>2021-11-16T06:01:48.346Z</time>
      </trkpt>
      <trkpt lat="47.576219" lon="7.835650">
        <ele>295.366477</ele>
        <time>2021-11-16T06:01:53.503Z</time>
      </trkpt>
      <trkpt lat="47.579073" lon="7.834987">
        <ele>298.477613</ele>
        <time>2021-11-16T06:02:52.340Z</time>
      </trkpt>
      <trkpt lat="47.580667" lon="7.834627">
        <ele>298.496154</ele>
        <time>2021-11-16T06:03:16.189Z</time>
      </trkpt>
      <trkpt lat="47.580816" lon="7.834599">
        <ele>298.356946</ele>
        <time>2021-11-16T06:03:18.286Z</time>
      </trkpt>
      <trkpt lat="47.582828" lon="7.834117">
        <ele>295.063742</ele>
        <time>2021-11-16T06:03:41.333Z</time>
      </trkpt>
      <trkpt lat="47.583163" lon="7.833942">
        <ele>294.253039</ele>
        <time>2021-11-16T06:03:45.162Z</time>
      </trkpt>
      <trkpt lat="47.583327" lon="7.833750">
        <ele>293.776075</ele>
        <time>2021-11-16T06:03:47.320Z</time>
      </trkpt>
      <trkpt lat="47.583401" lon="7.833658">
        <ele>293.555645</ele>
        <time>2021-11-16T06:03:48.249Z</time>
      </trkpt>
      <trkpt lat="47.583523" lon="7.833509">
        <ele>293.084195</ele>
        <time>2021-11-16T06:03:49.923Z</time>
      </trkpt>
      <trkpt lat="47.583696" lon="7.833171">
        <ele>291.865202</ele>
        <time>2021-11-16T06:03:52.758Z</time>
      </trkpt>
      <trkpt lat="47.583849" lon="7.832883">
        <ele>290.811967</ele>
        <time>2021-11-16T06:03:55.082Z</time>
      </trkpt>
      <trkpt lat="47.584029" lon="7.832543">
        <ele>289.570213</ele>
        <time>2021-11-16T06:03:57.817Z</time>
      </trkpt>
      <trkpt lat="47.584156" lon="7.832334">
        <ele>288.762037</ele>
        <time>2021-11-16T06:03:59.593Z</time>
      </trkpt>
      <trkpt lat="47.584367" lon="7.832247">
        <ele>287.829207</ele>
        <time>2021-11-16T06:04:01.657Z</time>
      </trkpt>
      <trkpt lat="47.584466" lon="7.832252">
        <ele>287.407288</ele>
        <time>2021-11-16T06:04:02.611Z</time>
      </trkpt>
      <trkpt lat="47.584717" lon="7.832264">
        <ele>286.337638</ele>
        <time>2021-11-16T06:04:05.046Z</time>
      </trkpt>
      <trkpt lat="47.585027" lon="7.832425">
        <ele>285.179811</ele>
        <time>2021-11-16T06:04:08.309Z</time>
      </trkpt>
      <trkpt lat="47.585195" lon="7.832588">
        <ele>284.609960</ele>
        <time>2021-11-16T06:04:10.357Z</time>
      </trkpt>
      <trkpt lat="47.585247" lon="7.832651">
        <ele>284.419361</ele>
        <time>2021-11-16T06:04:11.007Z</time>
      </trkpt>
      <trkpt lat="47.585278" lon="7.832688">
        <ele>284.306408</ele>
        <time>2021-11-16T06:04:11.390Z</time>
      </trkpt>
      <trkpt lat="47.586276" lon="7.833601">
        <ele>280.978020</ele>
        <time>2021-11-16T06:04:23.411Z</time>
      </trkpt>
      <trkpt lat="47.586496" lon="7.833050">
        <ele>280.546275</ele>
        <time>2021-11-16T06:04:28.647Z</time>
      </trkpt>
      <trkpt lat="47.587848" lon="7.834235">
        <ele>280.621529</ele>
        <time>2021-11-16T06:04:52.988Z</time>
      </trkpt>
      <trkpt lat="47.587628" lon="7.835942">
        <ele>283.390099</ele>
        <time>2021-11-16T06:05:20.736Z</time>
      </trkpt>
      <trkpt lat="47.587903" lon="7.836007">
        <ele>284.047848</ele>
        <time>2021-11-16T06:05:28.513Z</time>
      </trkpt>
      <trkpt lat="47.588137" lon="7.836060">
        <ele>284.606965</ele>
        <time>2021-11-16T06:05:35.341Z</time>
      </trkpt>
      <trkpt lat="47.588272" lon="7.836090">
        <ele>285.069139</ele>
        <time>2021-11-16T06:05:39.511Z</time>
      </trkpt>
      <trkpt lat="47.589181" lon="7.835983">
        <ele>288.805385</ele>
        <time>2021-11-16T06:06:06.902Z</time>
      </trkpt>
      <trkpt lat="47.590263" lon="7.835856">
        <ele>294.396056</ele>
        <time>2021-11-16T06:06:42.353Z</time>
      </trkpt>
      <trkpt lat="47.590166" lon="7.836338">
        <ele>297.175711</ele>
        <time>2021-11-16T06:06:53.528Z</time>
      </trkpt>
      <trkpt lat="47.591704" lon="7.836354">
        <ele>311.844397</ele>
        <time>2021-11-16T06:08:24.822Z</time>
      </trkpt>
      <trkpt lat="47.591953" lon="7.836379">
        <ele>315.330749</ele>
        <time>2021-11-16T06:08:47.856Z</time>
      </trkpt>
      <trkpt lat="47.592110" lon="7.836372">
        <ele>317.524941</ele>
        <time>2021-11-16T06:08:57.495Z</time>
      </trkpt>
      <trkpt lat="47.592182" lon="7.836371">
        <ele>318.530784</ele>
        <time>2021-11-16T06:09:03.830Z</time>
      </trkpt>
      <trkpt lat="47.592250" lon="7.836371">
        <ele>319.480705</ele>
        <time>2021-11-16T06:09:11.597Z</time>
      </trkpt>
      <trkpt lat="47.592897" lon="7.836379">
        <ele>328.519239</ele>
        <time>2021-11-16T06:10:00.792Z</time>
      </trkpt>
      <trkpt lat="47.593173" lon="7.836468">
        <ele>332.326638</ele>
        <time>2021-11-16T06:10:23.602Z</time>
      </trkpt>
      <trkpt lat="47.593342" lon="7.836538">
        <ele>334.089212</ele>
        <time>2021-11-16T06:10:41.571Z</time>
      </trkpt>
      <trkpt lat="47.593826" lon="7.836849">
        <ele>339.387786</ele>
        <time>2021-11-16T06:11:17.031Z</time>
      </trkpt>
      <trkpt lat="47.594073" lon="7.837046">
        <ele>342.205000</ele>
        <time>2021-11-16T06:11:33.541Z</time>
      </trkpt>
      <trkpt lat="47.594293" lon="7.837223">
        <ele>344.719197</ele>
        <time>2021-11-16T06:11:47.211Z</time>
      </trkpt>
      <trkpt lat="47.594385" lon="7.837297">
        <ele>345.770529</ele>
        <time>2021-11-16T06:11:52.678Z</time>
      </trkpt>
      <trkpt lat="47.594966" lon="7.837645">
        <ele>350.780620</ele>
        <time>2021-11-16T06:12:21.077Z</time>
      </trkpt>
      <trkpt lat="47.595487" lon="7.838131">
        <ele>353.042352</ele>
        <time>2021-11-16T06:12:42.279Z</time>
      </trkpt>
      <trkpt lat="47.595964" lon="7.838747">
        <ele>355.366604</ele>
        <time>2021-11-16T06:13:02.126Z</time>
      </trkpt>
      <trkpt lat="47.596578" lon="7.839929">
        <ele>358.681219</ele>
        <time>2021-11-16T06:13:32.779Z</time>
      </trkpt>
      <trkpt lat="47.596993" lon="7.840544">
        <ele>360.495546</ele>
        <time>2021-11-16T06:13:52.226Z</time>
      </trkpt>
      <trkpt lat="47.597263" lon="7.840840">
        <ele>361.533890</ele>
        <time>2021-11-16T06:14:03.556Z</time>
      </trkpt>
      <trkpt lat="47.597727" lon="7.841333">
        <ele>363.608985</ele>
        <time>2021-11-16T06:14:23.197Z</time>
      </trkpt>
      <trkpt lat="47.597842" lon="7.841614">
        <ele>364.489730</ele>
        <time>2021-11-16T06:14:31.216Z</time>
      </trkpt>
      <trkpt lat="47.598058" lon="7.842175">
        <ele>366.220678</ele>
        <time>2021-11-16T06:14:47.082Z</time>
      </trkpt>
      <trkpt lat="47.598238" lon="7.842763">
        <ele>367.950941</ele>
        <time>2021-11-16T06:15:02.907Z</time>
      </trkpt>
      <trkpt lat="47.598536" lon="7.843376">
        <ele>370.191533</ele>
        <time>2021-11-16T06:15:21.723Z</time>
      </trkpt>
      <trkpt lat="47.598696" lon="7.843499">
        <ele>371.157853</ele>
        <time>2021-11-16T06:15:28.506Z</time>
      </trkpt>
      <trkpt lat="47.598937" lon="7.843561">
        <ele>372.469369</ele>
        <time>2021-11-16T06:15:38.105Z</time>
      </trkpt>
      <trkpt lat="47.599568" lon="7.843496">
        <ele>375.860875</ele>
        <time>2021-11-16T06:16:04.295Z</time>
      </trkpt>
      <trkpt lat="47.599763" lon="7.843535">
        <ele>376.915909</ele>
        <time>2021-11-16T06:16:12.829Z</time>
      </trkpt>
      <trkpt lat="47.600072" lon="7.843673">
        <ele>378.646230</ele>
        <time>2021-11-16T06:16:27.485Z</time>
      </trkpt>
      <trkpt lat="47.600807" lon="7.843916">
        <ele>383.947510</ele>
        <time>2021-11-16T06:17:03.260Z</time>
      </trkpt>
      <trkpt lat="47.602198" lon="7.844937">
        <ele>396.016763</ele>
        <time>2021-11-16T06:18:21.780Z</time>
      </trkpt>
      <trkpt lat="47.602253" lon="7.845252">
        <ele>398.041315</ele>
        <time>2021-11-16T06:18:32.922Z</time>
      </trkpt>
      <trkpt lat="47.602229" lon="7.845655">
        <ele>400.558511</ele>
        <time>2021-11-16T06:18:46.647Z</time>
      </trkpt>
      <trkpt lat="47.602243" lon="7.846717">
        <ele>407.167459</ele>
        <time>2021-11-16T06:19:32.224Z</time>
      </trkpt>
      <trkpt lat="47.602236" lon="7.847007">
        <ele>409.049785</ele>
        <time>2021-11-16T06:19:46.252Z</time>
      </trkpt>
      <trkpt lat="47.602282" lon="7.847374">
        <ele>411.797704</ele>
        <time>2021-11-16T06:20:02.033Z</time>
      </trkpt>
      <trkpt lat="47.602400" lon="7.847680">
        <ele>414.392660</ele>
        <time>2021-11-16T06:20:16.022Z</time>
      </trkpt>
      <trkpt lat="47.602486" lon="7.847821">
        <ele>415.792268</ele>
        <time>2021-11-16T06:20:25.216Z</time>
      </trkpt>
      <trkpt lat="47.602606" lon="7.848016">
        <ele>417.735704</ele>
        <time>2021-11-16T06:20:36.841Z</time>
      </trkpt>
      <trkpt lat="47.603736" lon="7.848907">
        <ele>430.656676</ele>
        <time>2021-11-16T06:21:59.825Z</time>
      </trkpt>
      <trkpt lat="47.604551" lon="7.849629">
        <ele>437.923987</ele>
        <time>2021-11-16T06:22:47.301Z</time>
      </trkpt>
      <trkpt lat="47.604823" lon="7.849877">
        <ele>440.368217</ele>
        <time>2021-11-16T06:23:01.462Z</time>
      </trkpt>
      <trkpt lat="47.605011" lon="7.850048">
        <ele>442.005194</ele>
        <time>2021-11-16T06:23:10.699Z</time>
      </trkpt>
      <trkpt lat="47.605181" lon="7.850167">
        <ele>442.683417</ele>
        <time>2021-11-16T06:23:18.367Z</time>
      </trkpt>
      <trkpt lat="47.605584" lon="7.850507">
        <ele>444.356173</ele>
        <time>2021-11-16T06:23:36.272Z</time>
      </trkpt>
      <trkpt lat="47.605922" lon="7.850724">
        <ele>445.684986</ele>
        <time>2021-11-16T06:23:49.305Z</time>
      </trkpt>
      <trkpt lat="47.606259" lon="7.850845">
        <ele>446.935966</ele>
        <time>2021-11-16T06:24:00.414Z</time>
      </trkpt>
      <trkpt lat="47.606432" lon="7.850826">
        <ele>447.561841</ele>
        <time>2021-11-16T06:24:05.396Z</time>
      </trkpt>
      <trkpt lat="47.606642" lon="7.850761">
        <ele>448.335822</ele>
        <time>2021-11-16T06:24:11.568Z</time>
      </trkpt>
      <trkpt lat="47.606841" lon="7.850541">
        <ele>448.398673</ele>
        <time>2021-11-16T06:24:18.562Z</time>
      </trkpt>
      <trkpt lat="47.607206" lon="7.849906">
        <ele>448.268693</ele>
        <time>2021-11-16T06:24:31.930Z</time>
      </trkpt>
      <trkpt lat="47.607512" lon="7.849734">
        <ele>448.193089</ele>
        <time>2021-11-16T06:24:37.929Z</time>
      </trkpt>
      <trkpt lat="47.607779" lon="7.849458">
        <ele>448.117900</ele>
        <time>2021-11-16T06:24:43.372Z</time>
      </trkpt>
      <trkpt lat="47.608193" lon="7.849027">
        <ele>447.536049</ele>
        <time>2021-11-16T06:24:51.356Z</time>
      </trkpt>
      <trkpt lat="47.608499" lon="7.848767">
        <ele>446.277597</ele>
        <time>2021-11-16T06:24:56.606Z</time>
      </trkpt>
      <trkpt lat="47.608647" lon="7.848750">
        <ele>445.747871</ele>
        <time>2021-11-16T06:24:58.722Z</time>
      </trkpt>
      <trkpt lat="47.608958" lon="7.849213">
        <ele>444.175449</ele>
        <time>2021-11-16T06:25:04.899Z</time>
      </trkpt>
      <trkpt lat="47.609180" lon="7.849407">
        <ele>443.255965</ele>
        <time>2021-11-16T06:25:08.467Z</time>
      </trkpt>
      <trkpt lat="47.609671" lon="7.849581">
        <ele>441.499582</ele>
        <time>2021-11-16T06:25:15.364Z</time>
      </trkpt>
      <trkpt lat="47.609900" lon="7.849721">
        <ele>440.864461</ele>
        <time>2021-11-16T06:25:18.824Z</time>
      </trkpt>
      <trkpt lat="47.610164" lon="7.850132">
        <ele>439.883099</ele>
        <time>2021-11-16T06:25:24.380Z</time>
      </trkpt>
      <trkpt lat="47.610866" lon="7.850970">
        <ele>437.572510</ele>
        <time>2021-11-16T06:25:38.387Z</time>
      </trkpt>
      <trkpt lat="47.611197" lon="7.851511">
        <ele>436.192672</ele>
        <time>2021-11-16T06:25:47.387Z</time>
      </trkpt>
      <trkpt lat="47.611373" lon="7.852022">
        <ele>435.033390</ele>
        <time>2021-11-16T06:25:54.071Z</time>
      </trkpt>
      <trkpt lat="47.611487" lon="7.852197">
        <ele>434.541756</ele>
        <time>2021-11-16T06:25:56.858Z</time>
      </trkpt>
      <trkpt lat="47.611909" lon="7.852604">
        <ele>433.033331</ele>
        <time>2021-11-16T06:26:04.204Z</time>
      </trkpt>
      <trkpt lat="47.612224" lon="7.852925">
        <ele>431.888069</ele>
        <time>2021-11-16T06:26:09.344Z</time>
      </trkpt>
      <trkpt lat="47.612366" lon="7.853056">
        <ele>431.012218</ele>
        <time>2021-11-16T06:26:11.565Z</time>
      </trkpt>
      <trkpt lat="47.612473" lon="7.853153">
        <ele>430.012274</ele>
        <time>2021-11-16T06:26:13.218Z</time>
      </trkpt>
      <trkpt lat="47.612894" lon="7.853499">
        <ele>426.174376</ele>
        <time>2021-11-16T06:26:19.397Z</time>
      </trkpt>
      <trkpt lat="47.613147" lon="7.853586">
        <ele>424.103441</ele>
        <time>2021-11-16T06:26:22.610Z</time>
      </trkpt>
      <trkpt lat="47.613350" lon="7.853629">
        <ele>422.468286</ele>
        <time>2021-11-16T06:26:25.153Z</time>
      </trkpt>
      <trkpt lat="47.613558" lon="7.853788">
        <ele>420.602408</ele>
        <time>2021-11-16T06:26:28.032Z</time>
      </trkpt>
      <trkpt lat="47.613564" lon="7.854464">
        <ele>416.972143</ele>
        <time>2021-11-16T06:26:33.603Z</time>
      </trkpt>
      <trkpt lat="47.613607" lon="7.854572">
        <ele>416.306628</ele>
        <time>2021-11-16T06:26:34.613Z</time>
      </trkpt>
      <trkpt lat="47.613659" lon="7.854700">
        <ele>415.513687</ele>
        <time>2021-11-16T06:26:35.905Z</time>
      </trkpt>
      <trkpt lat="47.613792" lon="7.854776">
        <ele>414.391898</ele>
        <time>2021-11-16T06:26:37.706Z</time>
      </trkpt>
      <trkpt lat="47.613988" lon="7.854392">
        <ele>411.836319</ele>
        <time>2021-11-16T06:26:41.751Z</time>
      </trkpt>
      <trkpt lat="47.614100" lon="7.854196">
        <ele>410.473029</ele>
        <time>2021-11-16T06:26:43.885Z</time>
      </trkpt>
      <trkpt lat="47.614301" lon="7.854162">
        <ele>408.880760</ele>
        <time>2021-11-16T06:26:46.708Z</time>
      </trkpt>
      <trkpt lat="47.614629" lon="7.854431">
        <ele>405.930893</ele>
        <time>2021-11-16T06:26:51.481Z</time>
      </trkpt>
      <trkpt lat="47.614801" lon="7.854465">
        <ele>404.565161</ele>
        <time>2021-11-16T06:26:53.618Z</time>
      </trkpt>
      <trkpt lat="47.615213" lon="7.854374">
        <ele>401.500440</ele>
        <time>2021-11-16T06:26:59.016Z</time>
      </trkpt>
      <trkpt lat="47.615794" lon="7.854262">
        <ele>397.428711</ele>
        <time>2021-11-16T06:27:06.414Z</time>
      </trkpt>
      <trkpt lat="47.615857" lon="7.854262">
        <ele>396.990880</ele>
        <time>2021-11-16T06:27:07.230Z</time>
      </trkpt>
      <trkpt lat="47.615860" lon="7.854339">
        <ele>396.629549</ele>
        <time>2021-11-16T06:27:07.902Z</time>
      </trkpt>
      <trkpt lat="47.615853" lon="7.854674">
        <ele>395.059393</ele>
        <time>2021-11-16T06:27:10.730Z</time>
      </trkpt>
      <trkpt lat="47.615890" lon="7.854900">
        <ele>393.969854</ele>
        <time>2021-11-16T06:27:12.745Z</time>
      </trkpt>
      <trkpt lat="47.615940" lon="7.855213">
        <ele>392.462908</ele>
        <time>2021-11-16T06:27:15.469Z</time>
      </trkpt>
      <trkpt lat="47.615886" lon="7.855415">
        <ele>391.444886</ele>
        <time>2021-11-16T06:27:17.432Z</time>
      </trkpt>
      <trkpt lat="47.615482" lon="7.855744">
        <ele>390.018913</ele>
        <time>2021-11-16T06:27:23.636Z</time>
      </trkpt>
      <trkpt lat="47.615230" lon="7.856082">
        <ele>389.427029</ele>
        <time>2021-11-16T06:27:28.413Z</time>
      </trkpt>
      <trkpt lat="47.615591" lon="7.856559">
        <ele>388.584779</ele>
        <time>2021-11-16T06:27:36.002Z</time>
      </trkpt>
      <trkpt lat="47.615844" lon="7.856900">
        <ele>387.989240</ele>
        <time>2021-11-16T06:27:42.439Z</time>
      </trkpt>
      <trkpt lat="47.616000" lon="7.856839">
        <ele>387.708173</ele>
        <time>2021-11-16T06:27:47.023Z</time>
      </trkpt>
      <trkpt lat="47.616206" lon="7.856813">
        <ele>387.937042</ele>
        <time>2021-11-16T06:27:51.358Z</time>
      </trkpt>
      <trkpt lat="47.616185" lon="7.856991">
        <ele>388.673203</ele>
        <time>2021-11-16T06:27:55.959Z</time>
      </trkpt>
      <trkpt lat="47.616062" lon="7.857266">
        <ele>390.017682</ele>
        <time>2021-11-16T06:28:02.207Z</time>
      </trkpt>
      <trkpt lat="47.615675" lon="7.857668">
        <ele>392.872846</ele>
        <time>2021-11-16T06:28:20.973Z</time>
      </trkpt>
      <trkpt lat="47.615620" lon="7.857851">
        <ele>393.689103</ele>
        <time>2021-11-16T06:28:26.371Z</time>
      </trkpt>
      <trkpt lat="47.615612" lon="7.857977">
        <ele>394.204681</ele>
        <time>2021-11-16T06:28:29.525Z</time>
      </trkpt>
      <trkpt lat="47.615609" lon="7.858249">
        <ele>395.312919</ele>
        <time>2021-11-16T06:28:38.771Z</time>
      </trkpt>
      <trkpt lat="47.615543" lon="7.858897">
        <ele>397.982744</ele>
        <time>2021-11-16T06:28:57.753Z</time>
      </trkpt>
      <trkpt lat="47.615334" lon="7.860080">
        <ele>406.466699</ele>
        <time>2021-11-16T06:29:41.593Z</time>
      </trkpt>
      <trkpt lat="47.615241" lon="7.860672">
        <ele>410.822015</ele>
        <time>2021-11-16T06:30:08.717Z</time>
      </trkpt>
      <trkpt lat="47.615092" lon="7.861630">
        <ele>417.777324</ele>
        <time>2021-11-16T06:30:49.060Z</time>
      </trkpt>
      <trkpt lat="47.615080" lon="7.861804">
        <ele>418.750901</ele>
        <time>2021-11-16T06:30:58.091Z</time>
      </trkpt>
      <trkpt lat="47.615143" lon="7.862040">
        <ele>420.163778</ele>
        <time>2021-11-16T06:31:06.718Z</time>
      </trkpt>
      <trkpt lat="47.615533" lon="7.862749">
        <ele>425.257358</ele>
        <time>2021-11-16T06:31:40.513Z</time>
      </trkpt>
      <trkpt lat="47.615733" lon="7.863226">
        <ele>428.384106</ele>
        <time>2021-11-16T06:31:57.587Z</time>
      </trkpt>
      <trkpt lat="47.615791" lon="7.863469">
        <ele>429.818962</ele>
        <time>2021-11-16T06:32:05.175Z</time>
      </trkpt>
      <trkpt lat="47.615826" lon="7.863677">
        <ele>431.012244</ele>
        <time>2021-11-16T06:32:11.285Z</time>
      </trkpt>
      <trkpt lat="47.615975" lon="7.864921">
        <ele>433.797493</ele>
        <time>2021-11-16T06:32:32.963Z</time>
      </trkpt>
      <trkpt lat="47.616072" lon="7.865259">
        <ele>434.325492</ele>
        <time>2021-11-16T06:32:37.258Z</time>
      </trkpt>
      <trkpt lat="47.616709" lon="7.866450">
        <ele>436.780614</ele>
        <time>2021-11-16T06:32:56.840Z</time>
      </trkpt>
      <trkpt lat="47.616988" lon="7.867193">
        <ele>438.928034</ele>
        <time>2021-11-16T06:33:11.270Z</time>
      </trkpt>
      <trkpt lat="47.617092" lon="7.867491">
        <ele>439.775305</ele>
        <time>2021-11-16T06:33:17.494Z</time>
      </trkpt>
      <trkpt lat="47.617186" lon="7.867759">
        <ele>440.538090</ele>
        <time>2021-11-16T06:33:24.232Z</time>
      </trkpt>
      <trkpt lat="47.617859" lon="7.869709">
        <ele>447.277041</ele>
        <time>2021-11-16T06:34:19.947Z</time>
      </trkpt>
      <trkpt lat="47.617864" lon="7.870723">
        <ele>450.810111</ele>
        <time>2021-11-16T06:34:44.153Z</time>
      </trkpt>
      <trkpt lat="47.617973" lon="7.871350">
        <ele>452.801845</ele>
        <time>2021-11-16T06:34:58.260Z</time>
      </trkpt>
      <trkpt lat="47.618120" lon="7.871681">
        <ele>453.767226</ele>
        <time>2021-11-16T06:35:06.431Z</time>
      </trkpt>
      <trkpt lat="47.619528" lon="7.873535">
        <ele>460.606776</ele>
        <time>2021-11-16T06:35:58.913Z</time>
      </trkpt>
      <trkpt lat="47.619611" lon="7.873674">
        <ele>461.068031</ele>
        <time>2021-11-16T06:36:03.406Z</time>
      </trkpt>
      <trkpt lat="47.619829" lon="7.874041">
        <ele>462.283084</ele>
        <time>2021-11-16T06:36:14.572Z</time>
      </trkpt>
      <trkpt lat="47.619939" lon="7.874280">
        <ele>463.001925</ele>
        <time>2021-11-16T06:36:20.732Z</time>
      </trkpt>
      <trkpt lat="47.620060" lon="7.874687">
        <ele>464.106832</ele>
        <time>2021-11-16T06:36:29.360Z</time>
      </trkpt>
      <trkpt lat="47.620229" lon="7.875324">
        <ele>465.442849</ele>
        <time>2021-11-16T06:36:42.455Z</time>
      </trkpt>
      <trkpt lat="47.620355" lon="7.875825">
        <ele>465.788421</ele>
        <time>2021-11-16T06:36:51.370Z</time>
      </trkpt>
      <trkpt lat="47.620438" lon="7.876135">
        <ele>466.003983</ele>
        <time>2021-11-16T06:36:55.972Z</time>
      </trkpt>
      <trkpt lat="47.620646" lon="7.876653">
        <ele>466.393636</ele>
        <time>2021-11-16T06:37:05.017Z</time>
      </trkpt>
      <trkpt lat="47.621473" lon="7.877633">
        <ele>466.827440</ele>
        <time>2021-11-16T06:37:17.485Z</time>
      </trkpt>
      <trkpt lat="47.621851" lon="7.878198">
        <ele>466.532414</ele>
        <time>2021-11-16T06:37:23.952Z</time>
      </trkpt>
      <trkpt lat="47.622140" lon="7.878531">
        <ele>466.331218</ele>
        <time>2021-11-16T06:37:28.897Z</time>
      </trkpt>
      <trkpt lat="47.622668" lon="7.879223">
        <ele>466.036053</ele>
        <time>2021-11-16T06:37:40.458Z</time>
      </trkpt>
      <trkpt lat="47.623257" lon="7.880066">
        <ele>465.976080</ele>
        <time>2021-11-16T06:37:53.550Z</time>
      </trkpt>
      <trkpt lat="47.623689" lon="7.880796">
        <ele>465.928098</ele>
        <time>2021-11-16T06:38:03.410Z</time>
      </trkpt>
      <trkpt lat="47.623726" lon="7.880866">
        <ele>465.923704</ele>
        <time>2021-11-16T06:38:04.031Z</time>
      </trkpt>
      <trkpt lat="47.623737" lon="7.880886">
        <ele>465.922429</ele>
        <time>2021-11-16T06:38:04.248Z</time>
      </trkpt>
      <trkpt lat="47.623948" lon="7.880931">
        <ele>465.576707</ele>
        <time>2021-11-16T06:38:06.946Z</time>
      </trkpt>
      <trkpt lat="47.624024" lon="7.880973">
        <ele>465.401849</ele>
        <time>2021-11-16T06:38:07.890Z</time>
      </trkpt>
      <trkpt lat="47.624047" lon="7.880985">
        <ele>465.349283</ele>
        <time>2021-11-16T06:38:08.105Z</time>
      </trkpt>
      <trkpt lat="47.624316" lon="7.881414">
        <ele>464.497808</ele>
        <time>2021-11-16T06:38:12.549Z</time>
      </trkpt>
      <trkpt lat="47.624352" lon="7.881661">
        <ele>464.130582</ele>
        <time>2021-11-16T06:38:14.465Z</time>
      </trkpt>
      <trkpt lat="47.624343" lon="7.882131">
        <ele>463.447324</ele>
        <time>2021-11-16T06:38:17.816Z</time>
      </trkpt>
      <trkpt lat="47.624338" lon="7.882358">
        <ele>463.117281</ele>
        <time>2021-11-16T06:38:19.451Z</time>
      </trkpt>
      <trkpt lat="47.624310" lon="7.883001">
        <ele>462.180954</ele>
        <time>2021-11-16T06:38:23.806Z</time>
      </trkpt>
      <trkpt lat="47.624331" lon="7.883160">
        <ele>461.885238</ele>
        <time>2021-11-16T06:38:24.948Z</time>
      </trkpt>
      <trkpt lat="47.624490" lon="7.883959">
        <ele>459.906128</ele>
        <time>2021-11-16T06:38:30.849Z</time>
      </trkpt>
      <trkpt lat="47.625152" lon="7.885204">
        <ele>456.138916</ele>
        <time>2021-11-16T06:38:41.410Z</time>
      </trkpt>
      <trkpt lat="47.625398" lon="7.886057">
        <ele>453.224701</ele>
        <time>2021-11-16T06:38:47.434Z</time>
      </trkpt>
      <trkpt lat="47.625424" lon="7.886225">
        <ele>452.650555</ele>
        <time>2021-11-16T06:38:48.484Z</time>
      </trkpt>
      <trkpt lat="47.625441" lon="7.886331">
        <ele>452.287627</ele>
        <time>2021-11-16T06:38:49.180Z</time>
      </trkpt>
      <trkpt lat="47.625481" lon="7.886856">
        <ele>450.527797</ele>
        <time>2021-11-16T06:38:52.527Z</time>
      </trkpt>
      <trkpt lat="47.625484" lon="7.887146">
        <ele>449.561739</ele>
        <time>2021-11-16T06:38:54.401Z</time>
      </trkpt>
      <trkpt lat="47.625499" lon="7.888101">
        <ele>446.288754</ele>
        <time>2021-11-16T06:39:00.399Z</time>
      </trkpt>
      <trkpt lat="47.625564" lon="7.889453">
        <ele>440.820794</ele>
        <time>2021-11-16T06:39:08.881Z</time>
      </trkpt>
      <trkpt lat="47.625716" lon="7.890252">
        <ele>437.471615</ele>
        <time>2021-11-16T06:39:13.944Z</time>
      </trkpt>
      <trkpt lat="47.625853" lon="7.890611">
        <ele>435.697833</ele>
        <time>2021-11-16T06:39:16.517Z</time>
      </trkpt>
      <trkpt lat="47.626106" lon="7.891132">
        <ele>431.918076</ele>
        <time>2021-11-16T06:39:20.419Z</time>
      </trkpt>
      <trkpt lat="47.626263" lon="7.891476">
        <ele>429.472690</ele>
        <time>2021-11-16T06:39:22.885Z</time>
      </trkpt>
      <trkpt lat="47.626348" lon="7.891663">
        <ele>428.145061</ele>
        <time>2021-11-16T06:39:24.190Z</time>
      </trkpt>
      <trkpt lat="47.626714" lon="7.892752">
        <ele>420.982386</ele>
        <time>2021-11-16T06:39:31.286Z</time>
      </trkpt>
      <trkpt lat="47.626818" lon="7.893202">
        <ele>417.561196</ele>
        <time>2021-11-16T06:39:34.033Z</time>
      </trkpt>
      <trkpt lat="47.626855" lon="7.893551">
        <ele>414.882451</ele>
        <time>2021-11-16T06:39:36.050Z</time>
      </trkpt>
      <trkpt lat="47.626865" lon="7.894506">
        <ele>407.640531</ele>
        <time>2021-11-16T06:39:41.567Z</time>
      </trkpt>
      <trkpt lat="47.626674" lon="7.895101">
        <ele>402.643477</ele>
        <time>2021-11-16T06:39:45.345Z</time>
      </trkpt>
      <trkpt lat="47.626363" lon="7.895584">
        <ele>397.223243</ele>
        <time>2021-11-16T06:39:49.113Z</time>
      </trkpt>
      <trkpt lat="47.625546" lon="7.896308">
        <ele>385.010028</ele>
        <time>2021-11-16T06:39:57.100Z</time>
      </trkpt>
      <trkpt lat="47.625340" lon="7.896501">
        <ele>381.883247</ele>
        <time>2021-11-16T06:39:59.172Z</time>
      </trkpt>
      <trkpt lat="47.625217" lon="7.896657">
        <ele>379.806523</ele>
        <time>2021-11-16T06:40:00.505Z</time>
      </trkpt>
      <trkpt lat="47.625137" lon="7.896861">
        <ele>377.764979</ele>
        <time>2021-11-16T06:40:01.899Z</time>
      </trkpt>
      <trkpt lat="47.625133" lon="7.897004">
        <ele>376.648657</ele>
        <time>2021-11-16T06:40:02.708Z</time>
      </trkpt>
      <trkpt lat="47.625188" lon="7.897128">
        <ele>375.682752</ele>
        <time>2021-11-16T06:40:03.537Z</time>
      </trkpt>
      <trkpt lat="47.625408" lon="7.897172">
        <ele>373.539559</ele>
        <time>2021-11-16T06:40:05.472Z</time>
      </trkpt>
      <trkpt lat="47.625555" lon="7.897164">
        <ele>372.119398</ele>
        <time>2021-11-16T06:40:06.680Z</time>
      </trkpt>
      <trkpt lat="47.625709" lon="7.897156">
        <ele>370.631699</ele>
        <time>2021-11-16T06:40:08.033Z</time>
      </trkpt>
      <trkpt lat="47.625946" lon="7.897132">
        <ele>368.338267</ele>
        <time>2021-11-16T06:40:10.026Z</time>
      </trkpt>
      <trkpt lat="47.626062" lon="7.897113">
        <ele>367.211545</ele>
        <time>2021-11-16T06:40:11.068Z</time>
      </trkpt>
      <trkpt lat="47.626245" lon="7.897103">
        <ele>365.443580</ele>
        <time>2021-11-16T06:40:12.604Z</time>
      </trkpt>
      <trkpt lat="47.626428" lon="7.897120">
        <ele>363.673353</ele>
        <time>2021-11-16T06:40:14.297Z</time>
      </trkpt>
      <trkpt lat="47.626521" lon="7.897153">
        <ele>362.750169</ele>
        <time>2021-11-16T06:40:15.159Z</time>
      </trkpt>
      <trkpt lat="47.626680" lon="7.897256">
        <ele>361.075186</ele>
        <time>2021-11-16T06:40:16.730Z</time>
      </trkpt>
      <trkpt lat="47.626939" lon="7.897544">
        <ele>359.396690</ele>
        <time>2021-11-16T06:40:19.729Z</time>
      </trkpt>
      <trkpt lat="47.627064" lon="7.897836">
        <ele>359.057655</ele>
        <time>2021-11-16T06:40:22.123Z</time>
      </trkpt>
      <trkpt lat="47.627129" lon="7.898072">
        <ele>358.807786</ele>
        <time>2021-11-16T06:40:24.054Z</time>
      </trkpt>
      <trkpt lat="47.627440" lon="7.900175">
        <ele>357.300405</ele>
        <time>2021-11-16T06:40:44.801Z</time>
      </trkpt>
      <trkpt lat="47.627514" lon="7.900453">
        <ele>357.526967</ele>
        <time>2021-11-16T06:40:49.791Z</time>
      </trkpt>
      <trkpt lat="47.628120" lon="7.901056">
        <ele>358.347608</ele>
        <time>2021-11-16T06:41:07.100Z</time>
      </trkpt>
      <trkpt lat="47.628239" lon="7.901249">
        <ele>358.545885</ele>
        <time>2021-11-16T06:41:10.767Z</time>
      </trkpt>
      <trkpt lat="47.628617" lon="7.902195">
        <ele>358.645215</ele>
        <time>2021-11-16T06:41:23.128Z</time>
      </trkpt>
      <trkpt lat="47.628663" lon="7.902374">
        <ele>358.456198</ele>
        <time>2021-11-16T06:41:24.799Z</time>
      </trkpt>
      <trkpt lat="47.628980" lon="7.902307">
        <ele>357.987414</ele>
        <time>2021-11-16T06:41:30.405Z</time>
      </trkpt>
      <trkpt lat="47.628958" lon="7.902505">
        <ele>357.789419</ele>
        <time>2021-11-16T06:41:32.488Z</time>
      </trkpt>
      <trkpt lat="47.628725" lon="7.903052">
        <ele>357.150951</ele>
        <time>2021-11-16T06:41:39.433Z</time>
      </trkpt>
      <trkpt lat="47.628646" lon="7.903407">
        <ele>356.782084</ele>
        <time>2021-11-16T06:41:43.204Z</time>
      </trkpt>
      <trkpt lat="47.628608" lon="7.903754">
        <ele>356.435221</ele>
        <time>2021-11-16T06:41:46.824Z</time>
      </trkpt>
      <trkpt lat="47.628610" lon="7.904064">
        <ele>355.827554</ele>
        <time>2021-11-16T06:41:49.882Z</time>
      </trkpt>
      <trkpt lat="47.628650" lon="7.904559">
        <ele>354.837269</ele>
        <time>2021-11-16T06:41:54.732Z</time>
      </trkpt>
      <trkpt lat="47.627955" lon="7.904708">
        <ele>352.767560</ele>
        <time>2021-11-16T06:42:01.968Z</time>
      </trkpt>
      <trkpt lat="47.627467" lon="7.904744">
        <ele>351.327456</ele>
        <time>2021-11-16T06:42:06.923Z</time>
      </trkpt>
      <trkpt lat="47.627287" lon="7.904761">
        <ele>351.049392</ele>
        <time>2021-11-16T06:42:08.735Z</time>
      </trkpt>
      <trkpt lat="47.627067" lon="7.904813">
        <ele>350.897199</ele>
        <time>2021-11-16T06:42:11.018Z</time>
      </trkpt>
      <trkpt lat="47.626505" lon="7.904968">
        <ele>350.506679</ele>
        <time>2021-11-16T06:42:17.367Z</time>
      </trkpt>
      <trkpt lat="47.626440" lon="7.905007">
        <ele>350.458780</ele>
        <time>2021-11-16T06:42:18.231Z</time>
      </trkpt>
      <trkpt lat="47.626460" lon="7.905124">
        <ele>350.403203</ele>
        <time>2021-11-16T06:42:19.131Z</time>
      </trkpt>
      <trkpt lat="47.626443" lon="7.905945">
        <ele>350.025010</ele>
        <time>2021-11-16T06:42:28.424Z</time>
      </trkpt>
      <trkpt lat="47.626439" lon="7.906299">
        <ele>350.236708</ele>
        <time>2021-11-16T06:42:33.877Z</time>
      </trkpt>
      <trkpt lat="47.626436" lon="7.906623">
        <ele>351.679675</ele>
        <time>2021-11-16T06:42:40.016Z</time>
      </trkpt>
      <trkpt lat="47.626436" lon="7.907061">
        <ele>353.630168</ele>
        <time>2021-11-16T06:42:49.107Z</time>
      </trkpt>
      <trkpt lat="47.626436" lon="7.907187">
        <ele>354.191269</ele>
        <time>2021-11-16T06:42:51.664Z</time>
      </trkpt>
      <trkpt lat="47.626442" lon="7.907543">
        <ele>355.777096</ele>
        <time>2021-11-16T06:43:00.433Z</time>
      </trkpt>
      <trkpt lat="47.626446" lon="7.907798">
        <ele>356.912965</ele>
        <time>2021-11-16T06:43:09.648Z</time>
      </trkpt>
      <trkpt lat="47.626436" lon="7.907974">
        <ele>357.699505</ele>
        <time>2021-11-16T06:43:14.415Z</time>
      </trkpt>
      <trkpt lat="47.626373" lon="7.908242">
        <ele>358.963471</ele>
        <time>2021-11-16T06:43:26.095Z</time>
      </trkpt>
      <trkpt lat="47.626074" lon="7.908682">
        <ele>361.745989</ele>
        <time>2021-11-16T06:43:48.789Z</time>
      </trkpt>
      <trkpt lat="47.625875" lon="7.909372">
        <ele>366.283681</ele>
        <time>2021-11-16T06:44:15.984Z</time>
      </trkpt>
      <trkpt lat="47.625820" lon="7.909530">
        <ele>367.361904</ele>
        <time>2021-11-16T06:44:24.380Z</time>
      </trkpt>
      <trkpt lat="47.625738" lon="7.909657">
        <ele>368.428271</ele>
        <time>2021-11-16T06:44:30.434Z</time>
      </trkpt>
      <trkpt lat="47.625660" lon="7.909693">
        <ele>369.163146</ele>
        <time>2021-11-16T06:44:33.570Z</time>
      </trkpt>
      <trkpt lat="47.625630" lon="7.909700">
        <ele>369.436351</ele>
        <time>2021-11-16T06:44:35.475Z</time>
      </trkpt>
      <trkpt lat="47.625586" lon="7.909712">
        <ele>369.838819</ele>
        <time>2021-11-16T06:44:38.662Z</time>
      </trkpt>
      <trkpt lat="47.625366" lon="7.909623">
        <ele>371.890248</ele>
        <time>2021-11-16T06:44:50.385Z</time>
      </trkpt>
      <trkpt lat="47.624962" lon="7.909272">
        <ele>376.102003</ele>
        <time>2021-11-16T06:45:12.597Z</time>
      </trkpt>
      <trkpt lat="47.624823" lon="7.909229">
        <ele>377.379377</ele>
        <time>2021-11-16T06:45:20.160Z</time>
      </trkpt>
      <trkpt lat="47.624367" lon="7.909092">
        <ele>380.181693</ele>
        <time>2021-11-16T06:45:39.422Z</time>
      </trkpt>
      <trkpt lat="47.623851" lon="7.909030">
        <ele>383.050601</ele>
        <time>2021-11-16T06:45:57.010Z</time>
      </trkpt>
      <trkpt lat="47.623414" lon="7.909173">
        <ele>385.530551</ele>
        <time>2021-11-16T06:46:13.229Z</time>
      </trkpt>
      <trkpt lat="47.622850" lon="7.910055">
        <ele>389.802404</ele>
        <time>2021-11-16T06:46:40.205Z</time>
      </trkpt>
      <trkpt lat="47.622755" lon="7.910176">
        <ele>390.408993</ele>
        <time>2021-11-16T06:46:44.178Z</time>
      </trkpt>
      <trkpt lat="47.622666" lon="7.910254">
        <ele>390.909786</ele>
        <time>2021-11-16T06:46:48.311Z</time>
      </trkpt>
      <trkpt lat="47.622368" lon="7.910396">
        <ele>392.426166</ele>
        <time>2021-11-16T06:46:58.429Z</time>
      </trkpt>
      <trkpt lat="47.621461" lon="7.910146">
        <ele>396.934444</ele>
        <time>2021-11-16T06:47:30.481Z</time>
      </trkpt>
      <trkpt lat="47.621308" lon="7.910162">
        <ele>397.792526</ele>
        <time>2021-11-16T06:47:36.346Z</time>
      </trkpt>
      <trkpt lat="47.620712" lon="7.910483">
        <ele>401.339762</ele>
        <time>2021-11-16T06:47:57.520Z</time>
      </trkpt>
      <trkpt lat="47.620245" lon="7.910440">
        <ele>403.957420</ele>
        <time>2021-11-16T06:48:13.137Z</time>
      </trkpt>
      <trkpt lat="47.620162" lon="7.910587">
        <ele>404.680533</ele>
        <time>2021-11-16T06:48:18.338Z</time>
      </trkpt>
      <trkpt lat="47.620181" lon="7.910694">
        <ele>405.097789</ele>
        <time>2021-11-16T06:48:21.590Z</time>
      </trkpt>
      <trkpt lat="47.620625" lon="7.910808">
        <ele>408.137553</ele>
        <time>2021-11-16T06:48:42.036Z</time>
      </trkpt>
      <trkpt lat="47.620846" lon="7.911023">
        <ele>410.457415</ele>
        <time>2021-11-16T06:48:54.448Z</time>
      </trkpt>
      <trkpt lat="47.620946" lon="7.911321">
        <ele>412.427041</ele>
        <time>2021-11-16T06:49:05.504Z</time>
      </trkpt>
      <trkpt lat="47.620953" lon="7.911653">
        <ele>414.392368</ele>
        <time>2021-11-16T06:49:16.180Z</time>
      </trkpt>
      <trkpt lat="47.620910" lon="7.911951">
        <ele>416.195515</ele>
        <time>2021-11-16T06:49:26.648Z</time>
      </trkpt>
      <trkpt lat="47.620858" lon="7.912289">
        <ele>418.246816</ele>
        <time>2021-11-16T06:49:39.099Z</time>
      </trkpt>
      <trkpt lat="47.620822" lon="7.912670">
        <ele>420.523150</ele>
        <time>2021-11-16T06:49:52.336Z</time>
      </trkpt>
      <trkpt lat="47.620841" lon="7.913331">
        <ele>424.723075</ele>
        <time>2021-11-16T06:50:17.439Z</time>
      </trkpt>
      <trkpt lat="47.620869" lon="7.913635">
        <ele>426.805261</ele>
        <time>2021-11-16T06:50:28.965Z</time>
      </trkpt>
      <trkpt lat="47.621037" lon="7.914355">
        <ele>431.975824</ele>
        <time>2021-11-16T06:50:59.849Z</time>
      </trkpt>
      <trkpt lat="47.621530" lon="7.915222">
        <ele>439.673482</ele>
        <time>2021-11-16T06:51:39.939Z</time>
      </trkpt>
      <trkpt lat="47.621809" lon="7.915582">
        <ele>443.372980</ele>
        <time>2021-11-16T06:51:59.436Z</time>
      </trkpt>
      <trkpt lat="47.622393" lon="7.916077">
        <ele>450.088267</ele>
        <time>2021-11-16T06:52:35.428Z</time>
      </trkpt>
      <trkpt lat="47.622576" lon="7.916379">
        <ele>452.821163</ele>
        <time>2021-11-16T06:52:51.432Z</time>
      </trkpt>
      <trkpt lat="47.622647" lon="7.916647">
        <ele>454.758990</ele>
        <time>2021-11-16T06:53:02.992Z</time>
      </trkpt>
      <trkpt lat="47.622677" lon="7.917170">
        <ele>458.291250</ele>
        <time>2021-11-16T06:53:22.716Z</time>
      </trkpt>
      <trkpt lat="47.622656" lon="7.917625">
        <ele>461.285264</ele>
        <time>2021-11-16T06:53:39.266Z</time>
      </trkpt>
      <trkpt lat="47.622587" lon="7.917873">
        <ele>463.042325</ele>
        <time>2021-11-16T06:53:48.796Z</time>
      </trkpt>
      <trkpt lat="47.622424" lon="7.918069">
        <ele>465.080927</ele>
        <time>2021-11-16T06:54:00.353Z</time>
      </trkpt>
      <trkpt lat="47.622381" lon="7.918164">
        <ele>465.830345</ele>
        <time>2021-11-16T06:54:04.917Z</time>
      </trkpt>
      <trkpt lat="47.622366" lon="7.918470">
        <ele>467.839613</ele>
        <time>2021-11-16T06:54:15.249Z</time>
      </trkpt>
      <trkpt lat="47.622446" lon="7.918652">
        <ele>469.262583</ele>
        <time>2021-11-16T06:54:23.455Z</time>
      </trkpt>
      <trkpt lat="47.623010" lon="7.918947">
        <ele>475.073159</ele>
        <time>2021-11-16T06:54:53.470Z</time>
      </trkpt>
      <trkpt lat="47.623255" lon="7.919315">
        <ele>478.676401</ele>
        <time>2021-11-16T06:55:13.641Z</time>
      </trkpt>
      <trkpt lat="47.623430" lon="7.919875">
        <ele>483.078972</ele>
        <time>2021-11-16T06:55:36.804Z</time>
      </trkpt>
      <trkpt lat="47.623561" lon="7.920975">
        <ele>491.046116</ele>
        <time>2021-11-16T06:56:18.874Z</time>
      </trkpt>
      <trkpt lat="47.623588" lon="7.921368">
        <ele>493.863660</ele>
        <time>2021-11-16T06:56:35.321Z</time>
      </trkpt>
      <trkpt lat="47.623611" lon="7.921528">
        <ele>495.030504</ele>
        <time>2021-11-16T06:56:42.484Z</time>
      </trkpt>
      <trkpt lat="47.623626" lon="7.921633">
        <ele>495.855480</ele>
        <time>2021-11-16T06:56:47.400Z</time>
      </trkpt>
      <trkpt lat="47.623564" lon="7.921962">
        <ele>498.492182</ele>
        <time>2021-11-16T06:57:01.267Z</time>
      </trkpt>
      <trkpt lat="47.623298" lon="7.922501">
        <ele>503.648310</ele>
        <time>2021-11-16T06:57:29.638Z</time>
      </trkpt>
      <trkpt lat="47.623251" lon="7.922713">
        <ele>505.370840</ele>
        <time>2021-11-16T06:57:38.490Z</time>
      </trkpt>
      <trkpt lat="47.623227" lon="7.922954">
        <ele>507.251152</ele>
        <time>2021-11-16T06:57:49.728Z</time>
      </trkpt>
      <trkpt lat="47.623246" lon="7.923768">
        <ele>513.537639</ele>
        <time>2021-11-16T06:58:22.930Z</time>
      </trkpt>
      <trkpt lat="47.623206" lon="7.923969">
        <ele>515.155234</ele>
        <time>2021-11-16T06:58:31.589Z</time>
      </trkpt>
      <trkpt lat="47.623053" lon="7.924259">
        <ele>517.842110</ele>
        <time>2021-11-16T06:58:44.190Z</time>
      </trkpt>
      <trkpt lat="47.621723" lon="7.924936">
        <ele>532.867651</ele>
        <time>2021-11-16T07:00:01.589Z</time>
      </trkpt>
      <trkpt lat="47.621339" lon="7.925596">
        <ele>539.915190</ele>
        <time>2021-11-16T07:00:40.608Z</time>
      </trkpt>
      <trkpt lat="47.621290" lon="7.925709">
        <ele>541.057484</ele>
        <time>2021-11-16T07:00:47.434Z</time>
      </trkpt>
      <trkpt lat="47.621092" lon="7.926230">
        <ele>546.142275</ele>
        <time>2021-11-16T07:01:14.851Z</time>
      </trkpt>
      <trkpt lat="47.621008" lon="7.926716">
        <ele>550.407671</ele>
        <time>2021-11-16T07:01:37.302Z</time>
      </trkpt>
      <trkpt lat="47.621010" lon="7.926916">
        <ele>552.108156</ele>
        <time>2021-11-16T07:01:45.802Z</time>
      </trkpt>
      <trkpt lat="47.620993" lon="7.927078">
        <ele>553.501988</ele>
        <time>2021-11-16T07:01:53.165Z</time>
      </trkpt>
      <trkpt lat="47.620930" lon="7.927423">
        <ele>556.540735</ele>
        <time>2021-11-16T07:02:08.685Z</time>
      </trkpt>
      <trkpt lat="47.620873" lon="7.927631">
        <ele>558.216879</ele>
        <time>2021-11-16T07:02:19.216Z</time>
      </trkpt>
      <trkpt lat="47.620796" lon="7.927816">
        <ele>559.572952</ele>
        <time>2021-11-16T07:02:28.386Z</time>
      </trkpt>
      <trkpt lat="47.620670" lon="7.927946">
        <ele>560.993048</ele>
        <time>2021-11-16T07:02:38.607Z</time>
      </trkpt>
      <trkpt lat="47.620384" lon="7.928242">
        <ele>564.219726</ele>
        <time>2021-11-16T07:02:58.663Z</time>
      </trkpt>
      <trkpt lat="47.619053" lon="7.929381">
        <ele>577.485668</ele>
        <time>2021-11-16T07:04:07.578Z</time>
      </trkpt>
      <trkpt lat="47.618861" lon="7.929607">
        <ele>579.241840</ele>
        <time>2021-11-16T07:04:17.573Z</time>
      </trkpt>
      <trkpt lat="47.618734" lon="7.929873">
        <ele>580.816215</ele>
        <time>2021-11-16T07:04:25.175Z</time>
      </trkpt>
      <trkpt lat="47.618733" lon="7.929945">
        <ele>581.164039</ele>
        <time>2021-11-16T07:04:28.174Z</time>
      </trkpt>
      <trkpt lat="47.618761" lon="7.930033">
        <ele>581.634040</ele>
        <time>2021-11-16T07:04:30.986Z</time>
      </trkpt>
      <trkpt lat="47.618921" lon="7.930073">
        <ele>582.796657</ele>
        <time>2021-11-16T07:04:36.997Z</time>
      </trkpt>
      <trkpt lat="47.619123" lon="7.929802">
        <ele>584.748102</ele>
        <time>2021-11-16T07:04:49.028Z</time>
      </trkpt>
      <trkpt lat="47.619329" lon="7.929527">
        <ele>586.733766</ele>
        <time>2021-11-16T07:05:01.736Z</time>
      </trkpt>
      <trkpt lat="47.619604" lon="7.929315">
        <ele>589.624300</ele>
        <time>2021-11-16T07:05:16.371Z</time>
      </trkpt>
      <trkpt lat="47.619928" lon="7.929124">
        <ele>593.028196</ele>
        <time>2021-11-16T07:05:34.211Z</time>
      </trkpt>
      <trkpt lat="47.620569" lon="7.928919">
        <ele>599.430239</ele>
        <time>2021-11-16T07:06:09.160Z</time>
      </trkpt>
      <trkpt lat="47.621861" lon="7.928723">
        <ele>613.344506</ele>
        <time>2021-11-16T07:07:28.355Z</time>
      </trkpt>
      <trkpt lat="47.622913" lon="7.928884">
        <ele>625.347751</ele>
        <time>2021-11-16T07:08:33.792Z</time>
      </trkpt>
      <trkpt lat="47.622990" lon="7.929067">
        <ele>626.766011</ele>
        <time>2021-11-16T07:08:41.710Z</time>
      </trkpt>
      <trkpt lat="47.622989" lon="7.929175">
        <ele>627.476088</ele>
        <time>2021-11-16T07:08:47.340Z</time>
      </trkpt>
      <trkpt lat="47.623083" lon="7.929217">
        <ele>628.433627</ele>
        <time>2021-11-16T07:08:51.660Z</time>
      </trkpt>
      <trkpt lat="47.623184" lon="7.929263">
        <ele>629.464139</ele>
        <time>2021-11-16T07:08:56.313Z</time>
      </trkpt>
      <trkpt lat="47.623243" lon="7.929290">
        <ele>630.066370</ele>
        <time>2021-11-16T07:09:00.320Z</time>
      </trkpt>
      <trkpt lat="47.623515" lon="7.929516">
        <ele>633.107119</ele>
        <time>2021-11-16T07:09:16.299Z</time>
      </trkpt>
      <trkpt lat="47.623661" lon="7.929775">
        <ele>635.326830</ele>
        <time>2021-11-16T07:09:29.022Z</time>
      </trkpt>
      <trkpt lat="47.623898" lon="7.929981">
        <ele>638.005976</ele>
        <time>2021-11-16T07:09:43.793Z</time>
      </trkpt>
      <trkpt lat="47.624148" lon="7.929878">
        <ele>640.536713</ele>
        <time>2021-11-16T07:09:55.179Z</time>
      </trkpt>
      <trkpt lat="47.624516" lon="7.929342">
        <ele>645.649420</ele>
        <time>2021-11-16T07:10:22.587Z</time>
      </trkpt>
      <trkpt lat="47.624693" lon="7.929271">
        <ele>647.489195</ele>
        <time>2021-11-16T07:10:32.644Z</time>
      </trkpt>
      <trkpt lat="47.625522" lon="7.929345">
        <ele>655.822403</ele>
        <time>2021-11-16T07:11:20.720Z</time>
      </trkpt>
      <trkpt lat="47.626033" lon="7.929516">
        <ele>661.053000</ele>
        <time>2021-11-16T07:11:50.413Z</time>
      </trkpt>
      <trkpt lat="47.626414" lon="7.929713">
        <ele>664.803174</ele>
        <time>2021-11-16T07:12:10.943Z</time>
      </trkpt>
      <trkpt lat="47.626513" lon="7.929764">
        <ele>665.777240</ele>
        <time>2021-11-16T07:12:15.132Z</time>
      </trkpt>
      <trkpt lat="47.626886" lon="7.929825">
        <ele>669.265185</ele>
        <time>2021-11-16T07:12:33.566Z</time>
      </trkpt>
      <trkpt lat="47.626987" lon="7.929783">
        <ele>670.240128</ele>
        <time>2021-11-16T07:12:39.448Z</time>
      </trkpt>
      <trkpt lat="47.627834" lon="7.928864">
        <ele>680.437374</ele>
        <time>2021-11-16T07:13:35.288Z</time>
      </trkpt>
      <trkpt lat="47.628161" lon="7.928726">
        <ele>684.149321</ele>
        <time>2021-11-16T07:13:52.341Z</time>
      </trkpt>
      <trkpt lat="47.628543" lon="7.928608">
        <ele>688.409608</ele>
        <time>2021-11-16T07:14:14.490Z</time>
      </trkpt>
      <trkpt lat="47.629245" lon="7.928563">
        <ele>696.081542</ele>
        <time>2021-11-16T07:14:58.967Z</time>
      </trkpt>
      <trkpt lat="47.630399" lon="7.928619">
        <ele>710.085066</ele>
        <time>2021-11-16T07:16:16.393Z</time>
      </trkpt>
      <trkpt lat="47.632437" lon="7.928120">
        <ele>734.503365</ele>
        <time>2021-11-16T07:18:20.459Z</time>
      </trkpt>
      <trkpt lat="47.633595" lon="7.928236">
        <ele>748.660290</ele>
        <time>2021-11-16T07:19:35.099Z</time>
      </trkpt>
      <trkpt lat="47.634257" lon="7.928526">
        <ele>757.362507</ele>
        <time>2021-11-16T07:20:21.428Z</time>
      </trkpt>
      <trkpt lat="47.634762" lon="7.929013">
        <ele>764.707854</ele>
        <time>2021-11-16T07:21:01.191Z</time>
      </trkpt>
      <trkpt lat="47.635221" lon="7.929664">
        <ele>771.863430</ele>
        <time>2021-11-16T07:21:41.495Z</time>
      </trkpt>
      <trkpt lat="47.635488" lon="7.930306">
        <ele>777.592815</ele>
        <time>2021-11-16T07:22:11.483Z</time>
      </trkpt>
      <trkpt lat="47.635717" lon="7.930591">
        <ele>780.961096</ele>
        <time>2021-11-16T07:22:27.846Z</time>
      </trkpt>
      <trkpt lat="47.636022" lon="7.930655">
        <ele>784.166595</ele>
        <time>2021-11-16T07:22:44.053Z</time>
      </trkpt>
      <trkpt lat="47.636603" lon="7.930541">
        <ele>789.631093</ele>
        <time>2021-11-16T07:23:14.971Z</time>
      </trkpt>
      <trkpt lat="47.637092" lon="7.930719">
        <ele>794.325773</ele>
        <time>2021-11-16T07:23:41.495Z</time>
      </trkpt>
      <trkpt lat="47.637860" lon="7.930973">
        <ele>801.696629</ele>
        <time>2021-11-16T07:24:21.166Z</time>
      </trkpt>
      <trkpt lat="47.638146" lon="7.931131">
        <ele>804.590799</ele>
        <time>2021-11-16T07:24:36.451Z</time>
      </trkpt>
      <trkpt lat="47.638612" lon="7.931348">
        <ele>809.222653</ele>
        <time>2021-11-16T07:25:00.336Z</time>
      </trkpt>
      <trkpt lat="47.638875" lon="7.931601">
        <ele>812.195005</ele>
        <time>2021-11-16T07:25:17.667Z</time>
      </trkpt>
      <trkpt lat="47.639059" lon="7.932072">
        <ele>815.674034</ele>
        <time>2021-11-16T07:25:39.551Z</time>
      </trkpt>
      <trkpt lat="47.639161" lon="7.932537">
        <ele>818.797509</ele>
        <time>2021-11-16T07:25:58.620Z</time>
      </trkpt>
      <trkpt lat="47.639206" lon="7.933065">
        <ele>822.196043</ele>
        <time>2021-11-16T07:26:17.802Z</time>
      </trkpt>
      <trkpt lat="47.639165" lon="7.933477">
        <ele>824.855506</ele>
        <time>2021-11-16T07:26:31.498Z</time>
      </trkpt>
      <trkpt lat="47.639130" lon="7.933575">
        <ele>825.563783</ele>
        <time>2021-11-16T07:26:37.052Z</time>
      </trkpt>
      <trkpt lat="47.638943" lon="7.934020">
        <ele>828.912795</ele>
        <time>2021-11-16T07:26:55.392Z</time>
      </trkpt>
      <trkpt lat="47.638794" lon="7.934551">
        <ele>832.585926</ele>
        <time>2021-11-16T07:27:15.077Z</time>
      </trkpt>
      <trkpt lat="47.638822" lon="7.934800">
        <ele>834.113346</ele>
        <time>2021-11-16T07:27:22.712Z</time>
      </trkpt>
      <trkpt lat="47.638891" lon="7.934970">
        <ele>835.132076</ele>
        <time>2021-11-16T07:27:28.982Z</time>
      </trkpt>
      <trkpt lat="47.638983" lon="7.935124">
        <ele>836.188545</ele>
        <time>2021-11-16T07:27:36.656Z</time>
      </trkpt>
      <trkpt lat="47.639093" lon="7.935378">
        <ele>837.738446</ele>
        <time>2021-11-16T07:27:44.988Z</time>
      </trkpt>
      <trkpt lat="47.639308" lon="7.936143">
        <ele>841.993193</ele>
        <time>2021-11-16T07:28:11.495Z</time>
      </trkpt>
      <trkpt lat="47.639320" lon="7.936602">
        <ele>844.351067</ele>
        <time>2021-11-16T07:28:25.303Z</time>
      </trkpt>
      <trkpt lat="47.639124" lon="7.937579">
        <ele>849.010989</ele>
        <time>2021-11-16T07:28:53.684Z</time>
      </trkpt>
      <trkpt lat="47.638997" lon="7.937892">
        <ele>850.378561</ele>
        <time>2021-11-16T07:29:03.233Z</time>
      </trkpt>
      <trkpt lat="47.638865" lon="7.938060">
        <ele>851.344530</ele>
        <time>2021-11-16T07:29:10.275Z</time>
      </trkpt>
      <trkpt lat="47.638716" lon="7.938236">
        <ele>852.402388</ele>
        <time>2021-11-16T07:29:17.522Z</time>
      </trkpt>
      <trkpt lat="47.638539" lon="7.938594">
        <ele>854.064424</ele>
        <time>2021-11-16T07:29:29.070Z</time>
      </trkpt>
      <trkpt lat="47.638720" lon="7.939846">
        <ele>857.856117</ele>
        <time>2021-11-16T07:29:58.101Z</time>
      </trkpt>
      <trkpt lat="47.638649" lon="7.940702">
        <ele>858.770397</ele>
        <time>2021-11-16T07:30:11.649Z</time>
      </trkpt>
      <trkpt lat="47.638557" lon="7.941269">
        <ele>859.388646</ele>
        <time>2021-11-16T07:30:18.412Z</time>
      </trkpt>
      <trkpt lat="47.638425" lon="7.941930">
        <ele>860.119489</ele>
        <time>2021-11-16T07:30:26.006Z</time>
      </trkpt>
      <trkpt lat="47.638178" lon="7.942718">
        <ele>859.971755</ele>
        <time>2021-11-16T07:30:33.531Z</time>
      </trkpt>
      <trkpt lat="47.638082" lon="7.942969">
        <ele>859.841900</ele>
        <time>2021-11-16T07:30:35.742Z</time>
      </trkpt>
      <trkpt lat="47.637910" lon="7.943332">
        <ele>859.642238</ele>
        <time>2021-11-16T07:30:39.273Z</time>
      </trkpt>
      <trkpt lat="47.637613" lon="7.943952">
        <ele>859.299974</ele>
        <time>2021-11-16T07:30:45.689Z</time>
      </trkpt>
      <trkpt lat="47.637571" lon="7.944037">
        <ele>859.252549</ele>
        <time>2021-11-16T07:30:46.563Z</time>
      </trkpt>
      <trkpt lat="47.637442" lon="7.944256">
        <ele>859.121673</ele>
        <time>2021-11-16T07:30:48.952Z</time>
      </trkpt>
      <trkpt lat="47.637583" lon="7.944404">
        <ele>859.159688</ele>
        <time>2021-11-16T07:30:51.893Z</time>
      </trkpt>
      <trkpt lat="47.637690" lon="7.944520">
        <ele>859.234812</ele>
        <time>2021-11-16T07:30:53.627Z</time>
      </trkpt>
      <trkpt lat="47.637846" lon="7.944700">
        <ele>859.346839</ele>
        <time>2021-11-16T07:30:57.472Z</time>
      </trkpt>
      <trkpt lat="47.637977" lon="7.944887">
        <ele>859.449886</ele>
        <time>2021-11-16T07:30:59.856Z</time>
      </trkpt>
      <trkpt lat="47.638087" lon="7.945165">
        <ele>859.573041</ele>
        <time>2021-11-16T07:31:03.864Z</time>
      </trkpt>
      <trkpt lat="47.638180" lon="7.945471">
        <ele>859.701276</ele>
        <time>2021-11-16T07:31:06.926Z</time>
      </trkpt>
      <trkpt lat="47.638187" lon="7.945494">
        <ele>859.710916</ele>
        <time>2021-11-16T07:31:08.115Z</time>
      </trkpt>
      <trkpt lat="47.638490" lon="7.946296">
        <ele>860.062157</ele>
        <time>2021-11-16T07:31:18.990Z</time>
      </trkpt>
      <trkpt lat="47.638601" lon="7.946470">
        <ele>860.210226</ele>
        <time>2021-11-16T07:31:23.233Z</time>
      </trkpt>
      <trkpt lat="47.638633" lon="7.946522">
        <ele>860.271155</ele>
        <time>2021-11-16T07:31:24.206Z</time>
      </trkpt>
      <trkpt lat="47.638801" lon="7.946735">
        <ele>860.554871</ele>
        <time>2021-11-16T07:31:28.257Z</time>
      </trkpt>
      <trkpt lat="47.639079" lon="7.947097">
        <ele>861.029753</ele>
        <time>2021-11-16T07:31:36.586Z</time>
      </trkpt>
      <trkpt lat="47.639171" lon="7.947230">
        <ele>861.194664</ele>
        <time>2021-11-16T07:31:40.395Z</time>
      </trkpt>
      <trkpt lat="47.639245" lon="7.947417">
        <ele>861.382291</ele>
        <time>2021-11-16T07:31:43.021Z</time>
      </trkpt>
      <trkpt lat="47.639305" lon="7.947792">
        <ele>861.715754</ele>
        <time>2021-11-16T07:31:48.542Z</time>
      </trkpt>
      <trkpt lat="47.639254" lon="7.948202">
        <ele>862.076470</ele>
        <time>2021-11-16T07:31:54.135Z</time>
      </trkpt>
      <trkpt lat="47.639170" lon="7.948455">
        <ele>862.320491</ele>
        <time>2021-11-16T07:31:57.278Z</time>
      </trkpt>
      <trkpt lat="47.639038" lon="7.948758">
        <ele>862.135761</ele>
        <time>2021-11-16T07:32:01.301Z</time>
      </trkpt>
      <trkpt lat="47.638845" lon="7.949151">
        <ele>861.580256</ele>
        <time>2021-11-16T07:32:06.136Z</time>
      </trkpt>
      <trkpt lat="47.638433" lon="7.949786">
        <ele>860.573280</ele>
        <time>2021-11-16T07:32:13.197Z</time>
      </trkpt>
      <trkpt lat="47.637813" lon="7.950431">
        <ele>859.133859</ele>
        <time>2021-11-16T07:32:20.815Z</time>
      </trkpt>
      <trkpt lat="47.637598" lon="7.950642">
        <ele>857.841421</ele>
        <time>2021-11-16T07:32:23.272Z</time>
      </trkpt>
      <trkpt lat="47.637451" lon="7.950859">
        <ele>856.801796</ele>
        <time>2021-11-16T07:32:25.312Z</time>
      </trkpt>
      <trkpt lat="47.637383" lon="7.950993">
        <ele>856.235026</ele>
        <time>2021-11-16T07:32:26.331Z</time>
      </trkpt>
      <trkpt lat="47.637337" lon="7.951149">
        <ele>855.659698</ele>
        <time>2021-11-16T07:32:27.478Z</time>
      </trkpt>
      <trkpt lat="47.637306" lon="7.951326">
        <ele>855.041806</ele>
        <time>2021-11-16T07:32:28.648Z</time>
      </trkpt>
      <trkpt lat="47.637300" lon="7.951504">
        <ele>854.439654</ele>
        <time>2021-11-16T07:32:29.724Z</time>
      </trkpt>
      <trkpt lat="47.637400" lon="7.954079">
        <ele>846.081408</ele>
        <time>2021-11-16T07:32:45.857Z</time>
      </trkpt>
      <trkpt lat="47.637492" lon="7.954483">
        <ele>844.751554</ele>
        <time>2021-11-16T07:32:48.675Z</time>
      </trkpt>
      <trkpt lat="47.637714" lon="7.954725">
        <ele>843.476760</ele>
        <time>2021-11-16T07:32:51.440Z</time>
      </trkpt>
      <trkpt lat="47.637932" lon="7.954791">
        <ele>842.447075</ele>
        <time>2021-11-16T07:32:53.675Z</time>
      </trkpt>
      <trkpt lat="47.638760" lon="7.954525">
        <ele>839.474175</ele>
        <time>2021-11-16T07:33:02.049Z</time>
      </trkpt>
      <trkpt lat="47.639207" lon="7.954547">
        <ele>837.964845</ele>
        <time>2021-11-16T07:33:06.506Z</time>
      </trkpt>
      <trkpt lat="47.639497" lon="7.954714">
        <ele>836.915085</ele>
        <time>2021-11-16T07:33:09.617Z</time>
      </trkpt>
      <trkpt lat="47.639696" lon="7.954882">
        <ele>836.142469</ele>
        <time>2021-11-16T07:33:11.957Z</time>
      </trkpt>
      <trkpt lat="47.639795" lon="7.954985">
        <ele>835.911353</ele>
        <time>2021-11-16T07:33:13.147Z</time>
      </trkpt>
      <trkpt lat="47.640167" lon="7.955381">
        <ele>835.597182</ele>
        <time>2021-11-16T07:33:18.134Z</time>
      </trkpt>
      <trkpt lat="47.640501" lon="7.955695">
        <ele>835.325853</ele>
        <time>2021-11-16T07:33:22.794Z</time>
      </trkpt>
      <trkpt lat="47.641056" lon="7.956097">
        <ele>834.902036</ele>
        <time>2021-11-16T07:33:31.201Z</time>
      </trkpt>
      <trkpt lat="47.641512" lon="7.956418">
        <ele>835.658565</ele>
        <time>2021-11-16T07:33:43.083Z</time>
      </trkpt>
      <trkpt lat="47.641799" lon="7.956605">
        <ele>836.868508</ele>
        <time>2021-11-16T07:33:51.711Z</time>
      </trkpt>
      <trkpt lat="47.642280" lon="7.956756">
        <ele>838.766358</ele>
        <time>2021-11-16T07:34:06.712Z</time>
      </trkpt>
      <trkpt lat="47.642688" lon="7.956755">
        <ele>840.341334</ele>
        <time>2021-11-16T07:34:21.461Z</time>
      </trkpt>
      <trkpt lat="47.643476" lon="7.956624">
        <ele>844.058418</ele>
        <time>2021-11-16T07:34:49.464Z</time>
      </trkpt>
      <trkpt lat="47.643852" lon="7.956655">
        <ele>846.061310</ele>
        <time>2021-11-16T07:35:02.450Z</time>
      </trkpt>
      <trkpt lat="47.643910" lon="7.956673">
        <ele>846.376462</ele>
        <time>2021-11-16T07:35:05.112Z</time>
      </trkpt>
      <trkpt lat="47.644164" lon="7.956750">
        <ele>847.755286</ele>
        <time>2021-11-16T07:35:13.583Z</time>
      </trkpt>
      <trkpt lat="47.645406" lon="7.957496">
        <ele>855.506234</ele>
        <time>2021-11-16T07:36:04.331Z</time>
      </trkpt>
      <trkpt lat="47.645747" lon="7.957554">
        <ele>857.644283</ele>
        <time>2021-11-16T07:36:17.740Z</time>
      </trkpt>
      <trkpt lat="47.646155" lon="7.957498">
        <ele>860.196629</ele>
        <time>2021-11-16T07:36:34.370Z</time>
      </trkpt>
      <trkpt lat="47.646613" lon="7.957202">
        <ele>863.422504</ele>
        <time>2021-11-16T07:36:55.675Z</time>
      </trkpt>
      <trkpt lat="47.647946" lon="7.955473">
        <ele>875.830258</ele>
        <time>2021-11-16T07:38:13.074Z</time>
      </trkpt>
      <trkpt lat="47.648068" lon="7.955382">
        <ele>876.715533</ele>
        <time>2021-11-16T07:38:18.892Z</time>
      </trkpt>
      <trkpt lat="47.648185" lon="7.955328">
        <ele>877.509960</ele>
        <time>2021-11-16T07:38:23.459Z</time>
      </trkpt>
      <trkpt lat="47.648456" lon="7.955339">
        <ele>879.267721</ele>
        <time>2021-11-16T07:38:33.337Z</time>
      </trkpt>
      <trkpt lat="47.648720" lon="7.955532">
        <ele>881.175772</ele>
        <time>2021-11-16T07:38:45.641Z</time>
      </trkpt>
      <trkpt lat="47.648779" lon="7.955603">
        <ele>881.668232</ele>
        <time>2021-11-16T07:38:48.625Z</time>
      </trkpt>
      <trkpt lat="47.648843" lon="7.955710">
        <ele>882.293235</ele>
        <time>2021-11-16T07:38:52.226Z</time>
      </trkpt>
      <trkpt lat="47.648999" lon="7.956144">
        <ele>884.441885</ele>
        <time>2021-11-16T07:39:06.220Z</time>
      </trkpt>
      <trkpt lat="47.649197" lon="7.956371">
        <ele>886.063989</ele>
        <time>2021-11-16T07:39:17.400Z</time>
      </trkpt>
      <trkpt lat="47.649402" lon="7.956302">
        <ele>887.417603</ele>
        <time>2021-11-16T07:39:25.641Z</time>
      </trkpt>
      <trkpt lat="47.649584" lon="7.955970">
        <ele>889.260799</ele>
        <time>2021-11-16T07:39:36.098Z</time>
      </trkpt>
      <trkpt lat="47.649631" lon="7.955853">
        <ele>889.847398</ele>
        <time>2021-11-16T07:39:40.228Z</time>
      </trkpt>
      <trkpt lat="47.649724" lon="7.955623">
        <ele>891.002532</ele>
        <time>2021-11-16T07:39:46.775Z</time>
      </trkpt>
      <trkpt lat="47.650002" lon="7.954933">
        <ele>894.464640</ele>
        <time>2021-11-16T07:40:09.332Z</time>
      </trkpt>
      <trkpt lat="47.650118" lon="7.954645">
        <ele>895.909575</ele>
        <time>2021-11-16T07:40:18.949Z</time>
      </trkpt>
      <trkpt lat="47.650345" lon="7.953699">
        <ele>899.850055</ele>
        <time>2021-11-16T07:40:47.161Z</time>
      </trkpt>
      <trkpt lat="47.650482" lon="7.953573">
        <ele>900.679345</ele>
        <time>2021-11-16T07:40:52.305Z</time>
      </trkpt>
      <trkpt lat="47.650633" lon="7.953615">
        <ele>901.469859</ele>
        <time>2021-11-16T07:40:56.975Z</time>
      </trkpt>
      <trkpt lat="47.650657" lon="7.953661">
        <ele>901.671543</ele>
        <time>2021-11-16T07:40:59.500Z</time>
      </trkpt>
      <trkpt lat="47.650679" lon="7.953702">
        <ele>901.853239</ele>
        <time>2021-11-16T07:41:00.981Z</time>
      </trkpt>
      <trkpt lat="47.650715" lon="7.954086">
        <ele>903.197148</ele>
        <time>2021-11-16T07:41:08.266Z</time>
      </trkpt>
      <trkpt lat="47.650592" lon="7.955306">
        <ele>907.473206</ele>
        <time>2021-11-16T07:41:36.514Z</time>
      </trkpt>
      <trkpt lat="47.650609" lon="7.955764">
        <ele>909.142007</ele>
        <time>2021-11-16T07:41:47.845Z</time>
      </trkpt>
      <trkpt lat="47.650655" lon="7.955948">
        <ele>909.857077</ele>
        <time>2021-11-16T07:41:52.360Z</time>
      </trkpt>
      <trkpt lat="47.650842" lon="7.956246">
        <ele>911.340910</ele>
        <time>2021-11-16T07:42:01.546Z</time>
      </trkpt>
      <trkpt lat="47.651095" lon="7.956386">
        <ele>912.801245</ele>
        <time>2021-11-16T07:42:10.588Z</time>
      </trkpt>
      <trkpt lat="47.651292" lon="7.956406">
        <ele>913.869212</ele>
        <time>2021-11-16T07:42:17.404Z</time>
      </trkpt>
      <trkpt lat="47.651516" lon="7.956396">
        <ele>915.081269</ele>
        <time>2021-11-16T07:42:26.077Z</time>
      </trkpt>
      <trkpt lat="47.651719" lon="7.956399">
        <ele>916.179253</ele>
        <time>2021-11-16T07:42:34.053Z</time>
      </trkpt>
      <trkpt lat="47.651975" lon="7.956501">
        <ele>917.836372</ele>
        <time>2021-11-16T07:42:43.658Z</time>
      </trkpt>
      <trkpt lat="47.652053" lon="7.956533">
        <ele>918.542790</ele>
        <time>2021-11-16T07:42:47.918Z</time>
      </trkpt>
      <trkpt lat="47.652507" lon="7.957087">
        <ele>923.673038</ele>
        <time>2021-11-16T07:43:13.294Z</time>
      </trkpt>
      <trkpt lat="47.652595" lon="7.957204">
        <ele>924.704280</ele>
        <time>2021-11-16T07:43:19.886Z</time>
      </trkpt>
      <trkpt lat="47.652772" lon="7.957441">
        <ele>926.785047</ele>
        <time>2021-11-16T07:43:33.215Z</time>
      </trkpt>
      <trkpt lat="47.653096" lon="7.957768">
        <ele>930.205115</ele>
        <time>2021-11-16T07:43:53.768Z</time>
      </trkpt>
      <trkpt lat="47.653181" lon="7.957841">
        <ele>931.062337</ele>
        <time>2021-11-16T07:43:59.261Z</time>
      </trkpt>
      <trkpt lat="47.653828" lon="7.958393">
        <ele>939.059370</ele>
        <time>2021-11-16T07:44:41.552Z</time>
      </trkpt>
      <trkpt lat="47.653936" lon="7.958486">
        <ele>940.498578</ele>
        <time>2021-11-16T07:44:50.368Z</time>
      </trkpt>
      <trkpt lat="47.654813" lon="7.959256">
        <ele>952.243555</ele>
        <time>2021-11-16T07:45:53.692Z</time>
      </trkpt>
      <trkpt lat="47.655127" lon="7.959601">
        <ele>956.661626</ele>
        <time>2021-11-16T07:46:19.966Z</time>
      </trkpt>
      <trkpt lat="47.655779" lon="7.960622">
        <ele>967.282768</ele>
        <time>2021-11-16T07:47:15.586Z</time>
      </trkpt>
      <trkpt lat="47.655850" lon="7.960949">
        <ele>969.876460</ele>
        <time>2021-11-16T07:47:28.958Z</time>
      </trkpt>
      <trkpt lat="47.655872" lon="7.961253">
        <ele>972.184641</ele>
        <time>2021-11-16T07:47:41.502Z</time>
      </trkpt>
      <trkpt lat="47.655933" lon="7.962104">
        <ele>977.736319</ele>
        <time>2021-11-16T07:48:14.023Z</time>
      </trkpt>
      <trkpt lat="47.655980" lon="7.962352">
        <ele>979.313186</ele>
        <time>2021-11-16T07:48:25.026Z</time>
      </trkpt>
      <trkpt lat="47.656042" lon="7.962687">
        <ele>981.439603</ele>
        <time>2021-11-16T07:48:36.872Z</time>
      </trkpt>
      <trkpt lat="47.656081" lon="7.962896">
        <ele>982.767004</ele>
        <time>2021-11-16T07:48:45.725Z</time>
      </trkpt>
      <trkpt lat="47.656315" lon="7.963729">
        <ele>988.291129</ele>
        <time>2021-11-16T07:49:14.452Z</time>
      </trkpt>
      <trkpt lat="47.656368" lon="7.964081">
        <ele>990.273974</ele>
        <time>2021-11-16T07:49:25.912Z</time>
      </trkpt>
      <trkpt lat="47.656398" lon="7.964453">
        <ele>990.921401</ele>
        <time>2021-11-16T07:49:35.549Z</time>
      </trkpt>
      <trkpt lat="47.656383" lon="7.964840">
        <ele>991.591265</ele>
        <time>2021-11-16T07:49:43.733Z</time>
      </trkpt>
      <trkpt lat="47.656286" lon="7.965454">
        <ele>992.681085</ele>
        <time>2021-11-16T07:49:56.539Z</time>
      </trkpt>
      <trkpt lat="47.656243" lon="7.965641">
        <ele>993.022544</ele>
        <time>2021-11-16T07:50:00.892Z</time>
      </trkpt>
      <trkpt lat="47.656195" lon="7.965776">
        <ele>993.286339</ele>
        <time>2021-11-16T07:50:02.644Z</time>
      </trkpt>
      <trkpt lat="47.656122" lon="7.965934">
        <ele>993.617431</ele>
        <time>2021-11-16T07:50:05.285Z</time>
      </trkpt>
      <trkpt lat="47.656018" lon="7.966160">
        <ele>994.090413</ele>
        <time>2021-11-16T07:50:09.701Z</time>
      </trkpt>
      <trkpt lat="47.655941" lon="7.966294">
        <ele>994.394788</ele>
        <time>2021-11-16T07:50:11.034Z</time>
      </trkpt>
      <trkpt lat="47.655278" lon="7.967139">
        <ele>990.121878</ele>
        <time>2021-11-16T07:50:19.432Z</time>
      </trkpt>
      <trkpt lat="47.654821" lon="7.967589">
        <ele>986.538295</ele>
        <time>2021-11-16T07:50:24.330Z</time>
      </trkpt>
      <trkpt lat="47.654762" lon="7.967700">
        <ele>985.915898</ele>
        <time>2021-11-16T07:50:25.141Z</time>
      </trkpt>
      <trkpt lat="47.654750" lon="7.968047">
        <ele>984.386464</ele>
        <time>2021-11-16T07:50:27.220Z</time>
      </trkpt>
      <trkpt lat="47.654817" lon="7.968152">
        <ele>983.749823</ele>
        <time>2021-11-16T07:50:28.061Z</time>
      </trkpt>
      <trkpt lat="47.654885" lon="7.968206">
        <ele>983.245879</ele>
        <time>2021-11-16T07:50:28.697Z</time>
      </trkpt>
      <trkpt lat="47.655779" lon="7.968196">
        <ele>974.328259</ele>
        <time>2021-11-16T07:50:36.374Z</time>
      </trkpt>
      <trkpt lat="47.655957" lon="7.968245">
        <ele>972.500468</ele>
        <time>2021-11-16T07:50:37.894Z</time>
      </trkpt>
      <trkpt lat="47.656511" lon="7.968670">
        <ele>966.204444</ele>
        <time>2021-11-16T07:50:43.250Z</time>
      </trkpt>
      <trkpt lat="47.656696" lon="7.968854">
        <ele>964.234204</ele>
        <time>2021-11-16T07:50:45.204Z</time>
      </trkpt>
      <trkpt lat="47.656773" lon="7.968937">
        <ele>963.560592</ele>
        <time>2021-11-16T07:50:46.051Z</time>
      </trkpt>
      <trkpt lat="47.656962" lon="7.969271">
        <ele>961.480576</ele>
        <time>2021-11-16T07:50:48.670Z</time>
      </trkpt>
      <trkpt lat="47.657039" lon="7.969626">
        <ele>959.702251</ele>
        <time>2021-11-16T07:50:50.914Z</time>
      </trkpt>
      <trkpt lat="47.657032" lon="7.969793">
        <ele>958.904415</ele>
        <time>2021-11-16T07:50:51.903Z</time>
      </trkpt>
      <trkpt lat="47.656989" lon="7.969970">
        <ele>958.007219</ele>
        <time>2021-11-16T07:50:53.031Z</time>
      </trkpt>
      <trkpt lat="47.656815" lon="7.970288">
        <ele>956.053656</ele>
        <time>2021-11-16T07:50:55.499Z</time>
      </trkpt>
      <trkpt lat="47.656340" lon="7.970890">
        <ele>951.759194</ele>
        <time>2021-11-16T07:51:01.307Z</time>
      </trkpt>
      <trkpt lat="47.656102" lon="7.971198">
        <ele>950.067443</ele>
        <time>2021-11-16T07:51:04.348Z</time>
      </trkpt>
      <trkpt lat="47.655950" lon="7.971412">
        <ele>948.944994</ele>
        <time>2021-11-16T07:51:06.274Z</time>
      </trkpt>
      <trkpt lat="47.655150" lon="7.972945">
        <ele>941.783629</ele>
        <time>2021-11-16T07:51:18.562Z</time>
      </trkpt>
      <trkpt lat="47.655003" lon="7.973149">
        <ele>940.398818</ele>
        <time>2021-11-16T07:51:20.382Z</time>
      </trkpt>
      <trkpt lat="47.654362" lon="7.973863">
        <ele>934.883859</ele>
        <time>2021-11-16T07:51:27.555Z</time>
      </trkpt>
      <trkpt lat="47.654258" lon="7.973979">
        <ele>933.988640</ele>
        <time>2021-11-16T07:51:28.714Z</time>
      </trkpt>
      <trkpt lat="47.654129" lon="7.974161">
        <ele>932.763915</ele>
        <time>2021-11-16T07:51:30.306Z</time>
      </trkpt>
      <trkpt lat="47.654073" lon="7.974336">
        <ele>931.865781</ele>
        <time>2021-11-16T07:51:31.453Z</time>
      </trkpt>
      <trkpt lat="47.654051" lon="7.974524">
        <ele>930.981216</ele>
        <time>2021-11-16T07:51:32.628Z</time>
      </trkpt>
      <trkpt lat="47.654064" lon="7.974789">
        <ele>929.805426</ele>
        <time>2021-11-16T07:51:34.196Z</time>
      </trkpt>
      <trkpt lat="47.654068" lon="7.974892">
        <ele>929.396002</ele>
        <time>2021-11-16T07:51:34.822Z</time>
      </trkpt>
      <trkpt lat="47.654088" lon="7.975088">
        <ele>928.609322</ele>
        <time>2021-11-16T07:51:36.063Z</time>
      </trkpt>
      <trkpt lat="47.654099" lon="7.975313">
        <ele>927.714084</ele>
        <time>2021-11-16T07:51:37.402Z</time>
      </trkpt>
      <trkpt lat="47.654103" lon="7.976072">
        <ele>924.701979</ele>
        <time>2021-11-16T07:51:42.004Z</time>
      </trkpt>
      <trkpt lat="47.653874" lon="7.977660">
        <ele>918.883676</ele>
        <time>2021-11-16T07:51:52.354Z</time>
      </trkpt>
      <trkpt lat="47.653843" lon="7.977840">
        <ele>918.505934</ele>
        <time>2021-11-16T07:51:53.595Z</time>
      </trkpt>
      <trkpt lat="47.653813" lon="7.977977">
        <ele>918.213042</ele>
        <time>2021-11-16T07:51:54.640Z</time>
      </trkpt>
      <trkpt lat="47.653810" lon="7.978101">
        <ele>917.960766</ele>
        <time>2021-11-16T07:51:55.526Z</time>
      </trkpt>
      <trkpt lat="47.653855" lon="7.978549">
        <ele>917.039835</ele>
        <time>2021-11-16T07:51:58.704Z</time>
      </trkpt>
      <trkpt lat="47.653868" lon="7.978760">
        <ele>916.609046</ele>
        <time>2021-11-16T07:52:00.180Z</time>
      </trkpt>
      <trkpt lat="47.653862" lon="7.978904">
        <ele>916.315711</ele>
        <time>2021-11-16T07:52:01.175Z</time>
      </trkpt>
      <trkpt lat="47.653749" lon="7.979154">
        <ele>915.703591</ele>
        <time>2021-11-16T07:52:03.366Z</time>
      </trkpt>
      <trkpt lat="47.653520" lon="7.979391">
        <ele>914.861009</ele>
        <time>2021-11-16T07:52:06.297Z</time>
      </trkpt>
      <trkpt lat="47.653397" lon="7.979529">
        <ele>914.395655</ele>
        <time>2021-11-16T07:52:07.905Z</time>
      </trkpt>
      <trkpt lat="47.653193" lon="7.980022">
        <ele>913.514762</ele>
        <time>2021-11-16T07:52:12.130Z</time>
      </trkpt>
      <trkpt lat="47.652765" lon="7.981492">
        <ele>911.335485</ele>
        <time>2021-11-16T07:52:23.947Z</time>
      </trkpt>
      <trkpt lat="47.652576" lon="7.982196">
        <ele>910.254067</ele>
        <time>2021-11-16T07:52:29.692Z</time>
      </trkpt>
      <trkpt lat="47.652510" lon="7.982613">
        <ele>909.504276</ele>
        <time>2021-11-16T07:52:33.185Z</time>
      </trkpt>
      <trkpt lat="47.652508" lon="7.982678">
        <ele>909.390381</ele>
        <time>2021-11-16T07:52:33.567Z</time>
      </trkpt>
      <trkpt lat="47.652505" lon="7.982801">
        <ele>909.174942</ele>
        <time>2021-11-16T07:52:34.936Z</time>
      </trkpt>
      <trkpt lat="47.652643" lon="7.983778">
        <ele>907.427617</ele>
        <time>2021-11-16T07:52:42.221Z</time>
      </trkpt>
      <trkpt lat="47.652633" lon="7.984339">
        <ele>906.445304</ele>
        <time>2021-11-16T07:52:46.059Z</time>
      </trkpt>
      <trkpt lat="47.652604" lon="7.984546">
        <ele>906.075220</ele>
        <time>2021-11-16T07:52:47.605Z</time>
      </trkpt>
      <trkpt lat="47.652523" lon="7.984756">
        <ele>905.459970</ele>
        <time>2021-11-16T07:52:49.159Z</time>
      </trkpt>
      <trkpt lat="47.651945" lon="7.985453">
        <ele>901.114487</ele>
        <time>2021-11-16T07:52:56.203Z</time>
      </trkpt>
      <trkpt lat="47.651880" lon="7.985568">
        <ele>900.524377</ele>
        <time>2021-11-16T07:52:57.092Z</time>
      </trkpt>
      <trkpt lat="47.651807" lon="7.985695">
        <ele>899.868101</ele>
        <time>2021-11-16T07:52:58.132Z</time>
      </trkpt>
      <trkpt lat="47.651585" lon="7.986334">
        <ele>897.041826</ele>
        <time>2021-11-16T07:53:02.556Z</time>
      </trkpt>
      <trkpt lat="47.651572" lon="7.986401">
        <ele>896.767743</ele>
        <time>2021-11-16T07:53:02.970Z</time>
      </trkpt>
      <trkpt lat="47.651542" lon="7.986566">
        <ele>896.095921</ele>
        <time>2021-11-16T07:53:03.961Z</time>
      </trkpt>
      <trkpt lat="47.651466" lon="7.987627">
        <ele>891.471082</ele>
        <time>2021-11-16T07:53:10.384Z</time>
      </trkpt>
      <trkpt lat="47.651331" lon="7.989520">
        <ele>883.087983</ele>
        <time>2021-11-16T07:53:22.085Z</time>
      </trkpt>
      <trkpt lat="47.651306" lon="7.989748">
        <ele>882.169152</ele>
        <time>2021-11-16T07:53:23.515Z</time>
      </trkpt>
      <trkpt lat="47.651177" lon="7.990271">
        <ele>879.953793</ele>
        <time>2021-11-16T07:53:26.994Z</time>
      </trkpt>
      <trkpt lat="47.651085" lon="7.990554">
        <ele>878.703903</ele>
        <time>2021-11-16T07:53:28.947Z</time>
      </trkpt>
      <trkpt lat="47.650965" lon="7.990892">
        <ele>877.184173</ele>
        <time>2021-11-16T07:53:31.273Z</time>
      </trkpt>
      <trkpt lat="47.650648" lon="7.991764">
        <ele>873.242838</ele>
        <time>2021-11-16T07:53:37.428Z</time>
      </trkpt>
      <trkpt lat="47.650570" lon="7.992409">
        <ele>870.761524</ele>
        <time>2021-11-16T07:53:41.576Z</time>
      </trkpt>
      <trkpt lat="47.650522" lon="7.992647">
        <ele>869.828816</ele>
        <time>2021-11-16T07:53:43.104Z</time>
      </trkpt>
      <trkpt lat="47.650491" lon="7.992757">
        <ele>869.381162</ele>
        <time>2021-11-16T07:53:43.831Z</time>
      </trkpt>
      <trkpt lat="47.650314" lon="7.993121">
        <ele>867.695767</ele>
        <time>2021-11-16T07:53:46.648Z</time>
      </trkpt>
      <trkpt lat="47.650186" lon="7.993384">
        <ele>866.477653</ele>
        <time>2021-11-16T07:53:48.727Z</time>
      </trkpt>
      <trkpt lat="47.649934" lon="7.993901">
        <ele>864.081862</ele>
        <time>2021-11-16T07:53:52.663Z</time>
      </trkpt>
      <trkpt lat="47.649717" lon="7.994345">
        <ele>862.292840</ele>
        <time>2021-11-16T07:53:56.069Z</time>
      </trkpt>
      <trkpt lat="47.649609" lon="7.994509">
        <ele>861.715408</ele>
        <time>2021-11-16T07:53:57.475Z</time>
      </trkpt>
      <trkpt lat="47.649526" lon="7.994608">
        <ele>861.317463</ele>
        <time>2021-11-16T07:53:58.484Z</time>
      </trkpt>
      <trkpt lat="47.649427" lon="7.994686">
        <ele>860.898568</ele>
        <time>2021-11-16T07:53:59.584Z</time>
      </trkpt>
      <trkpt lat="47.649113" lon="7.994889">
        <ele>859.618538</ele>
        <time>2021-11-16T07:54:02.928Z</time>
      </trkpt>
      <trkpt lat="47.649038" lon="7.995009">
        <ele>859.206398</ele>
        <time>2021-11-16T07:54:04.004Z</time>
      </trkpt>
      <trkpt lat="47.649001" lon="7.995162">
        <ele>858.797105</ele>
        <time>2021-11-16T07:54:05.063Z</time>
      </trkpt>
      <trkpt lat="47.649052" lon="7.996133">
        <ele>856.344895</ele>
        <time>2021-11-16T07:54:11.963Z</time>
      </trkpt>
      <trkpt lat="47.649036" lon="7.996383">
        <ele>856.000322</ele>
        <time>2021-11-16T07:54:13.883Z</time>
      </trkpt>
      <trkpt lat="47.649000" lon="7.996557">
        <ele>855.864858</ele>
        <time>2021-11-16T07:54:15.322Z</time>
      </trkpt>
      <trkpt lat="47.648943" lon="7.996727">
        <ele>855.723536</ele>
        <time>2021-11-16T07:54:16.697Z</time>
      </trkpt>
      <trkpt lat="47.648540" lon="7.997501">
        <ele>854.995512</ele>
        <time>2021-11-16T07:54:25.817Z</time>
      </trkpt>
      <trkpt lat="47.648430" lon="7.997629">
        <ele>854.841104</ele>
        <time>2021-11-16T07:54:27.463Z</time>
      </trkpt>
      <trkpt lat="47.648402" lon="7.997659">
        <ele>854.802955</ele>
        <time>2021-11-16T07:54:28.606Z</time>
      </trkpt>
      <trkpt lat="47.647654" lon="7.997949">
        <ele>853.663106</ele>
        <time>2021-11-16T07:54:38.065Z</time>
      </trkpt>
      <trkpt lat="47.647486" lon="7.997973">
        <ele>853.188841</ele>
        <time>2021-11-16T07:54:39.774Z</time>
      </trkpt>
      <trkpt lat="47.647314" lon="7.997912">
        <ele>852.691912</ele>
        <time>2021-11-16T07:54:41.971Z</time>
      </trkpt>
      <trkpt lat="47.647123" lon="7.997773">
        <ele>852.094161</ele>
        <time>2021-11-16T07:54:44.079Z</time>
      </trkpt>
      <trkpt lat="47.646998" lon="7.997715">
        <ele>851.726146</ele>
        <time>2021-11-16T07:54:45.737Z</time>
      </trkpt>
      <trkpt lat="47.646802" lon="7.997752">
        <ele>851.170945</ele>
        <time>2021-11-16T07:54:47.677Z</time>
      </trkpt>
      <trkpt lat="47.646626" lon="7.997988">
        <ele>850.504460</ele>
        <time>2021-11-16T07:54:50.135Z</time>
      </trkpt>
      <trkpt lat="47.646428" lon="7.998315">
        <ele>849.672120</ele>
        <time>2021-11-16T07:54:53.060Z</time>
      </trkpt>
      <trkpt lat="47.646322" lon="7.998514">
        <ele>849.191860</ele>
        <time>2021-11-16T07:54:54.670Z</time>
      </trkpt>
      <trkpt lat="47.646124" lon="7.999072">
        <ele>847.757292</ele>
        <time>2021-11-16T07:54:58.764Z</time>
      </trkpt>
      <trkpt lat="47.645900" lon="8.000202">
        <ele>845.031374</ele>
        <time>2021-11-16T07:55:06.788Z</time>
      </trkpt>
      <trkpt lat="47.645825" lon="8.000415">
        <ele>844.475179</ele>
        <time>2021-11-16T07:55:08.447Z</time>
      </trkpt>
      <trkpt lat="47.645740" lon="8.000610">
        <ele>843.937685</ele>
        <time>2021-11-16T07:55:10.162Z</time>
      </trkpt>
      <trkpt lat="47.645398" lon="8.001143">
        <ele>841.849426</ele>
        <time>2021-11-16T07:55:15.389Z</time>
      </trkpt>
      <trkpt lat="47.644473" lon="8.002508">
        <ele>834.784184</ele>
        <time>2021-11-16T07:55:27.617Z</time>
      </trkpt>
      <trkpt lat="47.644444" lon="8.002552">
        <ele>834.559555</ele>
        <time>2021-11-16T07:55:27.983Z</time>
      </trkpt>
      <trkpt lat="47.644240" lon="8.002748">
        <ele>833.243260</ele>
        <time>2021-11-16T07:55:30.190Z</time>
      </trkpt>
      <trkpt lat="47.644119" lon="8.002821">
        <ele>832.117752</ele>
        <time>2021-11-16T07:55:31.370Z</time>
      </trkpt>
      <trkpt lat="47.644033" lon="8.002850">
        <ele>831.319524</ele>
        <time>2021-11-16T07:55:32.106Z</time>
      </trkpt>
      <trkpt lat="47.643341" lon="8.002817">
        <ele>825.052946</ele>
        <time>2021-11-16T07:55:38.111Z</time>
      </trkpt>
      <trkpt lat="47.643241" lon="8.002879">
        <ele>824.072045</ele>
        <time>2021-11-16T07:55:39.028Z</time>
      </trkpt>
      <trkpt lat="47.643046" lon="8.003223">
        <ele>821.330573</ele>
        <time>2021-11-16T07:55:41.627Z</time>
      </trkpt>
      <trkpt lat="47.643066" lon="8.003659">
        <ele>818.665629</ele>
        <time>2021-11-16T07:55:44.219Z</time>
      </trkpt>
      <trkpt lat="47.643093" lon="8.003754">
        <ele>818.036872</ele>
        <time>2021-11-16T07:55:44.793Z</time>
      </trkpt>
      <trkpt lat="47.643178" lon="8.003944">
        <ele>816.702409</ele>
        <time>2021-11-16T07:55:46.146Z</time>
      </trkpt>
      <trkpt lat="47.643447" lon="8.004400">
        <ele>813.899976</ele>
        <time>2021-11-16T07:55:49.787Z</time>
      </trkpt>
      <trkpt lat="47.643726" lon="8.005069">
        <ele>810.262027</ele>
        <time>2021-11-16T07:55:54.494Z</time>
      </trkpt>
      <trkpt lat="47.644186" lon="8.005517">
        <ele>806.486204</ele>
        <time>2021-11-16T07:55:59.482Z</time>
      </trkpt>
      <trkpt lat="47.644332" lon="8.006091">
        <ele>804.133356</ele>
        <time>2021-11-16T07:56:03.458Z</time>
      </trkpt>
      <trkpt lat="47.644406" lon="8.006203">
        <ele>803.804268</ele>
        <time>2021-11-16T07:56:04.473Z</time>
      </trkpt>
      <trkpt lat="47.644496" lon="8.006280">
        <ele>803.480806</ele>
        <time>2021-11-16T07:56:05.467Z</time>
      </trkpt>
      <trkpt lat="47.644976" lon="8.006338">
        <ele>801.981246</ele>
        <time>2021-11-16T07:56:10.298Z</time>
      </trkpt>
      <trkpt lat="47.645050" lon="8.006418">
        <ele>801.696186</ele>
        <time>2021-11-16T07:56:11.204Z</time>
      </trkpt>
      <trkpt lat="47.645066" lon="8.006638">
        <ele>801.231984</ele>
        <time>2021-11-16T07:56:12.704Z</time>
      </trkpt>
      <trkpt lat="47.645009" lon="8.006748">
        <ele>800.940863</ele>
        <time>2021-11-16T07:56:13.737Z</time>
      </trkpt>
      <trkpt lat="47.644813" lon="8.006998">
        <ele>800.136175</ele>
        <time>2021-11-16T07:56:16.398Z</time>
      </trkpt>
      <trkpt lat="47.644652" lon="8.006827">
        <ele>799.519727</ele>
        <time>2021-11-16T07:56:18.620Z</time>
      </trkpt>
      <trkpt lat="47.644119" lon="8.006394">
        <ele>799.147320</ele>
        <time>2021-11-16T07:56:25.876Z</time>
      </trkpt>
      <trkpt lat="47.643978" lon="8.006145">
        <ele>799.258295</ele>
        <time>2021-11-16T07:56:28.612Z</time>
      </trkpt>
      <trkpt lat="47.643811" lon="8.005674">
        <ele>799.439885</ele>
        <time>2021-11-16T07:56:33.694Z</time>
      </trkpt>
      <trkpt lat="47.643684" lon="8.005510">
        <ele>799.525131</ele>
        <time>2021-11-16T07:56:37.714Z</time>
      </trkpt>
      <trkpt lat="47.642796" lon="8.004845">
        <ele>800.266073</ele>
        <time>2021-11-16T07:57:01.864Z</time>
      </trkpt>
      <trkpt lat="47.642427" lon="8.004770">
        <ele>800.698918</ele>
        <time>2021-11-16T07:57:09.905Z</time>
      </trkpt>
      <trkpt lat="47.642337" lon="8.004796">
        <ele>800.805477</ele>
        <time>2021-11-16T07:57:12.875Z</time>
      </trkpt>
      <trkpt lat="47.642209" lon="8.004861">
        <ele>800.962701</ele>
        <time>2021-11-16T07:57:14.741Z</time>
      </trkpt>
      <trkpt lat="47.641961" lon="8.005163">
        <ele>801.335515</ele>
        <time>2021-11-16T07:57:20.625Z</time>
      </trkpt>
      <trkpt lat="47.641834" lon="8.005484">
        <ele>801.626999</ele>
        <time>2021-11-16T07:57:25.904Z</time>
      </trkpt>
      <trkpt lat="47.641804" lon="8.005576">
        <ele>801.707032</ele>
        <time>2021-11-16T07:57:26.598Z</time>
      </trkpt>
      <trkpt lat="47.641616" lon="8.005980">
        <ele>801.563372</ele>
        <time>2021-11-16T07:57:32.039Z</time>
      </trkpt>
      <trkpt lat="47.641404" lon="8.006152">
        <ele>800.890918</ele>
        <time>2021-11-16T07:57:35.032Z</time>
      </trkpt>
      <trkpt lat="47.640890" lon="8.006404">
        <ele>799.384292</ele>
        <time>2021-11-16T07:57:40.912Z</time>
      </trkpt>
      <trkpt lat="47.640257" lon="8.007048">
        <ele>797.248300</ele>
        <time>2021-11-16T07:57:48.261Z</time>
      </trkpt>
      <trkpt lat="47.640044" lon="8.007144">
        <ele>796.603203</ele>
        <time>2021-11-16T07:57:50.372Z</time>
      </trkpt>
      <trkpt lat="47.639834" lon="8.007071">
        <ele>795.952002</ele>
        <time>2021-11-16T07:57:52.496Z</time>
      </trkpt>
      <trkpt lat="47.639742" lon="8.006994">
        <ele>795.633108</ele>
        <time>2021-11-16T07:57:53.450Z</time>
      </trkpt>
      <trkpt lat="47.639631" lon="8.006838">
        <ele>795.171554</ele>
        <time>2021-11-16T07:57:54.873Z</time>
      </trkpt>
      <trkpt lat="47.639324" lon="8.006323">
        <ele>793.772695</ele>
        <time>2021-11-16T07:58:00.307Z</time>
      </trkpt>
      <trkpt lat="47.639248" lon="8.006245">
        <ele>793.493710</ele>
        <time>2021-11-16T07:58:01.187Z</time>
      </trkpt>
      <trkpt lat="47.639158" lon="8.006154">
        <ele>793.164909</ele>
        <time>2021-11-16T07:58:02.257Z</time>
      </trkpt>
      <trkpt lat="47.638830" lon="8.006018">
        <ele>792.136675</ele>
        <time>2021-11-16T07:58:06.114Z</time>
      </trkpt>
      <trkpt lat="47.638494" lon="8.006004">
        <ele>791.131045</ele>
        <time>2021-11-16T07:58:09.729Z</time>
      </trkpt>
      <trkpt lat="47.638358" lon="8.005969">
        <ele>790.724496</ele>
        <time>2021-11-16T07:58:11.573Z</time>
      </trkpt>
      <trkpt lat="47.638330" lon="8.006072">
        <ele>790.504072</ele>
        <time>2021-11-16T07:58:12.419Z</time>
      </trkpt>
      <trkpt lat="47.638163" lon="8.006295">
        <ele>789.842398</ele>
        <time>2021-11-16T07:58:14.672Z</time>
      </trkpt>
      <trkpt lat="47.637860" lon="8.006468">
        <ele>788.886183</ele>
        <time>2021-11-16T07:58:17.922Z</time>
      </trkpt>
      <trkpt lat="47.637778" lon="8.006443">
        <ele>788.639619</ele>
        <time>2021-11-16T07:58:20.534Z</time>
      </trkpt>
      <trkpt lat="47.637715" lon="8.006379">
        <ele>788.414751</ele>
        <time>2021-11-16T07:58:21.276Z</time>
      </trkpt>
      <trkpt lat="47.637637" lon="8.006163">
        <ele>787.928388</ele>
        <time>2021-11-16T07:58:22.958Z</time>
      </trkpt>
      <trkpt lat="47.637657" lon="8.005187">
        <ele>785.639659</ele>
        <time>2021-11-16T07:58:29.676Z</time>
      </trkpt>
      <trkpt lat="47.637526" lon="8.004738">
        <ele>783.055185</ele>
        <time>2021-11-16T07:58:32.685Z</time>
      </trkpt>
      <trkpt lat="47.637407" lon="8.004524">
        <ele>781.589580</ele>
        <time>2021-11-16T07:58:34.440Z</time>
      </trkpt>
      <trkpt lat="47.637259" lon="8.004315">
        <ele>779.988075</ele>
        <time>2021-11-16T07:58:36.204Z</time>
      </trkpt>
      <trkpt lat="47.636935" lon="8.004032">
        <ele>777.040932</ele>
        <time>2021-11-16T07:58:39.471Z</time>
      </trkpt>
      <trkpt lat="47.636434" lon="8.003854">
        <ele>773.002533</ele>
        <time>2021-11-16T07:58:43.921Z</time>
      </trkpt>
      <trkpt lat="47.635842" lon="8.003825">
        <ele>768.007680</ele>
        <time>2021-11-16T07:58:49.049Z</time>
      </trkpt>
      <trkpt lat="47.635569" lon="8.003670">
        <ele>765.501082</ele>
        <time>2021-11-16T07:58:51.593Z</time>
      </trkpt>
      <trkpt lat="47.635313" lon="8.003256">
        <ele>762.254131</ele>
        <time>2021-11-16T07:58:54.905Z</time>
      </trkpt>
      <trkpt lat="47.635161" lon="8.002888">
        <ele>759.759911</ele>
        <time>2021-11-16T07:58:57.470Z</time>
      </trkpt>
      <trkpt lat="47.634551" lon="8.001066">
        <ele>749.391448</ele>
        <time>2021-11-16T07:59:09.701Z</time>
      </trkpt>
      <trkpt lat="47.634251" lon="8.000831">
        <ele>746.947909</ele>
        <time>2021-11-16T07:59:12.764Z</time>
      </trkpt>
      <trkpt lat="47.634175" lon="8.000631">
        <ele>745.833400</ele>
        <time>2021-11-16T07:59:14.151Z</time>
      </trkpt>
      <trkpt lat="47.634130" lon="8.000444">
        <ele>744.869569</ele>
        <time>2021-11-16T07:59:15.380Z</time>
      </trkpt>
      <trkpt lat="47.634060" lon="8.000159">
        <ele>743.418964</ele>
        <time>2021-11-16T07:59:17.194Z</time>
      </trkpt>
      <trkpt lat="47.633948" lon="7.999762">
        <ele>741.470288</ele>
        <time>2021-11-16T07:59:19.807Z</time>
      </trkpt>
      <trkpt lat="47.633831" lon="7.999600">
        <ele>740.395109</ele>
        <time>2021-11-16T07:59:21.254Z</time>
      </trkpt>
      <trkpt lat="47.633241" lon="7.999285">
        <ele>736.182110</ele>
        <time>2021-11-16T07:59:26.891Z</time>
      </trkpt>
      <trkpt lat="47.632968" lon="7.999063">
        <ele>734.090454</ele>
        <time>2021-11-16T07:59:29.690Z</time>
      </trkpt>
      <trkpt lat="47.632592" lon="7.998590">
        <ele>731.045854</ele>
        <time>2021-11-16T07:59:34.177Z</time>
      </trkpt>
      <trkpt lat="47.632349" lon="7.997893">
        <ele>728.600055</ele>
        <time>2021-11-16T07:59:39.064Z</time>
      </trkpt>
      <trkpt lat="47.632072" lon="7.996843">
        <ele>725.085739</ele>
        <time>2021-11-16T07:59:46.334Z</time>
      </trkpt>
      <trkpt lat="47.631813" lon="7.996192">
        <ele>723.089506</ele>
        <time>2021-11-16T07:59:51.589Z</time>
      </trkpt>
      <trkpt lat="47.631568" lon="7.995835">
        <ele>722.473133</ele>
        <time>2021-11-16T07:59:55.295Z</time>
      </trkpt>
      <trkpt lat="47.631419" lon="7.995733">
        <ele>722.178579</ele>
        <time>2021-11-16T07:59:57.112Z</time>
      </trkpt>
      <trkpt lat="47.631188" lon="7.995698">
        <ele>721.761764</ele>
        <time>2021-11-16T07:59:59.700Z</time>
      </trkpt>
      <trkpt lat="47.630843" lon="7.995806">
        <ele>721.128836</ele>
        <time>2021-11-16T08:00:03.770Z</time>
      </trkpt>
      <trkpt lat="47.630344" lon="7.996286">
        <ele>720.064100</ele>
        <time>2021-11-16T08:00:10.957Z</time>
      </trkpt>
      <trkpt lat="47.629600" lon="7.996725">
        <ele>718.768651</ele>
        <time>2021-11-16T08:00:20.773Z</time>
      </trkpt>
      <trkpt lat="47.629442" lon="7.997077">
        <ele>718.307495</ele>
        <time>2021-11-16T08:00:24.013Z</time>
      </trkpt>
      <trkpt lat="47.629201" lon="7.998016">
        <ele>717.211883</ele>
        <time>2021-11-16T08:00:31.291Z</time>
      </trkpt>
      <trkpt lat="47.629044" lon="7.998403">
        <ele>715.924511</ele>
        <time>2021-11-16T08:00:34.531Z</time>
      </trkpt>
      <trkpt lat="47.628812" lon="7.998675">
        <ele>714.618864</ele>
        <time>2021-11-16T08:00:37.775Z</time>
      </trkpt>
      <trkpt lat="47.628199" lon="7.999047">
        <ele>711.694373</ele>
        <time>2021-11-16T08:00:44.423Z</time>
      </trkpt>
      <trkpt lat="47.627776" lon="7.999590">
        <ele>709.213695</ele>
        <time>2021-11-16T08:00:49.440Z</time>
      </trkpt>
      <trkpt lat="47.627554" lon="8.000118">
        <ele>705.707203</ele>
        <time>2021-11-16T08:00:53.091Z</time>
      </trkpt>
      <trkpt lat="47.627485" lon="8.000267">
        <ele>704.688572</ele>
        <time>2021-11-16T08:00:54.232Z</time>
      </trkpt>
      <trkpt lat="47.627356" lon="8.000607">
        <ele>702.490120</ele>
        <time>2021-11-16T08:00:56.488Z</time>
      </trkpt>
      <trkpt lat="47.627072" lon="8.001170">
        <ele>698.527704</ele>
        <time>2021-11-16T08:01:00.709Z</time>
      </trkpt>
      <trkpt lat="47.626873" lon="8.001471">
        <ele>696.151905</ele>
        <time>2021-11-16T08:01:03.155Z</time>
      </trkpt>
      <trkpt lat="47.626505" lon="8.002023">
        <ele>692.754203</ele>
        <time>2021-11-16T08:01:07.724Z</time>
      </trkpt>
      <trkpt lat="47.626301" lon="8.002302">
        <ele>691.370461</ele>
        <time>2021-11-16T08:01:10.145Z</time>
      </trkpt>
      <trkpt lat="47.626250" lon="8.002373">
        <ele>691.021664</ele>
        <time>2021-11-16T08:01:10.778Z</time>
      </trkpt>
      <trkpt lat="47.625915" lon="8.002831">
        <ele>688.749706</ele>
        <time>2021-11-16T08:01:15.018Z</time>
      </trkpt>
      <trkpt lat="47.625865" lon="8.002902">
        <ele>688.404528</ele>
        <time>2021-11-16T08:01:15.650Z</time>
      </trkpt>
      <trkpt lat="47.625803" lon="8.002992">
        <ele>687.971925</ele>
        <time>2021-11-16T08:01:16.531Z</time>
      </trkpt>
      <trkpt lat="47.625706" lon="8.003196">
        <ele>687.132709</ele>
        <time>2021-11-16T08:01:18.684Z</time>
      </trkpt>
      <trkpt lat="47.625654" lon="8.003373">
        <ele>686.483664</ele>
        <time>2021-11-16T08:01:20.297Z</time>
      </trkpt>
      <trkpt lat="47.625607" lon="8.003576">
        <ele>685.762148</ele>
        <time>2021-11-16T08:01:22.162Z</time>
      </trkpt>
      <trkpt lat="47.625525" lon="8.004123">
        <ele>685.168691</ele>
        <time>2021-11-16T08:01:27.119Z</time>
      </trkpt>
      <trkpt lat="47.625506" lon="8.004231">
        <ele>685.152098</ele>
        <time>2021-11-16T08:01:28.350Z</time>
      </trkpt>
      <trkpt lat="47.625461" lon="8.004337">
        <ele>685.133473</ele>
        <time>2021-11-16T08:01:29.394Z</time>
      </trkpt>
      <trkpt lat="47.625393" lon="8.004515">
        <ele>685.103056</ele>
        <time>2021-11-16T08:01:31.179Z</time>
      </trkpt>
      <trkpt lat="47.625325" lon="8.004642">
        <ele>685.078942</ele>
        <time>2021-11-16T08:01:32.840Z</time>
      </trkpt>
      <trkpt lat="47.625294" lon="8.004699">
        <ele>685.068053</ele>
        <time>2021-11-16T08:01:33.840Z</time>
      </trkpt>
      <trkpt lat="47.625244" lon="8.004783">
        <ele>685.051392</ele>
        <time>2021-11-16T08:01:34.705Z</time>
      </trkpt>
      <trkpt lat="47.625170" lon="8.004881">
        <ele>685.029513</ele>
        <time>2021-11-16T08:01:36.012Z</time>
      </trkpt>
      <trkpt lat="47.625082" lon="8.004976">
        <ele>685.005508</ele>
        <time>2021-11-16T08:01:37.666Z</time>
      </trkpt>
      <trkpt lat="47.624929" lon="8.005099">
        <ele>684.967123</ele>
        <time>2021-11-16T08:01:40.205Z</time>
      </trkpt>
      <trkpt lat="47.624772" lon="8.005176">
        <ele>684.930649</ele>
        <time>2021-11-16T08:01:42.685Z</time>
      </trkpt>
      <trkpt lat="47.624714" lon="8.005192">
        <ele>684.917637</ele>
        <time>2021-11-16T08:01:43.613Z</time>
      </trkpt>
      <trkpt lat="47.624476" lon="8.005261">
        <ele>684.864146</ele>
        <time>2021-11-16T08:01:47.555Z</time>
      </trkpt>
      <trkpt lat="47.624181" lon="8.005412">
        <ele>684.776526</ele>
        <time>2021-11-16T08:01:52.680Z</time>
      </trkpt>
      <trkpt lat="47.623762" lon="8.005934">
        <ele>684.593452</ele>
        <time>2021-11-16T08:02:01.193Z</time>
      </trkpt>
      <trkpt lat="47.623496" lon="8.006267">
        <ele>684.476994</ele>
        <time>2021-11-16T08:02:05.605Z</time>
      </trkpt>
      <trkpt lat="47.623482" lon="8.006277">
        <ele>684.471795</ele>
        <time>2021-11-16T08:02:05.765Z</time>
      </trkpt>
      <trkpt lat="47.623316" lon="8.006410">
        <ele>684.408667</ele>
        <time>2021-11-16T08:02:08.079Z</time>
      </trkpt>
      <trkpt lat="47.623146" lon="8.006521">
        <ele>684.346518</ele>
        <time>2021-11-16T08:02:10.351Z</time>
      </trkpt>
      <trkpt lat="47.623040" lon="8.006578">
        <ele>684.308791</ele>
        <time>2021-11-16T08:02:11.912Z</time>
      </trkpt>
      <trkpt lat="47.622836" lon="8.006672">
        <ele>684.237313</ele>
        <time>2021-11-16T08:02:14.624Z</time>
      </trkpt>
      <trkpt lat="47.621752" lon="8.006948">
        <ele>684.221258</ele>
        <time>2021-11-16T08:02:30.217Z</time>
      </trkpt>
      <trkpt lat="47.621433" lon="8.007225">
        <ele>684.218329</ele>
        <time>2021-11-16T08:02:35.636Z</time>
      </trkpt>
      <trkpt lat="47.621359" lon="8.007338">
        <ele>684.217488</ele>
        <time>2021-11-16T08:02:37.369Z</time>
      </trkpt>
      <trkpt lat="47.621308" lon="8.007429">
        <ele>684.216856</ele>
        <time>2021-11-16T08:02:38.736Z</time>
      </trkpt>
      <trkpt lat="47.621254" lon="8.007569">
        <ele>684.215994</ele>
        <time>2021-11-16T08:02:40.368Z</time>
      </trkpt>
      <trkpt lat="47.621140" lon="8.007875">
        <ele>684.586901</ele>
        <time>2021-11-16T08:02:44.748Z</time>
      </trkpt>
      <trkpt lat="47.621081" lon="8.008034">
        <ele>684.841125</ele>
        <time>2021-11-16T08:02:46.659Z</time>
      </trkpt>
      <trkpt lat="47.620954" lon="8.008357">
        <ele>685.364889</ele>
        <time>2021-11-16T08:02:51.701Z</time>
      </trkpt>
      <trkpt lat="47.620862" lon="8.008648">
        <ele>685.815092</ele>
        <time>2021-11-16T08:02:55.943Z</time>
      </trkpt>
      <trkpt lat="47.620734" lon="8.009059">
        <ele>686.449248</ele>
        <time>2021-11-16T08:03:03.474Z</time>
      </trkpt>
      <trkpt lat="47.620699" lon="8.009176">
        <ele>686.628541</ele>
        <time>2021-11-16T08:03:05.641Z</time>
      </trkpt>
      <trkpt lat="47.620681" lon="8.009249">
        <ele>686.737417</ele>
        <time>2021-11-16T08:03:07.142Z</time>
      </trkpt>
      <trkpt lat="47.620672" lon="8.009286">
        <ele>686.792514</ele>
        <time>2021-11-16T08:03:08.049Z</time>
      </trkpt>
      <trkpt lat="47.620573" lon="8.009731">
        <ele>687.448888</ele>
        <time>2021-11-16T08:03:16.195Z</time>
      </trkpt>
      <trkpt lat="47.620556" lon="8.009809">
        <ele>687.563710</ele>
        <time>2021-11-16T08:03:18.102Z</time>
      </trkpt>
      <trkpt lat="47.620507" lon="8.010219">
        <ele>688.320603</ele>
        <time>2021-11-16T08:03:25.565Z</time>
      </trkpt>
      <trkpt lat="47.620496" lon="8.010474">
        <ele>688.999299</ele>
        <time>2021-11-16T08:03:30.800Z</time>
      </trkpt>
      <trkpt lat="47.620490" lon="8.010580">
        <ele>689.281839</ele>
        <time>2021-11-16T08:03:32.869Z</time>
      </trkpt>
      <trkpt lat="47.620487" lon="8.010965">
        <ele>690.304514</ele>
        <time>2021-11-16T08:03:40.847Z</time>
      </trkpt>
      <trkpt lat="47.620492" lon="8.011288">
        <ele>691.162668</ele>
        <time>2021-11-16T08:03:47.396Z</time>
      </trkpt>
      <trkpt lat="47.620555" lon="8.012850">
        <ele>695.166769</ele>
        <time>2021-11-16T08:04:21.940Z</time>
      </trkpt>
      <trkpt lat="47.620546" lon="8.013967">
        <ele>696.509637</ele>
        <time>2021-11-16T08:04:42.626Z</time>
      </trkpt>
      <trkpt lat="47.620496" lon="8.014586">
        <ele>697.259076</ele>
        <time>2021-11-16T08:04:51.769Z</time>
      </trkpt>
      <trkpt lat="47.620364" lon="8.015366">
        <ele>698.225836</ele>
        <time>2021-11-16T08:04:59.759Z</time>
      </trkpt>
      <trkpt lat="47.620283" lon="8.015578">
        <ele>697.857141</ele>
        <time>2021-11-16T08:05:01.707Z</time>
      </trkpt>
      <trkpt lat="47.620186" lon="8.015747">
        <ele>697.470116</ele>
        <time>2021-11-16T08:05:03.460Z</time>
      </trkpt>
      <trkpt lat="47.620051" lon="8.015912">
        <ele>697.017657</ele>
        <time>2021-11-16T08:05:05.356Z</time>
      </trkpt>
      <trkpt lat="47.619868" lon="8.016024">
        <ele>696.505578</ele>
        <time>2021-11-16T08:05:07.499Z</time>
      </trkpt>
      <trkpt lat="47.619688" lon="8.016135">
        <ele>696.001336</ele>
        <time>2021-11-16T08:05:09.522Z</time>
      </trkpt>
      <trkpt lat="47.619394" lon="8.016117">
        <ele>695.240177</ele>
        <time>2021-11-16T08:05:12.557Z</time>
      </trkpt>
      <trkpt lat="47.619261" lon="8.016064">
        <ele>694.883940</ele>
        <time>2021-11-16T08:05:13.931Z</time>
      </trkpt>
      <trkpt lat="47.619151" lon="8.015995">
        <ele>694.575005</ele>
        <time>2021-11-16T08:05:15.101Z</time>
      </trkpt>
      <trkpt lat="47.618468" lon="8.014944">
        <ele>691.857847</ele>
        <time>2021-11-16T08:05:24.717Z</time>
      </trkpt>
      <trkpt lat="47.617879" lon="8.014526">
        <ele>689.983858</ele>
        <time>2021-11-16T08:05:31.402Z</time>
      </trkpt>
      <trkpt lat="47.617609" lon="8.014390">
        <ele>689.165467</ele>
        <time>2021-11-16T08:05:34.558Z</time>
      </trkpt>
      <trkpt lat="47.617593" lon="8.014382">
        <ele>689.117007</ele>
        <time>2021-11-16T08:05:34.782Z</time>
      </trkpt>
      <trkpt lat="47.617298" lon="8.014271">
        <ele>688.340162</ele>
        <time>2021-11-16T08:05:38.240Z</time>
      </trkpt>
      <trkpt lat="47.617120" lon="8.014238">
        <ele>688.086941</ele>
        <time>2021-11-16T08:05:40.486Z</time>
      </trkpt>
      <trkpt lat="47.616676" lon="8.014297">
        <ele>687.457678</ele>
        <time>2021-11-16T08:05:45.649Z</time>
      </trkpt>
      <trkpt lat="47.616313" lon="8.014507">
        <ele>686.907680</ele>
        <time>2021-11-16T08:05:50.246Z</time>
      </trkpt>
      <trkpt lat="47.615823" lon="8.015017">
        <ele>686.062729</ele>
        <time>2021-11-16T08:05:57.753Z</time>
      </trkpt>
      <trkpt lat="47.614952" lon="8.016327">
        <ele>682.485187</ele>
        <time>2021-11-16T08:06:11.136Z</time>
      </trkpt>
      <trkpt lat="47.614507" lon="8.016749">
        <ele>680.879266</ele>
        <time>2021-11-16T08:06:16.257Z</time>
      </trkpt>
      <trkpt lat="47.614450" lon="8.016786">
        <ele>680.690084</ele>
        <time>2021-11-16T08:06:16.839Z</time>
      </trkpt>
      <trkpt lat="47.614276" lon="8.016874">
        <ele>679.954071</ele>
        <time>2021-11-16T08:06:18.567Z</time>
      </trkpt>
      <trkpt lat="47.613763" lon="8.016931">
        <ele>677.450000</ele>
        <time>2021-11-16T08:06:23.357Z</time>
      </trkpt>
      <trkpt lat="47.613550" lon="8.016884">
        <ele>676.401794</ele>
        <time>2021-11-16T08:06:25.323Z</time>
      </trkpt>
      <trkpt lat="47.613333" lon="8.016808">
        <ele>675.316485</ele>
        <time>2021-11-16T08:06:27.338Z</time>
      </trkpt>
      <trkpt lat="47.611716" lon="8.016114">
        <ele>671.551559</ele>
        <time>2021-11-16T08:06:43.883Z</time>
      </trkpt>
      <trkpt lat="47.611516" lon="8.016031">
        <ele>671.525076</ele>
        <time>2021-11-16T08:06:48.716Z</time>
      </trkpt>
      <trkpt lat="47.611129" lon="8.015861">
        <ele>671.473610</ele>
        <time>2021-11-16T08:06:59.973Z</time>
      </trkpt>
      <trkpt lat="47.610254" lon="8.015477">
        <ele>674.744070</ele>
        <time>2021-11-16T08:07:33.054Z</time>
      </trkpt>
      <trkpt lat="47.610061" lon="8.015390">
        <ele>675.754284</ele>
        <time>2021-11-16T08:07:40.762Z</time>
      </trkpt>
      <trkpt lat="47.609987" lon="8.015356">
        <ele>676.142257</ele>
        <time>2021-11-16T08:07:44.589Z</time>
      </trkpt>
      <trkpt lat="47.609541" lon="8.015211">
        <ele>678.428898</ele>
        <time>2021-11-16T08:08:02.747Z</time>
      </trkpt>
      <trkpt lat="47.609093" lon="8.015216">
        <ele>680.466345</ele>
        <time>2021-11-16T08:08:17.167Z</time>
      </trkpt>
      <trkpt lat="47.608990" lon="8.015226">
        <ele>680.506122</ele>
        <time>2021-11-16T08:08:20.023Z</time>
      </trkpt>
      <trkpt lat="47.608546" lon="8.015408">
        <ele>680.683632</ele>
        <time>2021-11-16T08:08:29.469Z</time>
      </trkpt>
      <trkpt lat="47.607997" lon="8.015736">
        <ele>680.911709</ele>
        <time>2021-11-16T08:08:37.474Z</time>
      </trkpt>
      <trkpt lat="47.607936" lon="8.015773">
        <ele>680.937105</ele>
        <time>2021-11-16T08:08:38.162Z</time>
      </trkpt>
      <trkpt lat="47.607499" lon="8.015932">
        <ele>681.110497</ele>
        <time>2021-11-16T08:08:43.545Z</time>
      </trkpt>
      <trkpt lat="47.605788" lon="8.016160">
        <ele>678.714495</ele>
        <time>2021-11-16T08:09:02.832Z</time>
      </trkpt>
      <trkpt lat="47.605617" lon="8.016217">
        <ele>678.467408</ele>
        <time>2021-11-16T08:09:04.935Z</time>
      </trkpt>
      <trkpt lat="47.605349" lon="8.016390">
        <ele>678.350415</ele>
        <time>2021-11-16T08:09:08.762Z</time>
      </trkpt>
      <trkpt lat="47.605303" lon="8.016420">
        <ele>678.330301</ele>
        <time>2021-11-16T08:09:09.470Z</time>
      </trkpt>
      <trkpt lat="47.604931" lon="8.016761">
        <ele>678.155255</ele>
        <time>2021-11-16T08:09:15.881Z</time>
      </trkpt>
      <trkpt lat="47.604386" lon="8.017343">
        <ele>677.886442</ele>
        <time>2021-11-16T08:09:26.045Z</time>
      </trkpt>
      <trkpt lat="47.603949" lon="8.017906">
        <ele>677.159314</ele>
        <time>2021-11-16T08:09:34.587Z</time>
      </trkpt>
      <trkpt lat="47.603564" lon="8.018549">
        <ele>675.748500</ele>
        <time>2021-11-16T08:09:40.935Z</time>
      </trkpt>
      <trkpt lat="47.603538" lon="8.018606">
        <ele>675.635596</ele>
        <time>2021-11-16T08:09:41.419Z</time>
      </trkpt>
      <trkpt lat="47.603225" lon="8.019699">
        <ele>673.687375</ele>
        <time>2021-11-16T08:09:49.500Z</time>
      </trkpt>
      <trkpt lat="47.603104" lon="8.020091">
        <ele>672.706584</ele>
        <time>2021-11-16T08:09:52.344Z</time>
      </trkpt>
      <trkpt lat="47.602662" lon="8.020843">
        <ele>669.938841</ele>
        <time>2021-11-16T08:09:58.790Z</time>
      </trkpt>
      <trkpt lat="47.602462" lon="8.021174">
        <ele>668.705739</ele>
        <time>2021-11-16T08:10:01.680Z</time>
      </trkpt>
      <trkpt lat="47.602034" lon="8.021886">
        <ele>666.059320</ele>
        <time>2021-11-16T08:10:07.999Z</time>
      </trkpt>
      <trkpt lat="47.601889" lon="8.022433">
        <ele>664.126023</ele>
        <time>2021-11-16T08:10:11.841Z</time>
      </trkpt>
      <trkpt lat="47.601526" lon="8.023755">
        <ele>659.390727</ele>
        <time>2021-11-16T08:10:21.167Z</time>
      </trkpt>
      <trkpt lat="47.601427" lon="8.024003">
        <ele>658.434639</ele>
        <time>2021-11-16T08:10:22.909Z</time>
      </trkpt>
      <trkpt lat="47.601301" lon="8.024297">
        <ele>657.278984</ele>
        <time>2021-11-16T08:10:25.045Z</time>
      </trkpt>
      <trkpt lat="47.600581" lon="8.025609">
        <ele>649.381721</ele>
        <time>2021-11-16T08:10:35.312Z</time>
      </trkpt>
      <trkpt lat="47.600550" lon="8.025678">
        <ele>648.991494</ele>
        <time>2021-11-16T08:10:35.784Z</time>
      </trkpt>
      <trkpt lat="47.600516" lon="8.025753">
        <ele>648.566153</ele>
        <time>2021-11-16T08:10:36.298Z</time>
      </trkpt>
      <trkpt lat="47.600101" lon="8.026650">
        <ele>643.517580</ele>
        <time>2021-11-16T08:10:42.920Z</time>
      </trkpt>
      <trkpt lat="47.599844" lon="8.026999">
        <ele>641.239469</ele>
        <time>2021-11-16T08:10:46.091Z</time>
      </trkpt>
      <trkpt lat="47.599613" lon="8.027185">
        <ele>639.521071</ele>
        <time>2021-11-16T08:10:48.526Z</time>
      </trkpt>
      <trkpt lat="47.599389" lon="8.027316">
        <ele>637.946917</ele>
        <time>2021-11-16T08:10:50.619Z</time>
      </trkpt>
      <trkpt lat="47.599102" lon="8.027378">
        <ele>636.050851</ele>
        <time>2021-11-16T08:10:53.327Z</time>
      </trkpt>
      <trkpt lat="47.598821" lon="8.027385">
        <ele>634.213553</ele>
        <time>2021-11-16T08:10:55.957Z</time>
      </trkpt>
      <trkpt lat="47.598472" lon="8.027302">
        <ele>631.883576</ele>
        <time>2021-11-16T08:10:59.214Z</time>
      </trkpt>
      <trkpt lat="47.598361" lon="8.027263">
        <ele>631.122064</ele>
        <time>2021-11-16T08:11:00.225Z</time>
      </trkpt>
      <trkpt lat="47.598069" lon="8.027222">
        <ele>629.164051</ele>
        <time>2021-11-16T08:11:02.898Z</time>
      </trkpt>
      <trkpt lat="47.597967" lon="8.027239">
        <ele>628.478846</ele>
        <time>2021-11-16T08:11:03.776Z</time>
      </trkpt>
      <trkpt lat="47.597667" lon="8.027380">
        <ele>626.377969</ele>
        <time>2021-11-16T08:11:06.633Z</time>
      </trkpt>
      <trkpt lat="47.597162" lon="8.027954">
        <ele>622.130403</ele>
        <time>2021-11-16T08:11:12.430Z</time>
      </trkpt>
      <trkpt lat="47.596954" lon="8.028045">
        <ele>620.687673</ele>
        <time>2021-11-16T08:11:14.348Z</time>
      </trkpt>
      <trkpt lat="47.596826" lon="8.027986">
        <ele>619.829023</ele>
        <time>2021-11-16T08:11:15.537Z</time>
      </trkpt>
      <trkpt lat="47.596702" lon="8.027901">
        <ele>618.953933</ele>
        <time>2021-11-16T08:11:16.753Z</time>
      </trkpt>
      <trkpt lat="47.596560" lon="8.027658">
        <ele>617.564932</ele>
        <time>2021-11-16T08:11:18.711Z</time>
      </trkpt>
      <trkpt lat="47.596433" lon="8.026770">
        <ele>613.643633</ele>
        <time>2021-11-16T08:11:24.323Z</time>
      </trkpt>
      <trkpt lat="47.596280" lon="8.026505">
        <ele>612.136634</ele>
        <time>2021-11-16T08:11:26.480Z</time>
      </trkpt>
      <trkpt lat="47.596214" lon="8.026449">
        <ele>611.649529</ele>
        <time>2021-11-16T08:11:27.168Z</time>
      </trkpt>
      <trkpt lat="47.596130" lon="8.026412">
        <ele>611.088198</ele>
        <time>2021-11-16T08:11:27.937Z</time>
      </trkpt>
      <trkpt lat="47.595910" lon="8.026431">
        <ele>609.676515</ele>
        <time>2021-11-16T08:11:29.968Z</time>
      </trkpt>
      <trkpt lat="47.595674" lon="8.026721">
        <ele>607.840553</ele>
        <time>2021-11-16T08:11:32.826Z</time>
      </trkpt>
      <trkpt lat="47.595230" lon="8.028319">
        <ele>600.980084</ele>
        <time>2021-11-16T08:11:43.462Z</time>
      </trkpt>
      <trkpt lat="47.594932" lon="8.029751">
        <ele>595.476692</ele>
        <time>2021-11-16T08:11:52.968Z</time>
      </trkpt>
      <trkpt lat="47.594873" lon="8.030160">
        <ele>594.018179</ele>
        <time>2021-11-16T08:11:55.638Z</time>
      </trkpt>
      <trkpt lat="47.594842" lon="8.030492">
        <ele>592.849397</ele>
        <time>2021-11-16T08:11:57.769Z</time>
      </trkpt>
      <trkpt lat="47.594838" lon="8.030933">
        <ele>591.311420</ele>
        <time>2021-11-16T08:12:00.552Z</time>
      </trkpt>
      <trkpt lat="47.594896" lon="8.031227">
        <ele>590.243227</ele>
        <time>2021-11-16T08:12:02.479Z</time>
      </trkpt>
      <trkpt lat="47.595010" lon="8.031571">
        <ele>588.845328</ele>
        <time>2021-11-16T08:12:04.891Z</time>
      </trkpt>
      <trkpt lat="47.595161" lon="8.031839">
        <ele>587.474949</ele>
        <time>2021-11-16T08:12:07.121Z</time>
      </trkpt>
      <trkpt lat="47.595259" lon="8.032045">
        <ele>586.485710</ele>
        <time>2021-11-16T08:12:08.711Z</time>
      </trkpt>
      <trkpt lat="47.595342" lon="8.032391">
        <ele>585.044669</ele>
        <time>2021-11-16T08:12:11.001Z</time>
      </trkpt>
      <trkpt lat="47.595354" lon="8.032569">
        <ele>584.342719</ele>
        <time>2021-11-16T08:12:12.122Z</time>
      </trkpt>
      <trkpt lat="47.595337" lon="8.032814">
        <ele>583.376268</ele>
        <time>2021-11-16T08:12:13.655Z</time>
      </trkpt>
      <trkpt lat="47.595292" lon="8.033047">
        <ele>582.425223</ele>
        <time>2021-11-16T08:12:15.152Z</time>
      </trkpt>
      <trkpt lat="47.595055" lon="8.033631">
        <ele>579.750660</ele>
        <time>2021-11-16T08:12:19.385Z</time>
      </trkpt>
      <trkpt lat="47.594810" lon="8.034086">
        <ele>577.213368</ele>
        <time>2021-11-16T08:12:22.913Z</time>
      </trkpt>
      <trkpt lat="47.594584" lon="8.034488">
        <ele>574.805416</ele>
        <time>2021-11-16T08:12:26.071Z</time>
      </trkpt>
      <trkpt lat="47.593897" lon="8.035570">
        <ele>567.967965</ele>
        <time>2021-11-16T08:12:35.100Z</time>
      </trkpt>
      <trkpt lat="47.593868" lon="8.035603">
        <ele>567.718569</ele>
        <time>2021-11-16T08:12:35.406Z</time>
      </trkpt>
      <trkpt lat="47.593393" lon="8.036130">
        <ele>564.050922</ele>
        <time>2021-11-16T08:12:40.814Z</time>
      </trkpt>
      <trkpt lat="47.593028" lon="8.036477">
        <ele>561.468834</ele>
        <time>2021-11-16T08:12:44.817Z</time>
      </trkpt>
      <trkpt lat="47.592676" lon="8.036726">
        <ele>559.146231</ele>
        <time>2021-11-16T08:12:48.361Z</time>
      </trkpt>
      <trkpt lat="47.592446" lon="8.036889">
        <ele>557.628098</ele>
        <time>2021-11-16T08:12:50.671Z</time>
      </trkpt>
      <trkpt lat="47.592197" lon="8.037045">
        <ele>556.018288</ele>
        <time>2021-11-16T08:12:53.231Z</time>
      </trkpt>
      <trkpt lat="47.591840" lon="8.037249">
        <ele>554.356425</ele>
        <time>2021-11-16T08:12:56.897Z</time>
      </trkpt>
      <trkpt lat="47.591489" lon="8.037361">
        <ele>552.815505</ele>
        <time>2021-11-16T08:13:00.434Z</time>
      </trkpt>
      <trkpt lat="47.591397" lon="8.037383">
        <ele>552.415554</ele>
        <time>2021-11-16T08:13:01.304Z</time>
      </trkpt>
      <trkpt lat="47.591150" lon="8.037443">
        <ele>551.341339</ele>
        <time>2021-11-16T08:13:03.741Z</time>
      </trkpt>
      <trkpt lat="47.591044" lon="8.037455">
        <ele>550.885080</ele>
        <time>2021-11-16T08:13:04.750Z</time>
      </trkpt>
      <trkpt lat="47.590476" lon="8.037474">
        <ele>548.446697</ele>
        <time>2021-11-16T08:13:10.368Z</time>
      </trkpt>
      <trkpt lat="47.590067" lon="8.037365">
        <ele>546.593185</ele>
        <time>2021-11-16T08:13:14.438Z</time>
      </trkpt>
      <trkpt lat="47.589869" lon="8.037227">
        <ele>545.612176</ele>
        <time>2021-11-16T08:13:16.583Z</time>
      </trkpt>
      <trkpt lat="47.589825" lon="8.037196">
        <ele>545.393744</ele>
        <time>2021-11-16T08:13:17.038Z</time>
      </trkpt>
      <trkpt lat="47.589772" lon="8.037159">
        <ele>545.131073</ele>
        <time>2021-11-16T08:13:17.578Z</time>
      </trkpt>
      <trkpt lat="47.589499" lon="8.036832">
        <ele>543.557434</ele>
        <time>2021-11-16T08:13:21.000Z</time>
      </trkpt>
      <trkpt lat="47.589239" lon="8.036386">
        <ele>541.774658</ele>
        <time>2021-11-16T08:13:24.831Z</time>
      </trkpt>
      <trkpt lat="47.588947" lon="8.035308">
        <ele>537.519052</ele>
        <time>2021-11-16T08:13:32.131Z</time>
      </trkpt>
      <trkpt lat="47.588642" lon="8.034658">
        <ele>534.189271</ele>
        <time>2021-11-16T08:13:37.038Z</time>
      </trkpt>
      <trkpt lat="47.588478" lon="8.034510">
        <ele>532.992230</ele>
        <time>2021-11-16T08:13:38.782Z</time>
      </trkpt>
      <trkpt lat="47.587928" lon="8.034180">
        <ele>529.292868</ele>
        <time>2021-11-16T08:13:44.117Z</time>
      </trkpt>
      <trkpt lat="47.586980" lon="8.033883">
        <ele>522.269173</ele>
        <time>2021-11-16T08:13:52.752Z</time>
      </trkpt>
      <trkpt lat="47.585583" lon="8.032905">
        <ele>511.596509</ele>
        <time>2021-11-16T08:14:06.575Z</time>
      </trkpt>
      <trkpt lat="47.585091" lon="8.032467">
        <ele>507.941261</ele>
        <time>2021-11-16T08:14:11.807Z</time>
      </trkpt>
      <trkpt lat="47.585026" lon="8.032431">
        <ele>507.499310</ele>
        <time>2021-11-16T08:14:12.424Z</time>
      </trkpt>
      <trkpt lat="47.584568" lon="8.032176">
        <ele>504.383235</ele>
        <time>2021-11-16T08:14:16.937Z</time>
      </trkpt>
      <trkpt lat="47.584000" lon="8.032100">
        <ele>502.496480</ele>
        <time>2021-11-16T08:14:22.355Z</time>
      </trkpt>
      <trkpt lat="47.583770" lon="8.032077">
        <ele>501.741593</ele>
        <time>2021-11-16T08:14:24.598Z</time>
      </trkpt>
      <trkpt lat="47.583557" lon="8.032062">
        <ele>501.043302</ele>
        <time>2021-11-16T08:14:26.738Z</time>
      </trkpt>
      <trkpt lat="47.583316" lon="8.032065">
        <ele>500.254077</ele>
        <time>2021-11-16T08:14:29.330Z</time>
      </trkpt>
      <trkpt lat="47.583028" lon="8.032087">
        <ele>499.309720</ele>
        <time>2021-11-16T08:14:32.509Z</time>
      </trkpt>
      <trkpt lat="47.582877" lon="8.032131">
        <ele>498.805784</ele>
        <time>2021-11-16T08:14:34.306Z</time>
      </trkpt>
      <trkpt lat="47.582534" lon="8.032340">
        <ele>498.394632</ele>
        <time>2021-11-16T08:14:38.722Z</time>
      </trkpt>
      <trkpt lat="47.582379" lon="8.032452">
        <ele>498.355900</ele>
        <time>2021-11-16T08:14:40.828Z</time>
      </trkpt>
      <trkpt lat="47.582305" lon="8.032518">
        <ele>498.336501</ele>
        <time>2021-11-16T08:14:41.978Z</time>
      </trkpt>
      <trkpt lat="47.582257" lon="8.032344">
        <ele>498.308018</ele>
        <time>2021-11-16T08:14:44.743Z</time>
      </trkpt>
      <trkpt lat="47.582218" lon="8.032127">
        <ele>498.273992</ele>
        <time>2021-11-16T08:14:47.985Z</time>
      </trkpt>
      <trkpt lat="47.582194" lon="8.031979">
        <ele>498.250928</ele>
        <time>2021-11-16T08:14:50.153Z</time>
      </trkpt>
      <trkpt lat="47.582207" lon="8.031849">
        <ele>498.231016</ele>
        <time>2021-11-16T08:14:52.286Z</time>
      </trkpt>
      <trkpt lat="47.581991" lon="8.031722">
        <ele>498.178820</ele>
        <time>2021-11-16T08:14:57.178Z</time>
      </trkpt>
      <trkpt lat="47.581914" lon="8.031633">
        <ele>498.156888</ele>
        <time>2021-11-16T08:14:59.553Z</time>
      </trkpt>
      <trkpt lat="47.581703" lon="8.031357">
        <ele>498.093680</ele>
        <time>2021-11-16T08:15:05.550Z</time>
      </trkpt>
      <trkpt lat="47.581603" lon="8.031197">
        <ele>498.060631</ele>
        <time>2021-11-16T08:15:08.928Z</time>
      </trkpt>
      <trkpt lat="47.581523" lon="8.031026">
        <ele>497.980294</ele>
        <time>2021-11-16T08:15:11.527Z</time>
      </trkpt>
      <trkpt lat="47.581423" lon="8.030639">
        <ele>497.769217</ele>
        <time>2021-11-16T08:15:16.993Z</time>
      </trkpt>
      <trkpt lat="47.581354" lon="8.030430">
        <ele>497.650701</ele>
        <time>2021-11-16T08:15:19.703Z</time>
      </trkpt>
      <trkpt lat="47.581171" lon="8.030156">
        <ele>497.454311</ele>
        <time>2021-11-16T08:15:24.434Z</time>
      </trkpt>
      <trkpt lat="47.580985" lon="8.029962">
        <ele>497.282590</ele>
        <time>2021-11-16T08:15:28.446Z</time>
      </trkpt>
      <trkpt lat="47.580745" lon="8.029776">
        <ele>497.078104</ele>
        <time>2021-11-16T08:15:33.014Z</time>
      </trkpt>
      <trkpt lat="47.580567" lon="8.029638">
        <ele>496.926431</ele>
        <time>2021-11-16T08:15:36.598Z</time>
      </trkpt>
      <trkpt lat="47.580537" lon="8.029599">
        <ele>496.896303</ele>
        <time>2021-11-16T08:15:37.208Z</time>
      </trkpt>
      <trkpt lat="47.580507" lon="8.029540">
        <ele>496.858671</ele>
        <time>2021-11-16T08:15:38.063Z</time>
      </trkpt>
      <trkpt lat="47.580457" lon="8.029426">
        <ele>496.789411</ele>
        <time>2021-11-16T08:15:39.626Z</time>
      </trkpt>
      <trkpt lat="47.580445" lon="8.029350">
        <ele>496.749655</ele>
        <time>2021-11-16T08:15:40.631Z</time>
      </trkpt>
      <trkpt lat="47.580435" lon="8.029225">
        <ele>496.682663</ele>
        <time>2021-11-16T08:15:42.178Z</time>
      </trkpt>
      <trkpt lat="47.580414" lon="8.028952">
        <ele>496.476838</ele>
        <time>2021-11-16T08:15:45.161Z</time>
      </trkpt>
      <trkpt lat="47.580414" lon="8.028741">
        <ele>496.318782</ele>
        <time>2021-11-16T08:15:47.690Z</time>
      </trkpt>
      <trkpt lat="47.580416" lon="8.028720">
        <ele>496.302896</ele>
        <time>2021-11-16T08:15:47.950Z</time>
      </trkpt>
      <trkpt lat="47.580504" lon="8.027848">
        <ele>495.642428</ele>
        <time>2021-11-16T08:15:57.666Z</time>
      </trkpt>
      <trkpt lat="47.580430" lon="8.027348">
        <ele>495.258979</ele>
        <time>2021-11-16T08:16:03.505Z</time>
      </trkpt>
      <trkpt lat="47.580406" lon="8.027217">
        <ele>495.157295</ele>
        <time>2021-11-16T08:16:05.242Z</time>
      </trkpt>
      <trkpt lat="47.580391" lon="8.026955">
        <ele>494.960330</ele>
        <time>2021-11-16T08:16:08.362Z</time>
      </trkpt>
      <trkpt lat="47.580386" lon="8.026802">
        <ele>494.845586</ele>
        <time>2021-11-16T08:16:10.211Z</time>
      </trkpt>
      <trkpt lat="47.580341" lon="8.025695">
        <ele>494.484974</ele>
        <time>2021-11-16T08:16:24.048Z</time>
      </trkpt>
      <trkpt lat="47.580173" lon="8.024170">
        <ele>494.128377</ele>
        <time>2021-11-16T08:16:43.273Z</time>
      </trkpt>
      <trkpt lat="47.580262" lon="8.023307">
        <ele>494.988349</ele>
        <time>2021-11-16T08:16:56.384Z</time>
      </trkpt>
      <trkpt lat="47.580380" lon="8.022562">
        <ele>496.044597</ele>
        <time>2021-11-16T08:17:09.801Z</time>
      </trkpt>
      <trkpt lat="47.580425" lon="8.022255">
        <ele>496.478220</ele>
        <time>2021-11-16T08:17:15.885Z</time>
      </trkpt>
      <trkpt lat="47.580470" lon="8.021934">
        <ele>496.930744</ele>
        <time>2021-11-16T08:17:22.442Z</time>
      </trkpt>
      <trkpt lat="47.580271" lon="8.020243">
        <ele>499.945752</ele>
        <time>2021-11-16T08:18:06.545Z</time>
      </trkpt>
      <trkpt lat="47.580484" lon="8.019833">
        <ele>500.959400</ele>
        <time>2021-11-16T08:18:17.799Z</time>
      </trkpt>
      <trkpt lat="47.580955" lon="8.019317">
        <ele>502.659998</ele>
        <time>2021-11-16T08:18:33.587Z</time>
      </trkpt>
      <trkpt lat="47.580948" lon="8.019213">
        <ele>502.864717</ele>
        <time>2021-11-16T08:18:35.232Z</time>
      </trkpt>
      <trkpt lat="47.580916" lon="8.019035">
        <ele>503.047185</ele>
        <time>2021-11-16T08:18:37.388Z</time>
      </trkpt>
      <trkpt lat="47.580830" lon="8.018918">
        <ele>503.137841</ele>
        <time>2021-11-16T08:18:41.754Z</time>
      </trkpt>
      <trkpt lat="47.580782" lon="8.018916">
        <ele>503.175136</ele>
        <time>2021-11-16T08:18:42.932Z</time>
      </trkpt>
      <trkpt lat="47.580628" lon="8.018939">
        <ele>503.295348</ele>
        <time>2021-11-16T08:18:46.393Z</time>
      </trkpt>
      <trkpt lat="47.580628" lon="8.018939">
        <ele>503.295348</ele>
        <time>2021-11-16T08:18:46.411Z</time>
      </trkpt>
      <trkpt lat="47.580282" lon="8.019086">
        <ele>503.574892</ele>
        <time>2021-11-16T08:18:54.360Z</time>
      </trkpt>
      <trkpt lat="47.580093" lon="8.019071">
        <ele>503.721893</ele>
        <time>2021-11-16T08:19:00.123Z</time>
      </trkpt>
      <trkpt lat="47.579943" lon="8.018927">
        <ele>503.860687</ele>
        <time>2021-11-16T08:19:02.205Z</time>
      </trkpt>
      <trkpt lat="47.579890" lon="8.018812">
        <ele>503.933655</ele>
        <time>2021-11-16T08:19:04.667Z</time>
      </trkpt>
      <trkpt lat="47.579827" lon="8.017916">
        <ele>504.387642</ele>
        <time>2021-11-16T08:19:12.504Z</time>
      </trkpt>
      <trkpt lat="47.579800" lon="8.017631">
        <ele>504.436559</ele>
        <time>2021-11-16T08:19:15.226Z</time>
      </trkpt>
      <trkpt lat="47.579770" lon="8.017313">
        <ele>504.491136</ele>
        <time>2021-11-16T08:19:17.828Z</time>
      </trkpt>
      <trkpt lat="47.579807" lon="8.016479">
        <ele>504.633198</ele>
        <time>2021-11-16T08:19:28.229Z</time>
      </trkpt>
      <trkpt lat="47.579782" lon="8.016013">
        <ele>504.712654</ele>
        <time>2021-11-16T08:19:34.300Z</time>
      </trkpt>
      <trkpt lat="47.579693" lon="8.015395">
        <ele>504.820063</ele>
        <time>2021-11-16T08:19:41.541Z</time>
      </trkpt>
      <trkpt lat="47.579677" lon="8.015285">
        <ele>504.820761</ele>
        <time>2021-11-16T08:19:42.395Z</time>
      </trkpt>
      <trkpt lat="47.579476" lon="8.014445">
        <ele>504.571973</ele>
        <time>2021-11-16T08:19:50.690Z</time>
      </trkpt>
      <trkpt lat="47.579390" lon="8.014221">
        <ele>504.500029</ele>
        <time>2021-11-16T08:19:52.719Z</time>
      </trkpt>
      <trkpt lat="47.579303" lon="8.013994">
        <ele>504.427153</ele>
        <time>2021-11-16T08:19:55.382Z</time>
      </trkpt>
      <trkpt lat="47.579083" lon="8.012800">
        <ele>504.080345</ele>
        <time>2021-11-16T08:20:06.044Z</time>
      </trkpt>
      <trkpt lat="47.578994" lon="8.011565">
        <ele>503.661373</ele>
        <time>2021-11-16T08:20:17.459Z</time>
      </trkpt>
      <trkpt lat="47.578877" lon="8.010552">
        <ele>503.314686</ele>
        <time>2021-11-16T08:20:26.933Z</time>
      </trkpt>
      <trkpt lat="47.578802" lon="8.010247">
        <ele>503.205177</ele>
        <time>2021-11-16T08:20:29.641Z</time>
      </trkpt>
      <trkpt lat="47.578506" lon="8.009815">
        <ele>502.525570</ele>
        <time>2021-11-16T08:20:34.934Z</time>
      </trkpt>
      <trkpt lat="47.578339" lon="8.009582">
        <ele>502.127618</ele>
        <time>2021-11-16T08:20:38.166Z</time>
      </trkpt>
      <trkpt lat="47.578275" lon="8.009410">
        <ele>501.897681</ele>
        <time>2021-11-16T08:20:39.638Z</time>
      </trkpt>
      <trkpt lat="47.578269" lon="8.009376">
        <ele>501.856542</ele>
        <time>2021-11-16T08:20:40.729Z</time>
      </trkpt>
      <trkpt lat="47.578332" lon="8.009223">
        <ele>501.646716</ele>
        <time>2021-11-16T08:20:42.135Z</time>
      </trkpt>
      <trkpt lat="47.578864" lon="8.008842">
        <ele>500.621472</ele>
        <time>2021-11-16T08:20:48.701Z</time>
      </trkpt>
      <trkpt lat="47.579619" lon="8.008172">
        <ele>496.533065</ele>
        <time>2021-11-16T08:20:57.325Z</time>
      </trkpt>
      <trkpt lat="47.579923" lon="8.008040">
        <ele>494.536081</ele>
        <time>2021-11-16T08:21:00.237Z</time>
      </trkpt>
      <trkpt lat="47.580912" lon="8.007336">
        <ele>487.213869</ele>
        <time>2021-11-16T08:21:09.943Z</time>
      </trkpt>
      <trkpt lat="47.581140" lon="8.006991">
        <ele>484.408111</ele>
        <time>2021-11-16T08:21:12.764Z</time>
      </trkpt>
      <trkpt lat="47.581321" lon="8.006142">
        <ele>479.235625</ele>
        <time>2021-11-16T08:21:17.961Z</time>
      </trkpt>
      <trkpt lat="47.581764" lon="8.005054">
        <ele>472.213520</ele>
        <time>2021-11-16T08:21:25.542Z</time>
      </trkpt>
      <trkpt lat="47.582188" lon="8.004718">
        <ele>469.150413</ele>
        <time>2021-11-16T08:21:29.812Z</time>
      </trkpt>
      <trkpt lat="47.582510" lon="8.004377">
        <ele>466.629229</ele>
        <time>2021-11-16T08:21:33.341Z</time>
      </trkpt>
      <trkpt lat="47.582604" lon="8.004164">
        <ele>465.535341</ele>
        <time>2021-11-16T08:21:34.881Z</time>
      </trkpt>
      <trkpt lat="47.582727" lon="8.003464">
        <ele>462.426666</ele>
        <time>2021-11-16T08:21:39.435Z</time>
      </trkpt>
      <trkpt lat="47.582781" lon="8.003305">
        <ele>461.806675</ele>
        <time>2021-11-16T08:21:40.479Z</time>
      </trkpt>
      <trkpt lat="47.582789" lon="8.003167">
        <ele>461.947584</ele>
        <time>2021-11-16T08:21:41.526Z</time>
      </trkpt>
      <trkpt lat="47.582779" lon="8.003036">
        <ele>462.081705</ele>
        <time>2021-11-16T08:21:43.831Z</time>
      </trkpt>
      <trkpt lat="47.582735" lon="8.002783">
        <ele>462.347506</ele>
        <time>2021-11-16T08:21:45.546Z</time>
      </trkpt>
      <trkpt lat="47.582722" lon="8.002476">
        <ele>462.660441</ele>
        <time>2021-11-16T08:21:50.769Z</time>
      </trkpt>
      <trkpt lat="47.582770" lon="8.002301">
        <ele>462.852630</ele>
        <time>2021-11-16T08:21:52.100Z</time>
      </trkpt>
      <trkpt lat="47.583138" lon="8.001749">
        <ele>463.642189</ele>
        <time>2021-11-16T08:22:04.387Z</time>
      </trkpt>
      <trkpt lat="47.583129" lon="8.001600">
        <ele>463.794377</ele>
        <time>2021-11-16T08:22:08.759Z</time>
      </trkpt>
      <trkpt lat="47.583038" lon="8.001422">
        <ele>464.021595</ele>
        <time>2021-11-16T08:22:10.418Z</time>
      </trkpt>
      <trkpt lat="47.582884" lon="8.001201">
        <ele>464.344852</ele>
        <time>2021-11-16T08:22:20.797Z</time>
      </trkpt>
      <trkpt lat="47.582718" lon="8.001131">
        <ele>465.082185</ele>
        <time>2021-11-16T08:22:25.872Z</time>
      </trkpt>
      <trkpt lat="47.582003" lon="8.001392">
        <ele>470.860833</ele>
        <time>2021-11-16T08:23:03.697Z</time>
      </trkpt>
      <trkpt lat="47.581843" lon="8.001622">
        <ele>472.609806</ele>
        <time>2021-11-16T08:23:16.096Z</time>
      </trkpt>
      <trkpt lat="47.581587" lon="8.002199">
        <ele>476.265651</ele>
        <time>2021-11-16T08:23:41.662Z</time>
      </trkpt>
      <trkpt lat="47.581538" lon="8.002492">
        <ele>477.863616</ele>
        <time>2021-11-16T08:23:49.825Z</time>
      </trkpt>
      <trkpt lat="47.581433" lon="8.002768">
        <ele>478.882889</ele>
        <time>2021-11-16T08:23:58.884Z</time>
      </trkpt>
      <trkpt lat="47.580693" lon="8.003731">
        <ele>481.166928</ele>
        <time>2021-11-16T08:24:26.046Z</time>
      </trkpt>
      <trkpt lat="47.580305" lon="8.004384">
        <ele>482.528541</ele>
        <time>2021-11-16T08:24:34.006Z</time>
      </trkpt>
      <trkpt lat="47.579909" lon="8.004868">
        <ele>482.702150</ele>
        <time>2021-11-16T08:24:39.698Z</time>
      </trkpt>
      <trkpt lat="47.579228" lon="8.005324">
        <ele>482.560648</ele>
        <time>2021-11-16T08:24:48.520Z</time>
      </trkpt>
      <trkpt lat="47.578736" lon="8.005500">
        <ele>482.464807</ele>
        <time>2021-11-16T08:24:57.184Z</time>
      </trkpt>
      <trkpt lat="47.578325" lon="8.005530">
        <ele>483.635445</ele>
        <time>2021-11-16T08:25:07.304Z</time>
      </trkpt>
      <trkpt lat="47.578086" lon="8.005441">
        <ele>484.721912</ele>
        <time>2021-11-16T08:25:14.470Z</time>
      </trkpt>
      <trkpt lat="47.577792" lon="8.005044">
        <ele>486.475297</ele>
        <time>2021-11-16T08:25:27.872Z</time>
      </trkpt>
      <trkpt lat="47.577375" lon="8.004938">
        <ele>488.340645</ele>
        <time>2021-11-16T08:25:43.973Z</time>
      </trkpt>
      <trkpt lat="47.576902" lon="8.005070">
        <ele>490.449517</ele>
        <time>2021-11-16T08:26:02.728Z</time>
      </trkpt>
      <trkpt lat="47.575892" lon="8.005591">
        <ele>494.506002</ele>
        <time>2021-11-16T08:26:40.133Z</time>
      </trkpt>
      <trkpt lat="47.575756" lon="8.005585">
        <ele>495.022107</ele>
        <time>2021-11-16T08:26:44.184Z</time>
      </trkpt>
      <trkpt lat="47.575531" lon="8.005431">
        <ele>495.962167</ele>
        <time>2021-11-16T08:26:50.788Z</time>
      </trkpt>
      <trkpt lat="47.575508" lon="8.005404">
        <ele>496.073456</ele>
        <time>2021-11-16T08:26:51.608Z</time>
      </trkpt>
      <trkpt lat="47.575411" lon="8.005256">
        <ele>496.601486</ele>
        <time>2021-11-16T08:26:54.657Z</time>
      </trkpt>
      <trkpt lat="47.575168" lon="8.004892">
        <ele>497.002816</ele>
        <time>2021-11-16T08:27:00.332Z</time>
      </trkpt>
      <trkpt lat="47.574764" lon="8.003762">
        <ele>496.148663</ele>
        <time>2021-11-16T08:27:11.082Z</time>
      </trkpt>
      <trkpt lat="47.574686" lon="8.003684">
        <ele>496.055511</ele>
        <time>2021-11-16T08:27:12.054Z</time>
      </trkpt>
      <trkpt lat="47.574392" lon="8.003728">
        <ele>495.762965</ele>
        <time>2021-11-16T08:27:15.460Z</time>
      </trkpt>
      <trkpt lat="47.574305" lon="8.003732">
        <ele>495.676792</ele>
        <time>2021-11-16T08:27:16.309Z</time>
      </trkpt>
      <trkpt lat="47.574217" lon="8.003704">
        <ele>495.587685</ele>
        <time>2021-11-16T08:27:17.256Z</time>
      </trkpt>
      <trkpt lat="47.573800" lon="8.003256">
        <ele>494.984381</ele>
        <time>2021-11-16T08:27:22.957Z</time>
      </trkpt>
      <trkpt lat="47.573718" lon="8.003157">
        <ele>494.850255</ele>
        <time>2021-11-16T08:27:23.992Z</time>
      </trkpt>
      <trkpt lat="47.573679" lon="8.003065">
        <ele>494.757289</ele>
        <time>2021-11-16T08:27:24.734Z</time>
      </trkpt>
      <trkpt lat="47.573643" lon="8.002920">
        <ele>494.625092</ele>
        <time>2021-11-16T08:27:25.925Z</time>
      </trkpt>
      <trkpt lat="47.573502" lon="8.002634">
        <ele>494.322012</ele>
        <time>2021-11-16T08:27:28.412Z</time>
      </trkpt>
      <trkpt lat="47.573400" lon="8.002344">
        <ele>494.042189</ele>
        <time>2021-11-16T08:27:30.982Z</time>
      </trkpt>
      <trkpt lat="47.573126" lon="8.002031">
        <ele>493.603469</ele>
        <time>2021-11-16T08:27:35.534Z</time>
      </trkpt>
      <trkpt lat="47.573026" lon="8.001932">
        <ele>493.450959</ele>
        <time>2021-11-16T08:27:36.980Z</time>
      </trkpt>
      <trkpt lat="47.572938" lon="8.001919">
        <ele>493.338801</ele>
        <time>2021-11-16T08:27:38.819Z</time>
      </trkpt>
      <trkpt lat="47.572940" lon="8.001742">
        <ele>493.187335</ele>
        <time>2021-11-16T08:27:41.244Z</time>
      </trkpt>
      <trkpt lat="47.572943" lon="8.001367">
        <ele>493.458085</ele>
        <time>2021-11-16T08:27:45.151Z</time>
      </trkpt>
      <trkpt lat="47.572935" lon="8.001208">
        <ele>493.628875</ele>
        <time>2021-11-16T08:27:47.487Z</time>
      </trkpt>
      <trkpt lat="47.572887" lon="8.000996">
        <ele>493.868413</ele>
        <time>2021-11-16T08:27:49.917Z</time>
      </trkpt>
      <trkpt lat="47.572824" lon="8.000753">
        <ele>494.147268</ele>
        <time>2021-11-16T08:27:54.057Z</time>
      </trkpt>
      <trkpt lat="47.572747" lon="8.000534">
        <ele>494.411803</ele>
        <time>2021-11-16T08:27:56.714Z</time>
      </trkpt>
      <trkpt lat="47.572662" lon="8.000300">
        <ele>494.696483</ele>
        <time>2021-11-16T08:28:01.205Z</time>
      </trkpt>
      <trkpt lat="47.572611" lon="8.000059">
        <ele>494.967040</ele>
        <time>2021-11-16T08:28:04.584Z</time>
      </trkpt>
      <trkpt lat="47.572543" lon="7.999708">
        <ele>495.358221</ele>
        <time>2021-11-16T08:28:10.899Z</time>
      </trkpt>
      <trkpt lat="47.572560" lon="7.999471">
        <ele>495.613523</ele>
        <time>2021-11-16T08:28:14.049Z</time>
      </trkpt>
      <trkpt lat="47.572588" lon="7.999397">
        <ele>495.704407</ele>
        <time>2021-11-16T08:28:15.500Z</time>
      </trkpt>
      <trkpt lat="47.572623" lon="7.999326">
        <ele>495.798600</ele>
        <time>2021-11-16T08:28:17.401Z</time>
      </trkpt>
      <trkpt lat="47.572684" lon="7.999259">
        <ele>495.919146</ele>
        <time>2021-11-16T08:28:19.529Z</time>
      </trkpt>
      <trkpt lat="47.572737" lon="7.999234">
        <ele>496.018087</ele>
        <time>2021-11-16T08:28:20.923Z</time>
      </trkpt>
      <trkpt lat="47.572701" lon="7.999118">
        <ele>496.219548</ele>
        <time>2021-11-16T08:28:22.448Z</time>
      </trkpt>
      <trkpt lat="47.572664" lon="7.998959">
        <ele>496.484923</ele>
        <time>2021-11-16T08:28:25.606Z</time>
      </trkpt>
      <trkpt lat="47.572708" lon="7.998779">
        <ele>496.786995</ele>
        <time>2021-11-16T08:28:29.466Z</time>
      </trkpt>
      <trkpt lat="47.572763" lon="7.998535">
        <ele>497.192898</ele>
        <time>2021-11-16T08:28:33.140Z</time>
      </trkpt>
      <trkpt lat="47.572796" lon="7.998352">
        <ele>497.491771</ele>
        <time>2021-11-16T08:28:36.982Z</time>
      </trkpt>
      <trkpt lat="47.572807" lon="7.998270">
        <ele>497.623684</ele>
        <time>2021-11-16T08:28:38.680Z</time>
      </trkpt>
      <trkpt lat="47.572559" lon="7.996184">
        <ele>501.256396</ele>
        <time>2021-11-16T08:29:11.454Z</time>
      </trkpt>
      <trkpt lat="47.572468" lon="7.995163">
        <ele>503.491432</ele>
        <time>2021-11-16T08:29:29.184Z</time>
      </trkpt>
      <trkpt lat="47.572460" lon="7.995058">
        <ele>503.720752</ele>
        <time>2021-11-16T08:29:31.143Z</time>
      </trkpt>
      <trkpt lat="47.572368" lon="7.994372">
        <ele>505.238648</ele>
        <time>2021-11-16T08:29:44.877Z</time>
      </trkpt>
      <trkpt lat="47.572392" lon="7.994038">
        <ele>505.967600</ele>
        <time>2021-11-16T08:29:52.718Z</time>
      </trkpt>
      <trkpt lat="47.572556" lon="7.993328">
        <ele>509.142711</ele>
        <time>2021-11-16T08:30:10.137Z</time>
      </trkpt>
      <trkpt lat="47.572949" lon="7.992294">
        <ele>514.178443</ele>
        <time>2021-11-16T08:30:43.840Z</time>
      </trkpt>
      <trkpt lat="47.573309" lon="7.991551">
        <ele>517.998012</ele>
        <time>2021-11-16T08:31:11.592Z</time>
      </trkpt>
      <trkpt lat="47.573416" lon="7.991391">
        <ele>518.877169</ele>
        <time>2021-11-16T08:31:18.875Z</time>
      </trkpt>
      <trkpt lat="47.573910" lon="7.991246">
        <ele>521.790114</ele>
        <time>2021-11-16T08:31:38.976Z</time>
      </trkpt>
      <trkpt lat="47.574073" lon="7.991179">
        <ele>522.768540</ele>
        <time>2021-11-16T08:31:46.521Z</time>
      </trkpt>
      <trkpt lat="47.574142" lon="7.990912">
        <ele>523.884287</ele>
        <time>2021-11-16T08:31:52.590Z</time>
      </trkpt>
      <trkpt lat="47.574201" lon="7.990738">
        <ele>524.644230</ele>
        <time>2021-11-16T08:31:57.786Z</time>
      </trkpt>
      <trkpt lat="47.574219" lon="7.990687">
        <ele>524.868838</ele>
        <time>2021-11-16T08:31:59.647Z</time>
      </trkpt>
      <trkpt lat="47.574330" lon="7.990364">
        <ele>526.283392</ele>
        <time>2021-11-16T08:32:06.980Z</time>
      </trkpt>
      <trkpt lat="47.574382" lon="7.990177">
        <ele>527.072681</ele>
        <time>2021-11-16T08:32:12.018Z</time>
      </trkpt>
      <trkpt lat="47.574468" lon="7.989875">
        <ele>528.015590</ele>
        <time>2021-11-16T08:32:18.275Z</time>
      </trkpt>
      <trkpt lat="47.574578" lon="7.989425">
        <ele>528.929385</ele>
        <time>2021-11-16T08:32:28.344Z</time>
      </trkpt>
      <trkpt lat="47.574593" lon="7.989326">
        <ele>529.123103</ele>
        <time>2021-11-16T08:32:30.554Z</time>
      </trkpt>
      <trkpt lat="47.574662" lon="7.988483">
        <ele>530.744351</ele>
        <time>2021-11-16T08:32:44.978Z</time>
      </trkpt>
      <trkpt lat="47.574829" lon="7.988145">
        <ele>531.544210</ele>
        <time>2021-11-16T08:32:50.778Z</time>
      </trkpt>
      <trkpt lat="47.574884" lon="7.988081">
        <ele>531.742090</ele>
        <time>2021-11-16T08:32:52.455Z</time>
      </trkpt>
      <trkpt lat="47.575061" lon="7.987875">
        <ele>532.378945</ele>
        <time>2021-11-16T08:32:57.436Z</time>
      </trkpt>
      <trkpt lat="47.575292" lon="7.987759">
        <ele>533.011736</ele>
        <time>2021-11-16T08:33:03.339Z</time>
      </trkpt>
      <trkpt lat="47.576238" lon="7.987447">
        <ele>535.202804</ele>
        <time>2021-11-16T08:33:26.581Z</time>
      </trkpt>
      <trkpt lat="47.576362" lon="7.987312">
        <ele>535.550639</ele>
        <time>2021-11-16T08:33:31.316Z</time>
      </trkpt>
      <trkpt lat="47.576510" lon="7.987151">
        <ele>535.965680</ele>
        <time>2021-11-16T08:33:35.445Z</time>
      </trkpt>
      <trkpt lat="47.576566" lon="7.987035">
        <ele>536.183236</ele>
        <time>2021-11-16T08:33:37.864Z</time>
      </trkpt>
      <trkpt lat="47.576599" lon="7.986968">
        <ele>536.309761</ele>
        <time>2021-11-16T08:33:39.628Z</time>
      </trkpt>
      <trkpt lat="47.576730" lon="7.986697">
        <ele>536.818244</ele>
        <time>2021-11-16T08:33:44.261Z</time>
      </trkpt>
      <trkpt lat="47.576723" lon="7.986600">
        <ele>536.895174</ele>
        <time>2021-11-16T08:33:45.705Z</time>
      </trkpt>
      <trkpt lat="47.576757" lon="7.986489">
        <ele>536.966873</ele>
        <time>2021-11-16T08:33:48.213Z</time>
      </trkpt>
      <trkpt lat="47.576840" lon="7.986272">
        <ele>537.113588</ele>
        <time>2021-11-16T08:33:51.521Z</time>
      </trkpt>
      <trkpt lat="47.576909" lon="7.986140">
        <ele>537.211803</ele>
        <time>2021-11-16T08:33:53.542Z</time>
      </trkpt>
      <trkpt lat="47.577036" lon="7.985896">
        <ele>537.393060</ele>
        <time>2021-11-16T08:33:58.077Z</time>
      </trkpt>
      <trkpt lat="47.577126" lon="7.985753">
        <ele>537.508084</ele>
        <time>2021-11-16T08:34:00.046Z</time>
      </trkpt>
      <trkpt lat="47.577254" lon="7.985645">
        <ele>537.636491</ele>
        <time>2021-11-16T08:34:03.713Z</time>
      </trkpt>
      <trkpt lat="47.577191" lon="7.985496">
        <ele>537.739915</ele>
        <time>2021-11-16T08:34:05.339Z</time>
      </trkpt>
      <trkpt lat="47.577153" lon="7.985407">
        <ele>537.801863</ele>
        <time>2021-11-16T08:34:06.247Z</time>
      </trkpt>
      <trkpt lat="47.577089" lon="7.985258">
        <ele>537.905753</ele>
        <time>2021-11-16T08:34:08.564Z</time>
      </trkpt>
      <trkpt lat="47.577038" lon="7.985139">
        <ele>537.988672</ele>
        <time>2021-11-16T08:34:10.097Z</time>
      </trkpt>
      <trkpt lat="47.577038" lon="7.985139">
        <ele>537.988672</ele>
        <time>2021-11-16T08:34:10.166Z</time>
      </trkpt>
      <trkpt lat="47.577032" lon="7.985263">
        <ele>538.061789</ele>
        <time>2021-11-16T08:34:19.357Z</time>
      </trkpt>
      <trkpt lat="47.577101" lon="7.985434">
        <ele>538.178980</ele>
        <time>2021-11-16T08:34:34.201Z</time>
      </trkpt>
      <trkpt lat="47.577191" lon="7.985496">
        <ele>538.265505</ele>
        <time>2021-11-16T08:34:45.958Z</time>
      </trkpt>
      <trkpt lat="47.577153" lon="7.985407">
        <ele>538.327453</ele>
        <time>2021-11-16T08:34:46.842Z</time>
      </trkpt>
      <trkpt lat="47.577089" lon="7.985258">
        <ele>538.402890</ele>
        <time>2021-11-16T08:34:48.378Z</time>
      </trkpt>
      <trkpt lat="47.577038" lon="7.985139">
        <ele>538.306179</ele>
        <time>2021-11-16T08:34:50.037Z</time>
      </trkpt>
      <trkpt lat="47.576862" lon="7.984726">
        <ele>537.971082</ele>
        <time>2021-11-16T08:34:54.525Z</time>
      </trkpt>
      <trkpt lat="47.576773" lon="7.984556">
        <ele>537.823470</ele>
        <time>2021-11-16T08:34:56.534Z</time>
      </trkpt>
      <trkpt lat="47.575900" lon="7.982922">
        <ele>535.840718</ele>
        <time>2021-11-16T08:35:12.940Z</time>
      </trkpt>
      <trkpt lat="47.575437" lon="7.982148">
        <ele>533.125286</ele>
        <time>2021-11-16T08:35:20.281Z</time>
      </trkpt>
      <trkpt lat="47.575361" lon="7.981969">
        <ele>532.570100</ele>
        <time>2021-11-16T08:35:21.655Z</time>
      </trkpt>
      <trkpt lat="47.575313" lon="7.981867">
        <ele>532.243645</ele>
        <time>2021-11-16T08:35:22.495Z</time>
      </trkpt>
      <trkpt lat="47.575256" lon="7.981747">
        <ele>531.858397</ele>
        <time>2021-11-16T08:35:23.481Z</time>
      </trkpt>
      <trkpt lat="47.575220" lon="7.981669">
        <ele>531.610315</ele>
        <time>2021-11-16T08:35:24.038Z</time>
      </trkpt>
      <trkpt lat="47.574964" lon="7.981092">
        <ele>529.797488</ele>
        <time>2021-11-16T08:35:28.300Z</time>
      </trkpt>
      <trkpt lat="47.574694" lon="7.980238">
        <ele>526.261912</ele>
        <time>2021-11-16T08:35:34.101Z</time>
      </trkpt>
      <trkpt lat="47.574304" lon="7.979181">
        <ele>521.622075</ele>
        <time>2021-11-16T08:35:41.567Z</time>
      </trkpt>
      <trkpt lat="47.574194" lon="7.978801">
        <ele>520.029554</ele>
        <time>2021-11-16T08:35:44.205Z</time>
      </trkpt>
      <trkpt lat="47.574095" lon="7.978060">
        <ele>518.322364</ele>
        <time>2021-11-16T08:35:49.027Z</time>
      </trkpt>
      <trkpt lat="47.574121" lon="7.977062">
        <ele>516.575266</ele>
        <time>2021-11-16T08:35:55.903Z</time>
      </trkpt>
      <trkpt lat="47.574193" lon="7.976530">
        <ele>515.626100</ele>
        <time>2021-11-16T08:36:01.222Z</time>
      </trkpt>
      <trkpt lat="47.574262" lon="7.976183">
        <ele>514.993278</ele>
        <time>2021-11-16T08:36:04.492Z</time>
      </trkpt>
      <trkpt lat="47.574460" lon="7.975510">
        <ele>513.237782</ele>
        <time>2021-11-16T08:36:10.985Z</time>
      </trkpt>
      <trkpt lat="47.574555" lon="7.975246">
        <ele>512.454802</ele>
        <time>2021-11-16T08:36:12.911Z</time>
      </trkpt>
      <trkpt lat="47.574711" lon="7.974906">
        <ele>511.378806</ele>
        <time>2021-11-16T08:36:15.728Z</time>
      </trkpt>
      <trkpt lat="47.575001" lon="7.974432">
        <ele>509.704322</ele>
        <time>2021-11-16T08:36:19.704Z</time>
      </trkpt>
      <trkpt lat="47.575056" lon="7.974176">
        <ele>509.001268</ele>
        <time>2021-11-16T08:36:21.506Z</time>
      </trkpt>
      <trkpt lat="47.575036" lon="7.974091">
        <ele>508.765698</ele>
        <time>2021-11-16T08:36:22.838Z</time>
      </trkpt>
      <trkpt lat="47.574997" lon="7.974006">
        <ele>508.496700</ele>
        <time>2021-11-16T08:36:23.414Z</time>
      </trkpt>
      <trkpt lat="47.574853" lon="7.973940">
        <ele>507.912044</ele>
        <time>2021-11-16T08:36:24.847Z</time>
      </trkpt>
      <trkpt lat="47.574406" lon="7.974054">
        <ele>504.775124</ele>
        <time>2021-11-16T08:36:29.090Z</time>
      </trkpt>
      <trkpt lat="47.574133" lon="7.974088">
        <ele>502.755294</ele>
        <time>2021-11-16T08:36:31.533Z</time>
      </trkpt>
      <trkpt lat="47.573741" lon="7.973991">
        <ele>499.825214</ele>
        <time>2021-11-16T08:36:35.052Z</time>
      </trkpt>
      <trkpt lat="47.573101" lon="7.973614">
        <ele>494.747755</ele>
        <time>2021-11-16T08:36:41.024Z</time>
      </trkpt>
      <trkpt lat="47.572323" lon="7.973803">
        <ele>489.520766</ele>
        <time>2021-11-16T08:36:48.140Z</time>
      </trkpt>
      <trkpt lat="47.571917" lon="7.973943">
        <ele>486.775506</ele>
        <time>2021-11-16T08:36:52.033Z</time>
      </trkpt>
      <trkpt lat="47.571191" lon="7.974114">
        <ele>481.990308</ele>
        <time>2021-11-16T08:36:58.736Z</time>
      </trkpt>
      <trkpt lat="47.570873" lon="7.974116">
        <ele>480.079204</ele>
        <time>2021-11-16T08:37:01.601Z</time>
      </trkpt>
      <trkpt lat="47.570736" lon="7.974051">
        <ele>479.214721</ele>
        <time>2021-11-16T08:37:03.060Z</time>
      </trkpt>
      <trkpt lat="47.570601" lon="7.973936">
        <ele>478.278963</ele>
        <time>2021-11-16T08:37:04.408Z</time>
      </trkpt>
      <trkpt lat="47.570511" lon="7.973853">
        <ele>477.641938</ele>
        <time>2021-11-16T08:37:05.404Z</time>
      </trkpt>
      <trkpt lat="47.570441" lon="7.973750">
        <ele>477.049161</ele>
        <time>2021-11-16T08:37:06.465Z</time>
      </trkpt>
      <trkpt lat="47.570343" lon="7.973473">
        <ele>475.780972</ele>
        <time>2021-11-16T08:37:08.322Z</time>
      </trkpt>
      <trkpt lat="47.570047" lon="7.972099">
        <ele>469.947962</ele>
        <time>2021-11-16T08:37:17.378Z</time>
      </trkpt>
      <trkpt lat="47.569990" lon="7.971563">
        <ele>467.766075</ele>
        <time>2021-11-16T08:37:20.769Z</time>
      </trkpt>
      <trkpt lat="47.570085" lon="7.971101">
        <ele>465.823990</ele>
        <time>2021-11-16T08:37:23.662Z</time>
      </trkpt>
      <trkpt lat="47.570370" lon="7.970636">
        <ele>463.297894</ele>
        <time>2021-11-16T08:37:27.569Z</time>
      </trkpt>
      <trkpt lat="47.570627" lon="7.970391">
        <ele>461.476751</ele>
        <time>2021-11-16T08:37:30.379Z</time>
      </trkpt>
      <trkpt lat="47.570725" lon="7.969975">
        <ele>460.093058</ele>
        <time>2021-11-16T08:37:33.136Z</time>
      </trkpt>
      <trkpt lat="47.570731" lon="7.969690">
        <ele>459.278124</ele>
        <time>2021-11-16T08:37:35.048Z</time>
      </trkpt>
      <trkpt lat="47.570716" lon="7.969667">
        <ele>459.186698</ele>
        <time>2021-11-16T08:37:35.225Z</time>
      </trkpt>
      <trkpt lat="47.570480" lon="7.968735">
        <ele>456.341584</ele>
        <time>2021-11-16T08:37:41.851Z</time>
      </trkpt>
      <trkpt lat="47.570550" lon="7.966846">
        <ele>450.761221</ele>
        <time>2021-11-16T08:37:54.654Z</time>
      </trkpt>
      <trkpt lat="47.570481" lon="7.965950">
        <ele>448.004519</ele>
        <time>2021-11-16T08:38:00.717Z</time>
      </trkpt>
      <trkpt lat="47.570328" lon="7.965210">
        <ele>445.638628</ele>
        <time>2021-11-16T08:38:05.548Z</time>
      </trkpt>
      <trkpt lat="47.570254" lon="7.964874">
        <ele>443.876292</ele>
        <time>2021-11-16T08:38:07.722Z</time>
      </trkpt>
      <trkpt lat="47.570155" lon="7.964560">
        <ele>441.813488</ele>
        <time>2021-11-16T08:38:09.782Z</time>
      </trkpt>
      <trkpt lat="47.570105" lon="7.964426">
        <ele>440.902125</ele>
        <time>2021-11-16T08:38:10.737Z</time>
      </trkpt>
      <trkpt lat="47.570063" lon="7.964314">
        <ele>440.139494</ele>
        <time>2021-11-16T08:38:11.465Z</time>
      </trkpt>
      <trkpt lat="47.569716" lon="7.963517">
        <ele>434.494097</ele>
        <time>2021-11-16T08:38:17.050Z</time>
      </trkpt>
      <trkpt lat="47.569673" lon="7.963432">
        <ele>433.861789</ele>
        <time>2021-11-16T08:38:17.647Z</time>
      </trkpt>
      <trkpt lat="47.569518" lon="7.963128">
        <ele>431.593930</ele>
        <time>2021-11-16T08:38:19.873Z</time>
      </trkpt>
      <trkpt lat="47.569137" lon="7.962553">
        <ele>427.292781</ele>
        <time>2021-11-16T08:38:24.522Z</time>
      </trkpt>
      <trkpt lat="47.568755" lon="7.962005">
        <ele>423.491861</ele>
        <time>2021-11-16T08:38:29.235Z</time>
      </trkpt>
      <trkpt lat="47.568612" lon="7.961724">
        <ele>421.794019</ele>
        <time>2021-11-16T08:38:31.351Z</time>
      </trkpt>
      <trkpt lat="47.568453" lon="7.961186">
        <ele>418.960724</ele>
        <time>2021-11-16T08:38:35.071Z</time>
      </trkpt>
      <trkpt lat="47.568429" lon="7.960657">
        <ele>416.449212</ele>
        <time>2021-11-16T08:38:38.492Z</time>
      </trkpt>
      <trkpt lat="47.568473" lon="7.960157">
        <ele>414.768455</ele>
        <time>2021-11-16T08:38:41.722Z</time>
      </trkpt>
      <trkpt lat="47.568528" lon="7.959653">
        <ele>413.066651</ele>
        <time>2021-11-16T08:38:44.956Z</time>
      </trkpt>
      <trkpt lat="47.568564" lon="7.959390">
        <ele>412.172141</ele>
        <time>2021-11-16T08:38:46.736Z</time>
      </trkpt>
      <trkpt lat="47.568620" lon="7.958768">
        <ele>410.080468</ele>
        <time>2021-11-16T08:38:50.808Z</time>
      </trkpt>
      <trkpt lat="47.568617" lon="7.958466">
        <ele>409.073711</ele>
        <time>2021-11-16T08:38:52.716Z</time>
      </trkpt>
      <trkpt lat="47.568534" lon="7.958185">
        <ele>408.051238</ele>
        <time>2021-11-16T08:38:54.720Z</time>
      </trkpt>
      <trkpt lat="47.568454" lon="7.958052">
        <ele>407.323840</ele>
        <time>2021-11-16T08:38:55.815Z</time>
      </trkpt>
      <trkpt lat="47.568255" lon="7.957713">
        <ele>404.869754</ele>
        <time>2021-11-16T08:38:58.642Z</time>
      </trkpt>
      <trkpt lat="47.568026" lon="7.957127">
        <ele>401.171271</ele>
        <time>2021-11-16T08:39:02.666Z</time>
      </trkpt>
      <trkpt lat="47.567876" lon="7.956292">
        <ele>396.452043</ele>
        <time>2021-11-16T08:39:07.740Z</time>
      </trkpt>
      <trkpt lat="47.567697" lon="7.955901">
        <ele>393.871433</ele>
        <time>2021-11-16T08:39:10.458Z</time>
      </trkpt>
      <trkpt lat="47.567635" lon="7.955827">
        <ele>393.227069</ele>
        <time>2021-11-16T08:39:11.157Z</time>
      </trkpt>
      <trkpt lat="47.567555" lon="7.955776">
        <ele>392.542222</ele>
        <time>2021-11-16T08:39:11.935Z</time>
      </trkpt>
      <trkpt lat="47.567506" lon="7.955755">
        <ele>392.143511</ele>
        <time>2021-11-16T08:39:12.349Z</time>
      </trkpt>
      <trkpt lat="47.567397" lon="7.955717">
        <ele>391.268234</ele>
        <time>2021-11-16T08:39:13.370Z</time>
      </trkpt>
      <trkpt lat="47.566963" lon="7.955772">
        <ele>387.863397</ele>
        <time>2021-11-16T08:39:17.226Z</time>
      </trkpt>
      <trkpt lat="47.566562" lon="7.955847">
        <ele>384.704031</ele>
        <time>2021-11-16T08:39:20.794Z</time>
      </trkpt>
      <trkpt lat="47.566505" lon="7.955859">
        <ele>384.254005</ele>
        <time>2021-11-16T08:39:21.316Z</time>
      </trkpt>
      <trkpt lat="47.566355" lon="7.955842">
        <ele>383.078073</ele>
        <time>2021-11-16T08:39:22.608Z</time>
      </trkpt>
      <trkpt lat="47.566072" lon="7.955622">
        <ele>380.580094</ele>
        <time>2021-11-16T08:39:25.434Z</time>
      </trkpt>
      <trkpt lat="47.565971" lon="7.955460">
        <ele>379.416761</ele>
        <time>2021-11-16T08:39:26.844Z</time>
      </trkpt>
      <trkpt lat="47.565929" lon="7.955254">
        <ele>378.649103</ele>
        <time>2021-11-16T08:39:28.188Z</time>
      </trkpt>
      <trkpt lat="47.565870" lon="7.954749">
        <ele>377.242407</ele>
        <time>2021-11-16T08:39:31.450Z</time>
      </trkpt>
      <trkpt lat="47.565868" lon="7.952957">
        <ele>372.323901</ele>
        <time>2021-11-16T08:39:43.872Z</time>
      </trkpt>
      <trkpt lat="47.565742" lon="7.952404">
        <ele>369.922016</ele>
        <time>2021-11-16T08:39:47.736Z</time>
      </trkpt>
      <trkpt lat="47.565595" lon="7.952077">
        <ele>367.988905</ele>
        <time>2021-11-16T08:39:50.239Z</time>
      </trkpt>
      <trkpt lat="47.565562" lon="7.952029">
        <ele>367.651769</ele>
        <time>2021-11-16T08:39:50.663Z</time>
      </trkpt>
      <trkpt lat="47.565535" lon="7.951987">
        <ele>367.366371</ele>
        <time>2021-11-16T08:39:51.001Z</time>
      </trkpt>
      <trkpt lat="47.565408" lon="7.951808">
        <ele>366.088484</ele>
        <time>2021-11-16T08:39:52.596Z</time>
      </trkpt>
      <trkpt lat="47.565271" lon="7.951640">
        <ele>364.791965</ele>
        <time>2021-11-16T08:39:54.168Z</time>
      </trkpt>
      <trkpt lat="47.565233" lon="7.951606">
        <ele>364.468317</ele>
        <time>2021-11-16T08:39:54.551Z</time>
      </trkpt>
      <trkpt lat="47.565142" lon="7.951534">
        <ele>363.716174</ele>
        <time>2021-11-16T08:39:55.477Z</time>
      </trkpt>
      <trkpt lat="47.565101" lon="7.951517">
        <ele>363.405751</ele>
        <time>2021-11-16T08:39:55.847Z</time>
      </trkpt>
      <trkpt lat="47.564987" lon="7.951465">
        <ele>362.536064</ele>
        <time>2021-11-16T08:39:56.901Z</time>
      </trkpt>
      <trkpt lat="47.564916" lon="7.951435">
        <ele>361.997753</ele>
        <time>2021-11-16T08:39:57.529Z</time>
      </trkpt>
      <trkpt lat="47.564611" lon="7.951358">
        <ele>359.741871</ele>
        <time>2021-11-16T08:40:00.246Z</time>
      </trkpt>
      <trkpt lat="47.564462" lon="7.951378">
        <ele>358.651021</ele>
        <time>2021-11-16T08:40:01.501Z</time>
      </trkpt>
      <trkpt lat="47.564352" lon="7.951413">
        <ele>357.562414</ele>
        <time>2021-11-16T08:40:02.478Z</time>
      </trkpt>
      <trkpt lat="47.564041" lon="7.951533">
        <ele>354.419504</ele>
        <time>2021-11-16T08:40:05.224Z</time>
      </trkpt>
      <trkpt lat="47.563996" lon="7.951547">
        <ele>353.969821</ele>
        <time>2021-11-16T08:40:05.619Z</time>
      </trkpt>
      <trkpt lat="47.563940" lon="7.951569">
        <ele>353.403237</ele>
        <time>2021-11-16T08:40:06.146Z</time>
      </trkpt>
      <trkpt lat="47.563504" lon="7.951763">
        <ele>348.951209</ele>
        <time>2021-11-16T08:40:10.033Z</time>
      </trkpt>
      <trkpt lat="47.563195" lon="7.951799">
        <ele>345.919931</ele>
        <time>2021-11-16T08:40:12.748Z</time>
      </trkpt>
      <trkpt lat="47.563084" lon="7.951741">
        <ele>344.768875</ele>
        <time>2021-11-16T08:40:13.733Z</time>
      </trkpt>
      <trkpt lat="47.562980" lon="7.951601">
        <ele>343.394810</ele>
        <time>2021-11-16T08:40:14.944Z</time>
      </trkpt>
      <trkpt lat="47.562736" lon="7.951001">
        <ele>339.258455</ele>
        <time>2021-11-16T08:40:19.103Z</time>
      </trkpt>
      <trkpt lat="47.562663" lon="7.950848">
        <ele>338.288776</ele>
        <time>2021-11-16T08:40:20.195Z</time>
      </trkpt>
      <trkpt lat="47.562663" lon="7.950848">
        <ele>338.288776</ele>
        <time>2021-11-16T08:40:20.197Z</time>
      </trkpt>
      <trkpt lat="47.562589" lon="7.950738">
        <ele>337.484985</ele>
        <time>2021-11-16T08:40:21.128Z</time>
      </trkpt>
      <trkpt lat="47.562411" lon="7.950637">
        <ele>336.023284</ele>
        <time>2021-11-16T08:40:22.788Z</time>
      </trkpt>
      <trkpt lat="47.562128" lon="7.950654">
        <ele>333.851205</ele>
        <time>2021-11-16T08:40:25.361Z</time>
      </trkpt>
      <trkpt lat="47.561985" lon="7.950699">
        <ele>332.730102</ele>
        <time>2021-11-16T08:40:26.623Z</time>
      </trkpt>
      <trkpt lat="47.561884" lon="7.950731">
        <ele>331.938040</ele>
        <time>2021-11-16T08:40:27.571Z</time>
      </trkpt>
      <trkpt lat="47.561545" lon="7.950855">
        <ele>329.260262</ele>
        <time>2021-11-16T08:40:30.754Z</time>
      </trkpt>
      <trkpt lat="47.561191" lon="7.950783">
        <ele>326.658963</ele>
        <time>2021-11-16T08:40:33.979Z</time>
      </trkpt>
      <trkpt lat="47.561103" lon="7.950738">
        <ele>326.084202</ele>
        <time>2021-11-16T08:40:34.815Z</time>
      </trkpt>
      <trkpt lat="47.561003" lon="7.950686">
        <ele>325.429882</ele>
        <time>2021-11-16T08:40:35.745Z</time>
      </trkpt>
      <trkpt lat="47.560901" lon="7.950634">
        <ele>324.763897</ele>
        <time>2021-11-16T08:40:36.755Z</time>
      </trkpt>
      <trkpt lat="47.560627" lon="7.950285">
        <ele>322.533167</ele>
        <time>2021-11-16T08:40:40.009Z</time>
      </trkpt>
      <trkpt lat="47.560390" lon="7.949772">
        <ele>319.942917</ele>
        <time>2021-11-16T08:40:43.856Z</time>
      </trkpt>
      <trkpt lat="47.559708" lon="7.947739">
        <ele>311.393967</ele>
        <time>2021-11-16T08:40:58.107Z</time>
      </trkpt>
      <trkpt lat="47.559497" lon="7.947113">
        <ele>308.948713</ele>
        <time>2021-11-16T08:41:02.520Z</time>
      </trkpt>
      <trkpt lat="47.559335" lon="7.946657">
        <ele>307.147884</ele>
        <time>2021-11-16T08:41:05.833Z</time>
      </trkpt>
      <trkpt lat="47.559262" lon="7.946497">
        <ele>306.581503</ele>
        <time>2021-11-16T08:41:07.082Z</time>
      </trkpt>
      <trkpt lat="47.559192" lon="7.946365">
        <ele>306.181709</ele>
        <time>2021-11-16T08:41:08.233Z</time>
      </trkpt>
      <trkpt lat="47.559181" lon="7.946345">
        <ele>306.120266</ele>
        <time>2021-11-16T08:41:08.374Z</time>
      </trkpt>
      <trkpt lat="47.558869" lon="7.945954">
        <ele>304.678299</ele>
        <time>2021-11-16T08:41:12.344Z</time>
      </trkpt>
      <trkpt lat="47.558804" lon="7.945896">
        <ele>304.410543</ele>
        <time>2021-11-16T08:41:13.041Z</time>
      </trkpt>
      <trkpt lat="47.558745" lon="7.945856">
        <ele>304.181581</ele>
        <time>2021-11-16T08:41:13.690Z</time>
      </trkpt>
      <trkpt lat="47.558700" lon="7.945825">
        <ele>304.006458</ele>
        <time>2021-11-16T08:41:14.208Z</time>
      </trkpt>
      <trkpt lat="47.558608" lon="7.945765">
        <ele>303.651745</ele>
        <time>2021-11-16T08:41:15.259Z</time>
      </trkpt>
      <trkpt lat="47.558540" lon="7.945722">
        <ele>303.390843</ele>
        <time>2021-11-16T08:41:15.952Z</time>
      </trkpt>
      <trkpt lat="47.558415" lon="7.945666">
        <ele>302.930009</ele>
        <time>2021-11-16T08:41:17.207Z</time>
      </trkpt>
      <trkpt lat="47.558161" lon="7.945614">
        <ele>302.025149</ele>
        <time>2021-11-16T08:41:19.842Z</time>
      </trkpt>
      <trkpt lat="47.558102" lon="7.945615">
        <ele>301.816929</ele>
        <time>2021-11-16T08:41:20.406Z</time>
      </trkpt>
      <trkpt lat="47.558009" lon="7.945617">
        <ele>301.488705</ele>
        <time>2021-11-16T08:41:21.414Z</time>
      </trkpt>
      <trkpt lat="47.557910" lon="7.945625">
        <ele>301.138823</ele>
        <time>2021-11-16T08:41:22.540Z</time>
      </trkpt>
      <trkpt lat="47.557744" lon="7.945674">
        <ele>300.541512</ele>
        <time>2021-11-16T08:41:24.208Z</time>
      </trkpt>
      <trkpt lat="47.557613" lon="7.945697">
        <ele>300.356081</ele>
        <time>2021-11-16T08:41:25.802Z</time>
      </trkpt>
      <trkpt lat="47.557529" lon="7.945747">
        <ele>300.265787</ele>
        <time>2021-11-16T08:41:26.945Z</time>
      </trkpt>
      <trkpt lat="47.557394" lon="7.945716">
        <ele>300.129521</ele>
        <time>2021-11-16T08:41:28.394Z</time>
      </trkpt>
      <trkpt lat="47.557268" lon="7.945688">
        <ele>300.002434</ele>
        <time>2021-11-16T08:41:30.012Z</time>
      </trkpt>
      <trkpt lat="47.557196" lon="7.945663">
        <ele>299.928671</ele>
        <time>2021-11-16T08:41:31.010Z</time>
      </trkpt>
      <trkpt lat="47.557110" lon="7.945492">
        <ele>299.785114</ele>
        <time>2021-11-16T08:41:32.854Z</time>
      </trkpt>
      <trkpt lat="47.556999" lon="7.945268">
        <ele>299.598045</ele>
        <time>2021-11-16T08:41:35.273Z</time>
      </trkpt>
      <trkpt lat="47.556919" lon="7.945110">
        <ele>299.465080</ele>
        <time>2021-11-16T08:41:37.036Z</time>
      </trkpt>
      <trkpt lat="47.556830" lon="7.944931">
        <ele>299.315414</ele>
        <time>2021-11-16T08:41:38.873Z</time>
      </trkpt>
      <trkpt lat="47.556720" lon="7.944706">
        <ele>299.128388</ele>
        <time>2021-11-16T08:41:41.280Z</time>
      </trkpt>
      <trkpt lat="47.556650" lon="7.944566">
        <ele>299.011099</ele>
        <time>2021-11-16T08:41:42.806Z</time>
      </trkpt>
      <trkpt lat="47.556439" lon="7.944137">
        <ele>298.669564</ele>
        <time>2021-11-16T08:41:47.615Z</time>
      </trkpt>
      <trkpt lat="47.556345" lon="7.943946">
        <ele>298.645695</ele>
        <time>2021-11-16T08:41:49.773Z</time>
      </trkpt>
      <trkpt lat="47.556302" lon="7.943858">
        <ele>298.634725</ele>
        <time>2021-11-16T08:41:50.809Z</time>
      </trkpt>
      <trkpt lat="47.556288" lon="7.943830">
        <ele>298.631207</ele>
        <time>2021-11-16T08:41:51.164Z</time>
      </trkpt>
      <trkpt lat="47.556069" lon="7.943386">
        <ele>298.575679</ele>
        <time>2021-11-16T08:41:56.729Z</time>
      </trkpt>
      <trkpt lat="47.555911" lon="7.943042">
        <ele>298.533664</ele>
        <time>2021-11-16T08:42:01.134Z</time>
      </trkpt>
      <trkpt lat="47.555828" lon="7.942869">
        <ele>298.512232</ele>
        <time>2021-11-16T08:42:03.473Z</time>
      </trkpt>
      <trkpt lat="47.555765" lon="7.942732">
        <ele>298.495493</ele>
        <time>2021-11-16T08:42:05.193Z</time>
      </trkpt>
      <trkpt lat="47.555711" lon="7.942617">
        <ele>298.481347</ele>
        <time>2021-11-16T08:42:06.582Z</time>
      </trkpt>
      <trkpt lat="47.555633" lon="7.942436">
        <ele>298.459664</ele>
        <time>2021-11-16T08:42:08.704Z</time>
      </trkpt>
      <trkpt lat="47.555530" lon="7.942195">
        <ele>298.430861</ele>
        <time>2021-11-16T08:42:11.268Z</time>
      </trkpt>
      <trkpt lat="47.555494" lon="7.942104">
        <ele>298.420210</ele>
        <time>2021-11-16T08:42:12.214Z</time>
      </trkpt>
      <trkpt lat="47.555456" lon="7.942017">
        <ele>298.409746</ele>
        <time>2021-11-16T08:42:13.145Z</time>
      </trkpt>
      <trkpt lat="47.555313" lon="7.941663">
        <ele>298.284856</ele>
        <time>2021-11-16T08:42:16.649Z</time>
      </trkpt>
      <trkpt lat="47.555223" lon="7.941452">
        <ele>298.199992</ele>
        <time>2021-11-16T08:42:18.891Z</time>
      </trkpt>
      <trkpt lat="47.554981" lon="7.940858">
        <ele>297.964095</ele>
        <time>2021-11-16T08:42:25.184Z</time>
      </trkpt>
      <trkpt lat="47.554831" lon="7.940510">
        <ele>297.823707</ele>
        <time>2021-11-16T08:42:29.060Z</time>
      </trkpt>
      <trkpt lat="47.554786" lon="7.940407">
        <ele>297.781991</ele>
        <time>2021-11-16T08:42:30.135Z</time>
      </trkpt>
      <trkpt lat="47.554653" lon="7.940102">
        <ele>297.658531</ele>
        <time>2021-11-16T08:42:33.419Z</time>
      </trkpt>
      <trkpt lat="47.554446" lon="7.939644">
        <ele>297.466753</ele>
        <time>2021-11-16T08:42:38.228Z</time>
      </trkpt>
      <trkpt lat="47.554246" lon="7.939196">
        <ele>297.253458</ele>
        <time>2021-11-16T08:42:42.783Z</time>
      </trkpt>
      <trkpt lat="47.554109" lon="7.938885">
        <ele>297.105984</ele>
        <time>2021-11-16T08:42:45.926Z</time>
      </trkpt>
      <trkpt lat="47.553978" lon="7.938519">
        <ele>296.941474</ele>
        <time>2021-11-16T08:42:49.435Z</time>
      </trkpt>
      <trkpt lat="47.553909" lon="7.938319">
        <ele>296.852280</ele>
        <time>2021-11-16T08:42:51.368Z</time>
      </trkpt>
      <trkpt lat="47.553848" lon="7.938105">
        <ele>296.760033</ele>
        <time>2021-11-16T08:42:53.481Z</time>
      </trkpt>
      <trkpt lat="47.553805" lon="7.937948">
        <ele>296.692751</ele>
        <time>2021-11-16T08:42:55.020Z</time>
      </trkpt>
      <trkpt lat="47.553775" lon="7.937797">
        <ele>296.630246</ele>
        <time>2021-11-16T08:42:56.408Z</time>
      </trkpt>
      <trkpt lat="47.553769" lon="7.937764">
        <ele>296.616674</ele>
        <time>2021-11-16T08:42:56.723Z</time>
      </trkpt>
      <trkpt lat="47.553744" lon="7.937573">
        <ele>296.539416</ele>
        <time>2021-11-16T08:42:58.577Z</time>
      </trkpt>
      <trkpt lat="47.553727" lon="7.937367">
        <ele>296.457005</ele>
        <time>2021-11-16T08:43:00.486Z</time>
      </trkpt>
      <trkpt lat="47.553724" lon="7.937134">
        <ele>296.424607</ele>
        <time>2021-11-16T08:43:02.654Z</time>
      </trkpt>
      <trkpt lat="47.553732" lon="7.936945">
        <ele>296.410200</ele>
        <time>2021-11-16T08:43:04.447Z</time>
      </trkpt>
      <trkpt lat="47.553754" lon="7.936703">
        <ele>296.391623</ele>
        <time>2021-11-16T08:43:06.684Z</time>
      </trkpt>
      <trkpt lat="47.553763" lon="7.936585">
        <ele>296.382589</ele>
        <time>2021-11-16T08:43:07.814Z</time>
      </trkpt>
      <trkpt lat="47.553712" lon="7.936520">
        <ele>296.375006</ele>
        <time>2021-11-16T08:43:08.771Z</time>
      </trkpt>
      <trkpt lat="47.553680" lon="7.936493">
        <ele>296.370855</ele>
        <time>2021-11-16T08:43:09.295Z</time>
      </trkpt>
      <trkpt lat="47.553579" lon="7.936483">
        <ele>296.359444</ele>
        <time>2021-11-16T08:43:10.695Z</time>
      </trkpt>
      <trkpt lat="47.553468" lon="7.936486">
        <ele>296.346929</ele>
        <time>2021-11-16T08:43:12.286Z</time>
      </trkpt>
      <trkpt lat="47.553364" lon="7.936511">
        <ele>296.335053</ele>
        <time>2021-11-16T08:43:13.842Z</time>
      </trkpt>
      <trkpt lat="47.553216" lon="7.936481">
        <ele>296.318214</ele>
        <time>2021-11-16T08:43:16.149Z</time>
      </trkpt>
      <trkpt lat="47.553130" lon="7.936464">
        <ele>296.308433</ele>
        <time>2021-11-16T08:43:17.526Z</time>
      </trkpt>
      <trkpt lat="47.553015" lon="7.936441">
        <ele>296.295352</ele>
        <time>2021-11-16T08:43:19.433Z</time>
      </trkpt>
      <trkpt lat="47.552921" lon="7.936425">
        <ele>296.284687</ele>
        <time>2021-11-16T08:43:21.061Z</time>
      </trkpt>
      <trkpt lat="47.552791" lon="7.936403">
        <ele>296.269937</ele>
        <time>2021-11-16T08:43:22.900Z</time>
      </trkpt>
      <trkpt lat="47.552493" lon="7.936374">
        <ele>296.236272</ele>
        <time>2021-11-16T08:43:27.334Z</time>
      </trkpt>
      <trkpt lat="47.552311" lon="7.936357">
        <ele>295.994182</ele>
        <time>2021-11-16T08:43:29.853Z</time>
      </trkpt>
      <trkpt lat="47.551926" lon="7.936360">
        <ele>295.479297</ele>
        <time>2021-11-16T08:43:35.205Z</time>
      </trkpt>
      <trkpt lat="47.551730" lon="7.936373">
        <ele>295.216915</ele>
        <time>2021-11-16T08:43:37.807Z</time>
      </trkpt>
      <trkpt lat="47.551599" lon="7.936386">
        <ele>295.041330</ele>
        <time>2021-11-16T08:43:39.496Z</time>
      </trkpt>
      <trkpt lat="47.551477" lon="7.936401">
        <ele>294.877614</ele>
        <time>2021-11-16T08:43:40.854Z</time>
      </trkpt>
      <trkpt lat="47.551303" lon="7.936435">
        <ele>294.642901</ele>
        <time>2021-11-16T08:43:42.788Z</time>
      </trkpt>
      <trkpt lat="47.551020" lon="7.936540">
        <ele>294.252746</ele>
        <time>2021-11-16T08:43:45.898Z</time>
      </trkpt>
      <trkpt lat="47.550607" lon="7.936694">
        <ele>293.495688</ele>
        <time>2021-11-16T08:43:50.420Z</time>
      </trkpt>
      <trkpt lat="47.550221" lon="7.936962">
        <ele>292.200888</ele>
        <time>2021-11-16T08:43:54.833Z</time>
      </trkpt>
      <trkpt lat="47.550098" lon="7.937070">
        <ele>291.766603</ele>
        <time>2021-11-16T08:43:56.221Z</time>
      </trkpt>
      <trkpt lat="47.549970" lon="7.937189">
        <ele>291.307607</ele>
        <time>2021-11-16T08:43:57.749Z</time>
      </trkpt>
      <trkpt lat="47.549714" lon="7.937478">
        <ele>290.330022</ele>
        <time>2021-11-16T08:44:00.983Z</time>
      </trkpt>
      <trkpt lat="47.549404" lon="7.937916">
        <ele>289.028890</ele>
        <time>2021-11-16T08:44:05.355Z</time>
      </trkpt>
      <trkpt lat="47.549168" lon="7.938309">
        <ele>288.146330</ele>
        <time>2021-11-16T08:44:08.953Z</time>
      </trkpt>
      <trkpt lat="47.549055" lon="7.938483">
        <ele>287.883831</ele>
        <time>2021-11-16T08:44:10.570Z</time>
      </trkpt>
      <trkpt lat="47.548679" lon="7.939412">
        <ele>286.706241</ele>
        <time>2021-11-16T08:44:18.665Z</time>
      </trkpt>
      <trkpt lat="47.548592" lon="7.939666">
        <ele>286.396591</ele>
        <time>2021-11-16T08:44:21.045Z</time>
      </trkpt>
      <trkpt lat="47.548585" lon="7.939688">
        <ele>286.370150</ele>
        <time>2021-11-16T08:44:21.249Z</time>
      </trkpt>
      <trkpt lat="47.548563" lon="7.939753">
        <ele>286.291101</ele>
        <time>2021-11-16T08:44:21.849Z</time>
      </trkpt>
      <trkpt lat="47.548509" lon="7.939765">
        <ele>286.203153</ele>
        <time>2021-11-16T08:44:22.478Z</time>
      </trkpt>
      <trkpt lat="47.548479" lon="7.939789">
        <ele>286.148240</ele>
        <time>2021-11-16T08:44:22.876Z</time>
      </trkpt>
      <trkpt lat="47.548455" lon="7.939823">
        <ele>286.094756</ele>
        <time>2021-11-16T08:44:23.287Z</time>
      </trkpt>
      <trkpt lat="47.548437" lon="7.939866">
        <ele>286.039750</ele>
        <time>2021-11-16T08:44:23.706Z</time>
      </trkpt>
      <trkpt lat="47.548426" lon="7.939924">
        <ele>285.974254</ele>
        <time>2021-11-16T08:44:24.222Z</time>
      </trkpt>
      <trkpt lat="47.548427" lon="7.939957">
        <ele>285.938343</ele>
        <time>2021-11-16T08:44:24.535Z</time>
      </trkpt>
      <trkpt lat="47.548446" lon="7.940038">
        <ele>285.845120</ele>
        <time>2021-11-16T08:44:25.281Z</time>
      </trkpt>
      <trkpt lat="47.548468" lon="7.940081">
        <ele>285.786461</ele>
        <time>2021-11-16T08:44:25.789Z</time>
      </trkpt>
      <trkpt lat="47.548420" lon="7.940256">
        <ele>285.581105</ele>
        <time>2021-11-16T08:44:27.440Z</time>
      </trkpt>
      <trkpt lat="47.548303" lon="7.940599">
        <ele>285.533545</ele>
        <time>2021-11-16T08:44:31.367Z</time>
      </trkpt>
      <trkpt lat="47.548195" lon="7.940950">
        <ele>285.619661</ele>
        <time>2021-11-16T08:44:35.354Z</time>
      </trkpt>
      <trkpt lat="47.547852" lon="7.942144">
        <ele>285.909351</ele>
        <time>2021-11-16T08:44:49.805Z</time>
      </trkpt>
      <trkpt lat="47.547772" lon="7.942416">
        <ele>285.975588</ele>
        <time>2021-11-16T08:44:53.421Z</time>
      </trkpt>
      <trkpt lat="47.547436" lon="7.943731">
        <ele>286.376838</ele>
        <time>2021-11-16T08:45:10.416Z</time>
      </trkpt>
      <trkpt lat="47.547380" lon="7.943952">
        <ele>286.450077</ele>
        <time>2021-11-16T08:45:13.228Z</time>
      </trkpt>
      <trkpt lat="47.547280" lon="7.944357">
        <ele>286.583875</ele>
        <time>2021-11-16T08:45:18.136Z</time>
      </trkpt>
      <trkpt lat="47.547254" lon="7.944465">
        <ele>286.619450</ele>
        <time>2021-11-16T08:45:19.363Z</time>
      </trkpt>
      <trkpt lat="47.547245" lon="7.944501">
        <ele>286.631361</ele>
        <time>2021-11-16T08:45:19.758Z</time>
      </trkpt>
      <trkpt lat="47.547186" lon="7.944630">
        <ele>286.679707</ele>
        <time>2021-11-16T08:45:21.345Z</time>
      </trkpt>
      <trkpt lat="47.547164" lon="7.944724">
        <ele>286.710575</ele>
        <time>2021-11-16T08:45:22.404Z</time>
      </trkpt>
      <trkpt lat="47.547155" lon="7.944757">
        <ele>286.721617</ele>
        <time>2021-11-16T08:45:22.820Z</time>
      </trkpt>
      <trkpt lat="47.547020" lon="7.945146">
        <ele>286.857326</ele>
        <time>2021-11-16T08:45:27.152Z</time>
      </trkpt>
      <trkpt lat="47.546975" lon="7.945238">
        <ele>286.893606</ele>
        <time>2021-11-16T08:45:28.263Z</time>
      </trkpt>
      <trkpt lat="47.546915" lon="7.945468">
        <ele>287.140148</ele>
        <time>2021-11-16T08:45:30.494Z</time>
      </trkpt>
      <trkpt lat="47.546868" lon="7.945669">
        <ele>287.352835</ele>
        <time>2021-11-16T08:45:32.724Z</time>
      </trkpt>
      <trkpt lat="47.546859" lon="7.945706">
        <ele>287.392158</ele>
        <time>2021-11-16T08:45:33.185Z</time>
      </trkpt>
      <trkpt lat="47.546795" lon="7.946005">
        <ele>287.705785</ele>
        <time>2021-11-16T08:45:36.475Z</time>
      </trkpt>
      <trkpt lat="47.546735" lon="7.946282">
        <ele>287.996655</ele>
        <time>2021-11-16T08:45:40.153Z</time>
      </trkpt>
      <trkpt lat="47.546664" lon="7.946504">
        <ele>288.242277</ele>
        <time>2021-11-16T08:45:43.189Z</time>
      </trkpt>
      <trkpt lat="47.546655" lon="7.946544">
        <ele>288.284435</ele>
        <time>2021-11-16T08:45:43.752Z</time>
      </trkpt>
      <trkpt lat="47.546592" lon="7.946809">
        <ele>288.565350</ele>
        <time>2021-11-16T08:45:47.876Z</time>
      </trkpt>
      <trkpt lat="47.546633" lon="7.946946">
        <ele>288.715190</ele>
        <time>2021-11-16T08:45:50.057Z</time>
      </trkpt>
      <trkpt lat="47.546648" lon="7.947009">
        <ele>288.781985</ele>
        <time>2021-11-16T08:45:50.982Z</time>
      </trkpt>
      <trkpt lat="47.546651" lon="7.947115">
        <ele>288.888062</ele>
        <time>2021-11-16T08:45:52.705Z</time>
      </trkpt>
      <trkpt lat="47.546572" lon="7.947545">
        <ele>289.333641</ele>
        <time>2021-11-16T08:45:59.898Z</time>
      </trkpt>
      <trkpt lat="47.546159" lon="7.949303">
        <ele>293.654783</ele>
        <time>2021-11-16T08:46:38.105Z</time>
      </trkpt>
      <trkpt lat="47.545949" lon="7.950185">
        <ele>295.993982</ele>
        <time>2021-11-16T08:46:58.378Z</time>
      </trkpt>
      <trkpt lat="47.545884" lon="7.950363">
        <ele>296.331432</ele>
        <time>2021-11-16T08:47:02.310Z</time>
      </trkpt>
      <trkpt lat="47.545822" lon="7.950627">
        <ele>296.607903</ele>
        <time>2021-11-16T08:47:07.612Z</time>
      </trkpt>
      <trkpt lat="47.545810" lon="7.950694">
        <ele>296.676464</ele>
        <time>2021-11-16T08:47:08.843Z</time>
      </trkpt>
      <trkpt lat="47.545763" lon="7.950733">
        <ele>296.755401</ele>
        <time>2021-11-16T08:47:10.351Z</time>
      </trkpt>
      <trkpt lat="47.545659" lon="7.950771">
        <ele>296.912359</ele>
        <time>2021-11-16T08:47:12.773Z</time>
      </trkpt>
      <trkpt lat="47.545625" lon="7.950771">
        <ele>296.962180</ele>
        <time>2021-11-16T08:47:13.670Z</time>
      </trkpt>
      <trkpt lat="47.545567" lon="7.950765">
        <ele>297.047374</ele>
        <time>2021-11-16T08:47:15.083Z</time>
      </trkpt>
      <trkpt lat="47.545494" lon="7.950684">
        <ele>297.181018</ele>
        <time>2021-11-16T08:47:17.221Z</time>
      </trkpt>
      <trkpt lat="47.545434" lon="7.950668">
        <ele>297.270349</ele>
        <time>2021-11-16T08:47:18.700Z</time>
      </trkpt>
      <trkpt lat="47.545166" lon="7.950366">
        <ele>297.763746</ele>
        <time>2021-11-16T08:47:25.471Z</time>
      </trkpt>
      <trkpt lat="47.544901" lon="7.950044">
        <ele>298.265958</ele>
        <time>2021-11-16T08:47:31.106Z</time>
      </trkpt>
      <trkpt lat="47.544521" lon="7.949558">
        <ele>298.922171</ele>
        <time>2021-11-16T08:47:37.803Z</time>
      </trkpt>
      <trkpt lat="47.544239" lon="7.949202">
        <ele>299.167674</ele>
        <time>2021-11-16T08:47:42.766Z</time>
      </trkpt>
      <trkpt lat="47.543864" lon="7.948694">
        <ele>299.504385</ele>
        <time>2021-11-16T08:47:50.729Z</time>
      </trkpt>
      <trkpt lat="47.543760" lon="7.948548">
        <ele>299.599325</ele>
        <time>2021-11-16T08:47:52.972Z</time>
      </trkpt>
      <trkpt lat="47.543579" lon="7.948287">
        <ele>299.766697</ele>
        <time>2021-11-16T08:47:58.689Z</time>
      </trkpt>
      <trkpt lat="47.543532" lon="7.948214">
        <ele>299.811820</ele>
        <time>2021-11-16T08:47:59.815Z</time>
      </trkpt>
      <trkpt lat="47.543435" lon="7.948000">
        <ele>299.927118</ele>
        <time>2021-11-16T08:48:02.877Z</time>
      </trkpt>
      <trkpt lat="47.543407" lon="7.947938">
        <ele>299.960484</ele>
        <time>2021-11-16T08:48:04.735Z</time>
      </trkpt>
      <trkpt lat="47.543280" lon="7.947656">
        <ele>300.304036</ele>
        <time>2021-11-16T08:48:09.221Z</time>
      </trkpt>
      <trkpt lat="47.543142" lon="7.947250">
        <ele>301.120311</ele>
        <time>2021-11-16T08:48:16.685Z</time>
      </trkpt>
      <trkpt lat="47.543086" lon="7.947052">
        <ele>301.505812</ele>
        <time>2021-11-16T08:48:20.115Z</time>
      </trkpt>
      <trkpt lat="47.543056" lon="7.946935">
        <ele>301.730559</ele>
        <time>2021-11-16T08:48:22.956Z</time>
      </trkpt>
      <trkpt lat="47.543045" lon="7.946881">
        <ele>301.831848</ele>
        <time>2021-11-16T08:48:24.113Z</time>
      </trkpt>
      <trkpt lat="47.542982" lon="7.946547">
        <ele>302.454597</ele>
        <time>2021-11-16T08:48:29.512Z</time>
      </trkpt>
      <trkpt lat="47.542974" lon="7.946495">
        <ele>302.550370</ele>
        <time>2021-11-16T08:48:31.153Z</time>
      </trkpt>
      <trkpt lat="47.542960" lon="7.946400">
        <ele>302.724983</ele>
        <time>2021-11-16T08:48:33.219Z</time>
      </trkpt>
      <trkpt lat="47.542916" lon="7.945730">
        <ele>303.933806</ele>
        <time>2021-11-16T08:48:45.884Z</time>
      </trkpt>
      <trkpt lat="47.542913" lon="7.945267">
        <ele>304.765270</ele>
        <time>2021-11-16T08:48:54.380Z</time>
      </trkpt>
      <trkpt lat="47.543007" lon="7.943867">
        <ele>305.944378</ele>
        <time>2021-11-16T08:49:15.546Z</time>
      </trkpt>
      <trkpt lat="47.543161" lon="7.942213">
        <ele>306.743491</ele>
        <time>2021-11-16T08:49:33.953Z</time>
      </trkpt>
      <trkpt lat="47.543435" lon="7.940670">
        <ele>305.667863</ele>
        <time>2021-11-16T08:49:46.901Z</time>
      </trkpt>
      <trkpt lat="47.543826" lon="7.939433">
        <ele>304.391052</ele>
        <time>2021-11-16T08:49:57.302Z</time>
      </trkpt>
      <trkpt lat="47.544472" lon="7.937932">
        <ele>302.246720</ele>
        <time>2021-11-16T08:50:10.626Z</time>
      </trkpt>
      <trkpt lat="47.544705" lon="7.937395">
        <ele>301.519466</ele>
        <time>2021-11-16T08:50:15.465Z</time>
      </trkpt>
      <trkpt lat="47.544903" lon="7.936917">
        <ele>300.898951</ele>
        <time>2021-11-16T08:50:19.726Z</time>
      </trkpt>
      <trkpt lat="47.545074" lon="7.936484">
        <ele>300.343899</ele>
        <time>2021-11-16T08:50:23.557Z</time>
      </trkpt>
      <trkpt lat="47.545457" lon="7.935110">
        <ele>298.953886</ele>
        <time>2021-11-16T08:50:34.925Z</time>
      </trkpt>
      <trkpt lat="47.545674" lon="7.933625">
        <ele>298.523564</ele>
        <time>2021-11-16T08:50:48.005Z</time>
      </trkpt>
      <trkpt lat="47.545702" lon="7.933290">
        <ele>298.427961</ele>
        <time>2021-11-16T08:50:51.586Z</time>
      </trkpt>
      <trkpt lat="47.545724" lon="7.932758">
        <ele>298.327773</ele>
        <time>2021-11-16T08:50:57.852Z</time>
      </trkpt>
      <trkpt lat="47.545721" lon="7.931992">
        <ele>299.229720</ele>
        <time>2021-11-16T08:51:07.892Z</time>
      </trkpt>
      <trkpt lat="47.545696" lon="7.931497">
        <ele>299.814191</ele>
        <time>2021-11-16T08:51:15.097Z</time>
      </trkpt>
      <trkpt lat="47.545661" lon="7.930955">
        <ele>300.455286</ele>
        <time>2021-11-16T08:51:23.792Z</time>
      </trkpt>
      <trkpt lat="47.545563" lon="7.929641">
        <ele>301.605285</ele>
        <time>2021-11-16T08:51:46.132Z</time>
      </trkpt>
      <trkpt lat="47.545475" lon="7.928419">
        <ele>302.050890</ele>
        <time>2021-11-16T08:52:02.435Z</time>
      </trkpt>
      <trkpt lat="47.545421" lon="7.927686">
        <ele>302.318251</ele>
        <time>2021-11-16T08:52:08.538Z</time>
      </trkpt>
      <trkpt lat="47.545406" lon="7.927306">
        <ele>302.002424</ele>
        <time>2021-11-16T08:52:11.442Z</time>
      </trkpt>
      <trkpt lat="47.545407" lon="7.927001">
        <ele>301.349386</ele>
        <time>2021-11-16T08:52:13.729Z</time>
      </trkpt>
      <trkpt lat="47.545409" lon="7.926773">
        <ele>300.861178</ele>
        <time>2021-11-16T08:52:15.358Z</time>
      </trkpt>
      <trkpt lat="47.545417" lon="7.925848">
        <ele>298.880513</ele>
        <time>2021-11-16T08:52:21.693Z</time>
      </trkpt>
      <trkpt lat="47.545446" lon="7.925350">
        <ele>297.810294</ele>
        <time>2021-11-16T08:52:24.985Z</time>
      </trkpt>
      <trkpt lat="47.545466" lon="7.924880">
        <ele>296.801988</ele>
        <time>2021-11-16T08:52:28.038Z</time>
      </trkpt>
      <trkpt lat="47.545481" lon="7.924396">
        <ele>295.817858</ele>
        <time>2021-11-16T08:52:31.122Z</time>
      </trkpt>
      <trkpt lat="47.545521" lon="7.923709">
        <ele>294.426850</ele>
        <time>2021-11-16T08:52:35.647Z</time>
      </trkpt>
      <trkpt lat="47.545536" lon="7.923407">
        <ele>293.815990</ele>
        <time>2021-11-16T08:52:38.036Z</time>
      </trkpt>
      <trkpt lat="47.545553" lon="7.923142">
        <ele>293.279006</ele>
        <time>2021-11-16T08:52:39.757Z</time>
      </trkpt>
      <trkpt lat="47.545587" lon="7.922895">
        <ele>292.770487</ele>
        <time>2021-11-16T08:52:42.159Z</time>
      </trkpt>
      <trkpt lat="47.545641" lon="7.922610">
        <ele>292.173348</ele>
        <time>2021-11-16T08:52:44.157Z</time>
      </trkpt>
      <trkpt lat="47.545690" lon="7.922369">
        <ele>291.665613</ele>
        <time>2021-11-16T08:52:46.848Z</time>
      </trkpt>
      <trkpt lat="47.545699" lon="7.922325">
        <ele>291.572868</ele>
        <time>2021-11-16T08:52:47.109Z</time>
      </trkpt>
      <trkpt lat="47.545714" lon="7.922249">
        <ele>291.413137</ele>
        <time>2021-11-16T08:52:47.699Z</time>
      </trkpt>
      <trkpt lat="47.545778" lon="7.921947">
        <ele>291.167165</ele>
        <time>2021-11-16T08:52:50.855Z</time>
      </trkpt>
      <trkpt lat="47.545810" lon="7.921755">
        <ele>291.060701</ele>
        <time>2021-11-16T08:52:52.213Z</time>
      </trkpt>
      <trkpt lat="47.545881" lon="7.921096">
        <ele>290.701449</ele>
        <time>2021-11-16T08:52:57.561Z</time>
      </trkpt>
      <trkpt lat="47.545913" lon="7.920765">
        <ele>290.521442</ele>
        <time>2021-11-16T08:53:00.428Z</time>
      </trkpt>
      <trkpt lat="47.545973" lon="7.920313">
        <ele>290.273455</ele>
        <time>2021-11-16T08:53:05.576Z</time>
      </trkpt>
      <trkpt lat="47.546128" lon="7.919617">
        <ele>289.878911</ele>
        <time>2021-11-16T08:53:12.039Z</time>
      </trkpt>
      <trkpt lat="47.546262" lon="7.919081">
        <ele>289.698243</ele>
        <time>2021-11-16T08:53:18.037Z</time>
      </trkpt>
      <trkpt lat="47.546821" lon="7.916867">
        <ele>288.988578</ele>
        <time>2021-11-16T08:53:38.790Z</time>
      </trkpt>
      <trkpt lat="47.547032" lon="7.916218">
        <ele>288.849107</ele>
        <time>2021-11-16T08:53:45.281Z</time>
      </trkpt>
      <trkpt lat="47.547091" lon="7.916039">
        <ele>288.810539</ele>
        <time>2021-11-16T08:53:47.098Z</time>
      </trkpt>
      <trkpt lat="47.547113" lon="7.915971">
        <ele>288.795939</ele>
        <time>2021-11-16T08:53:47.697Z</time>
      </trkpt>
      <trkpt lat="47.547423" lon="7.915080">
        <ele>288.601861</ele>
        <time>2021-11-16T08:53:57.341Z</time>
      </trkpt>
      <trkpt lat="47.547994" lon="7.913433">
        <ele>289.103097</ele>
        <time>2021-11-16T08:54:17.061Z</time>
      </trkpt>
      <trkpt lat="47.548027" lon="7.913334">
        <ele>289.147242</ele>
        <time>2021-11-16T08:54:18.420Z</time>
      </trkpt>
      <trkpt lat="47.548412" lon="7.912168">
        <ele>289.737136</ele>
        <time>2021-11-16T08:54:34.823Z</time>
      </trkpt>
      <trkpt lat="47.549012" lon="7.910340">
        <ele>291.299004</ele>
        <time>2021-11-16T08:55:01.781Z</time>
      </trkpt>
      <trkpt lat="47.549102" lon="7.910058">
        <ele>291.538687</ele>
        <time>2021-11-16T08:55:05.892Z</time>
      </trkpt>
      <trkpt lat="47.549195" lon="7.909756">
        <ele>291.865172</ele>
        <time>2021-11-16T08:55:10.212Z</time>
      </trkpt>
      <trkpt lat="47.549314" lon="7.909361">
        <ele>292.348849</ele>
        <time>2021-11-16T08:55:15.763Z</time>
      </trkpt>
      <trkpt lat="47.549520" lon="7.908678">
        <ele>293.185337</ele>
        <time>2021-11-16T08:55:25.492Z</time>
      </trkpt>
      <trkpt lat="47.549539" lon="7.908625">
        <ele>293.252440</ele>
        <time>2021-11-16T08:55:26.226Z</time>
      </trkpt>
      <trkpt lat="47.550497" lon="7.905558">
        <ele>298.512290</ele>
        <time>2021-11-16T08:56:21.120Z</time>
      </trkpt>
      <trkpt lat="47.550283" lon="7.905413">
        <ele>299.141235</ele>
        <time>2021-11-16T08:56:29.286Z</time>
      </trkpt>
      <trkpt lat="47.550067" lon="7.905245">
        <ele>299.953060</ele>
        <time>2021-11-16T08:56:37.972Z</time>
      </trkpt>
      <trkpt lat="47.549867" lon="7.905155">
        <ele>300.753431</ele>
        <time>2021-11-16T08:56:45.601Z</time>
      </trkpt>
      <trkpt lat="47.549868" lon="7.905010">
        <ele>301.128198</ele>
        <time>2021-11-16T08:56:49.006Z</time>
      </trkpt>
      <trkpt lat="47.550025" lon="7.904774">
        <ele>301.984601</ele>
        <time>2021-11-16T08:56:57.157Z</time>
      </trkpt>
      <trkpt lat="47.550302" lon="7.904164">
        <ele>303.884711</ele>
        <time>2021-11-16T08:57:15.456Z</time>
      </trkpt>
      <trkpt lat="47.550498" lon="7.903445">
        <ele>305.888760</ele>
        <time>2021-11-16T08:57:35.028Z</time>
      </trkpt>
      <trkpt lat="47.550688" lon="7.902451">
        <ele>308.521889</ele>
        <time>2021-11-16T08:57:57.577Z</time>
      </trkpt>
      <trkpt lat="47.550757" lon="7.901591">
        <ele>310.723467</ele>
        <time>2021-11-16T08:58:17.373Z</time>
      </trkpt>
      <trkpt lat="47.550769" lon="7.901362">
        <ele>311.307354</ele>
        <time>2021-11-16T08:58:23.281Z</time>
      </trkpt>
      <trkpt lat="47.550801" lon="7.900244">
        <ele>314.256409</ele>
        <time>2021-11-16T08:58:47.678Z</time>
      </trkpt>
      <trkpt lat="47.550819" lon="7.898109">
        <ele>320.215852</ele>
        <time>2021-11-16T08:59:34.718Z</time>
      </trkpt>
      <trkpt lat="47.550648" lon="7.896481">
        <ele>322.664269</ele>
        <time>2021-11-16T09:00:02.373Z</time>
      </trkpt>
      <trkpt lat="47.550639" lon="7.896345">
        <ele>322.854553</ele>
        <time>2021-11-16T09:00:04.749Z</time>
      </trkpt>
      <trkpt lat="47.550660" lon="7.896255">
        <ele>322.987153</ele>
        <time>2021-11-16T09:00:05.549Z</time>
      </trkpt>
      <trkpt lat="47.550838" lon="7.895509">
        <ele>324.088937</ele>
        <time>2021-11-16T09:00:15.717Z</time>
      </trkpt>
      <trkpt lat="47.550878" lon="7.895158">
        <ele>324.508767</ele>
        <time>2021-11-16T09:00:19.780Z</time>
      </trkpt>
      <trkpt lat="47.550908" lon="7.894308">
        <ele>325.437339</ele>
        <time>2021-11-16T09:00:30.252Z</time>
      </trkpt>
      <trkpt lat="47.550892" lon="7.893176">
        <ele>326.672563</ele>
        <time>2021-11-16T09:00:44.969Z</time>
      </trkpt>
      <trkpt lat="47.550904" lon="7.891725">
        <ele>330.635416</ele>
        <time>2021-11-16T09:01:14.731Z</time>
      </trkpt>
      <trkpt lat="47.550915" lon="7.890600">
        <ele>334.484940</ele>
        <time>2021-11-16T09:01:43.571Z</time>
      </trkpt>
      <trkpt lat="47.550833" lon="7.889069">
        <ele>340.534128</ele>
        <time>2021-11-16T09:02:26.205Z</time>
      </trkpt>
      <trkpt lat="47.550831" lon="7.888611">
        <ele>342.458928</ele>
        <time>2021-11-16T09:02:38.775Z</time>
      </trkpt>
      <trkpt lat="47.550789" lon="7.887816">
        <ele>345.810162</ele>
        <time>2021-11-16T09:02:59.387Z</time>
      </trkpt>
      <trkpt lat="47.550758" lon="7.887295">
        <ele>347.933410</ele>
        <time>2021-11-16T09:03:13.209Z</time>
      </trkpt>
      <trkpt lat="47.550677" lon="7.886476">
        <ele>350.938588</ele>
        <time>2021-11-16T09:03:34.697Z</time>
      </trkpt>
      <trkpt lat="47.550548" lon="7.885799">
        <ele>353.492552</ele>
        <time>2021-11-16T09:03:51.900Z</time>
      </trkpt>
      <trkpt lat="47.550391" lon="7.885109">
        <ele>356.136169</ele>
        <time>2021-11-16T09:04:09.538Z</time>
      </trkpt>
      <trkpt lat="47.550332" lon="7.884727">
        <ele>357.442381</ele>
        <time>2021-11-16T09:04:18.228Z</time>
      </trkpt>
      <trkpt lat="47.550234" lon="7.883221">
        <ele>361.429326</ele>
        <time>2021-11-16T09:04:51.060Z</time>
      </trkpt>
      <trkpt lat="47.549927" lon="7.881490">
        <ele>366.128610</ele>
        <time>2021-11-16T09:05:23.323Z</time>
      </trkpt>
      <trkpt lat="47.549726" lon="7.880786">
        <ele>368.125680</ele>
        <time>2021-11-16T09:05:39.300Z</time>
      </trkpt>
      <trkpt lat="47.549327" lon="7.879547">
        <ele>371.685721</ele>
        <time>2021-11-16T09:06:09.084Z</time>
      </trkpt>
      <trkpt lat="47.549318" lon="7.879398">
        <ele>372.059066</ele>
        <time>2021-11-16T09:06:12.272Z</time>
      </trkpt>
      <trkpt lat="47.549140" lon="7.879391">
        <ele>372.717466</ele>
        <time>2021-11-16T09:06:19.143Z</time>
      </trkpt>
      <trkpt lat="47.548718" lon="7.879258">
        <ele>374.312757</ele>
        <time>2021-11-16T09:06:32.813Z</time>
      </trkpt>
      <trkpt lat="47.548422" lon="7.878959">
        <ele>375.637424</ele>
        <time>2021-11-16T09:06:43.460Z</time>
      </trkpt>
      <trkpt lat="47.548234" lon="7.878638">
        <ele>376.698103</ele>
        <time>2021-11-16T09:06:51.892Z</time>
      </trkpt>
      <trkpt lat="47.547992" lon="7.877974">
        <ele>377.677052</ele>
        <time>2021-11-16T09:07:04.990Z</time>
      </trkpt>
      <trkpt lat="47.547574" lon="7.876801">
        <ele>377.301641</ele>
        <time>2021-11-16T09:07:18.753Z</time>
      </trkpt>
      <trkpt lat="47.547126" lon="7.875801">
        <ele>376.423608</ele>
        <time>2021-11-16T09:07:27.536Z</time>
      </trkpt>
      <trkpt lat="47.546309" lon="7.874154">
        <ele>369.972556</ele>
        <time>2021-11-16T09:07:40.724Z</time>
      </trkpt>
      <trkpt lat="47.546135" lon="7.873859">
        <ele>368.736075</ele>
        <time>2021-11-16T09:07:43.106Z</time>
      </trkpt>
      <trkpt lat="47.546077" lon="7.873763">
        <ele>368.202003</ele>
        <time>2021-11-16T09:07:43.917Z</time>
      </trkpt>
      <trkpt lat="47.545934" lon="7.873549">
        <ele>366.811534</ele>
        <time>2021-11-16T09:07:45.721Z</time>
      </trkpt>
      <trkpt lat="47.545746" lon="7.873302">
        <ele>365.092575</ele>
        <time>2021-11-16T09:07:48.010Z</time>
      </trkpt>
      <trkpt lat="47.545515" lon="7.873015">
        <ele>363.030194</ele>
        <time>2021-11-16T09:07:50.708Z</time>
      </trkpt>
      <trkpt lat="47.545478" lon="7.872968">
        <ele>362.696779</ele>
        <time>2021-11-16T09:07:51.150Z</time>
      </trkpt>
      <trkpt lat="47.545375" lon="7.872836">
        <ele>361.765120</ele>
        <time>2021-11-16T09:07:52.344Z</time>
      </trkpt>
      <trkpt lat="47.545131" lon="7.872664">
        <ele>359.916632</ele>
        <time>2021-11-16T09:07:54.802Z</time>
      </trkpt>
      <trkpt lat="47.544883" lon="7.872555">
        <ele>358.147017</ele>
        <time>2021-11-16T09:07:57.125Z</time>
      </trkpt>
      <trkpt lat="47.544390" lon="7.872423">
        <ele>354.922056</ele>
        <time>2021-11-16T09:08:01.587Z</time>
      </trkpt>
      <trkpt lat="47.543332" lon="7.872237">
        <ele>348.566094</ele>
        <time>2021-11-16T09:08:11.349Z</time>
      </trkpt>
      <trkpt lat="47.543251" lon="7.872152">
        <ele>347.973922</ele>
        <time>2021-11-16T09:08:12.299Z</time>
      </trkpt>
      <trkpt lat="47.543233" lon="7.872082">
        <ele>347.672270</ele>
        <time>2021-11-16T09:08:12.720Z</time>
      </trkpt>
      <trkpt lat="47.543013" lon="7.872182">
        <ele>346.299432</ele>
        <time>2021-11-16T09:08:14.945Z</time>
      </trkpt>
      <trkpt lat="47.542919" lon="7.872226">
        <ele>345.711331</ele>
        <time>2021-11-16T09:08:15.879Z</time>
      </trkpt>
      <trkpt lat="47.542814" lon="7.872280">
        <ele>345.570333</ele>
        <time>2021-11-16T09:08:16.930Z</time>
      </trkpt>
      <trkpt lat="47.542714" lon="7.872334">
        <ele>345.570333</ele>
        <time>2021-11-16T09:08:17.990Z</time>
      </trkpt>
      <trkpt lat="47.542537" lon="7.872430">
        <ele>345.570333</ele>
        <time>2021-11-16T09:08:19.728Z</time>
      </trkpt>
      <trkpt lat="47.542436" lon="7.872494">
        <ele>345.570333</ele>
        <time>2021-11-16T09:08:21.006Z</time>
      </trkpt>
      <trkpt lat="47.542394" lon="7.872341">
        <ele>345.570333</ele>
        <time>2021-11-16T09:08:22.077Z</time>
      </trkpt>
      <trkpt lat="47.542218" lon="7.871866">
        <ele>345.570333</ele>
        <time>2021-11-16T09:08:25.723Z</time>
      </trkpt>
      <trkpt lat="47.542091" lon="7.871721">
        <ele>345.570333</ele>
        <time>2021-11-16T09:08:27.249Z</time>
      </trkpt>
      <trkpt lat="47.542067" lon="7.871664">
        <ele>345.570333</ele>
        <time>2021-11-16T09:08:27.923Z</time>
      </trkpt>
      <trkpt lat="47.542039" lon="7.871556">
        <ele>345.570333</ele>
        <time>2021-11-16T09:08:28.780Z</time>
      </trkpt>
      <trkpt lat="47.542007" lon="7.871458">
        <ele>345.570333</ele>
        <time>2021-11-16T09:08:29.525Z</time>
      </trkpt>
    </trkseg>
  </trk>
</gpx>